GFSNGP_700_spd_000.txt.gz
Wind_Speed
31 35 29 24 39 39 41 29 29 27 36 20 22 16 15 16 17 18 19 19 19 24 28 31 31 29 27 28 27 26 26 26 28 31 33 35 37 40 42 41 42 44 43 42
31 4 23 21 29 34 33 33 25 18 31 26 22 18 14 12 14 14 14 15 16 17 21 26 26 26 27 28 29 29 28 29 31 33 34 37 40 40 40 41 42 41 41 42
6 17 21 15 28 31 38 32 30 31 29 28 24 19 14 9 9 10 12 12 12 12 13 17 22 24 26 28 29 29 29 30 32 34 36 38 38 39 40 41 40 39 40 42
6 9 3 1 16 17 10 12 10 19 21 20 20 18 12 7 6 7 8 12 14 13 14 17 21 24 25 25 26 27 29 31 33 35 36 36 37 38 39 39 38 39 40 43
5 4 2 8 10 22 23 21 18 16 18 19 19 15 12 9 8 7 5 7 12 16 17 18 18 20 22 23 24 26 29 31 33 34 35 36 36 37 38 37 37 39 42 45
5 3 2 4 6 11 14 12 19 15 18 18 16 18 12 9 9 9 11 12 14 16 17 18 19 19 19 21 24 27 29 31 32 33 33 34 35 35 36 37 38 41 43 45
8 3 1 5 5 10 9 5 20 15 13 14 15 14 13 12 13 14 15 15 16 17 17 16 16 18 20 22 25 27 28 29 30 31 32 33 33 34 35 36 39 41 43 43
8 3 5 9 7 7 4 4 12 17 15 13 14 14 14 13 13 14 14 14 14 14 14 15 16 18 21 23 24 25 26 28 29 31 31 31 32 32 35 39 41 42 43 44
11 5 4 4 5 9 9 7 7 10 13 14 13 14 14 13 14 13 13 13 13 13 13 15 18 20 20 20 22 24 26 27 28 29 29 30 32 34 36 39 41 42 44 46
15 13 12 11 9 9 8 7 5 5 6 7 10 11 11 12 12 12 11 11 12 13 15 16 16 16 18 20 23 24 26 26 26 27 29 31 34 36 38 40 41 43 45 46
22 15 15 14 11 11 4 3 5 8 8 8 9 10 11 10 10 9 10 11 13 14 14 14 15 17 20 22 23 23 24 25 26 28 29 31 33 36 37 38 42 45 47 48
8 8 13 3 14 17 6 4 5 7 7 10 11 9 9 9 8 9 11 12 12 10 11 14 17 19 21 21 22 23 24 26 27 28 30 32 33 32 35 39 40 42 45 48
9 6 13 10 7 9 10 10 8 8 8 7 8 9 8 8 9 10 9 9 9 11 14 17 19 19 20 21 23 23 24 25 27 29 31 32 34 37 38 36 39 42 45 46
14 12 12 12 13 14 16 15 12 11 11 10 9 8 8 9 9 9 8 9 11 14 16 17 18 20 20 21 21 22 24 26 28 30 31 33 36 37 40 42 44 45 45 44
17 13 10 11 11 12 13 14 12 11 10 9 9 8 8 8 8 7 8 11 13 15 17 18 18 19 19 20 22 23 25 27 28 30 33 35 37 39 41 43 45 47 45 40
14 14 13 13 11 12 13 13 11 10 11 10 9 8 8 7 6 8 11 14 15 16 16 16 17 18 19 20 22 24 26 28 30 32 33 35 37 40 43 45 46 45 40 36
13 13 14 15 13 12 12 10 11 12 11 10 8 8 7 6 8 11 14 14 15 14 15 16 17 18 19 21 23 25 27 30 31 33 35 37 40 42 45 46 44 39 34 32
12 12 11 10 8 12 13 10 11 12 11 9 8 6 6 8 11 13 13 13 14 15 16 16 17 18 20 22 25 27 29 31 32 34 36 39 42 44 45 42 37 34 31 29
16 15 17 17 14 11 12 11 13 12 10 8 7 7 8 10 12 11 12 13 14 14 15 16 19 21 23 25 28 30 30 32 34 36 39 42 44 43 39 35 33 31 30 29
21 18 16 16 15 12 12 14 13 11 9 9 8 8 10 10 10 10 12 13 14 16 17 20 22 24 26 29 30 30 32 34 36 39 42 44 42 36 33 32 32 30 29 28
23 19 18 18 15 15 15 13 12 11 11 10 9 9 9 8 9 11 13 15 17 18 20 22 25 27 28 28 30 31 34 37 40 42 43 39 34 34 33 32 30 29 27 26
22 20 20 17 15 15 16 16 15 14 12 9 8 8 8 9 12 14 16 17 18 20 22 25 26 27 28 30 31 34 37 40 42 41 36 35 35 33 31 30 29 27 26 25
22 22 17 12 14 15 16 18 16 13 9 8 7 7 9 12 14 16 17 18 20 22 25 26 27 29 30 31 34 36 40 41 37 34 35 35 33 32 31 29 27 26 25 24
23 20 18 19 18 19 18 15 12 10 7 6 7 9 12 14 15 16 17 20 22 25 26 28 29 30 31 33 36 39 39 35 34 35 35 34 32 31 29 28 26 25 24 22
22 21 20 19 20 20 16 13 11 8 6 7 9 11 13 14 15 17 19 22 25 26 28 29 30 31 33 36 39 37 35 34 35 35 33 31 29 28 27 26 24 22 20 16
22 21 21 21 19 16 13 11 8 7 7 9 11 13 14 15 17 19 22 24 26 28 29 30 31 32 36 37 35 33 34 35 35 33 32 30 28 26 24 22 20 18 15 11
25 23 22 22 18 15 13 10 8 7 8 10 13 14 15 16 18 21 24 26 27 28 29 31 33 35 36 34 33 34 35 35 34 32 29 27 25 23 20 18 16 13 9 4

GFSNGP_700_spd_003.txt.gz
Wind_Speed
34 31 25 23 23 32 39 50 27 29 31 38 14 17 8 9 14 15 16 19 21 22 24 26 29 31 29 27 26 25 26 26 27 28 30 32 35 38 41 41 42 42 43 44
31 38 42 37 29 33 41 39 41 30 40 32 18 14 12 13 15 18 20 20 19 20 20 24 28 29 29 28 28 28 30 30 30 31 32 35 38 40 41 41 42 43 44 44
23 8 13 17 37 37 38 36 38 36 30 15 19 14 11 11 16 19 19 17 15 13 15 18 22 25 26 28 30 31 32 31 31 32 34 37 39 40 39 41 41 42 42 42
6 4 1 6 9 26 35 38 40 37 19 16 16 18 15 13 15 17 17 16 15 14 15 16 19 23 27 29 28 27 27 28 29 32 35 38 38 38 39 40 41 40 40 42
3 1 7 10 9 24 33 35 36 26 24 21 21 18 17 14 15 16 14 14 14 14 16 17 19 21 22 21 22 23 25 27 30 33 35 36 37 38 39 39 39 38 41 43
8 4 3 4 4 4 9 12 16 21 21 28 29 25 16 13 13 14 16 17 16 17 17 18 17 17 17 19 20 22 24 28 31 33 34 34 36 37 38 37 38 39 40 43
4 3 4 4 11 12 13 3 12 12 13 19 23 20 14 11 11 12 15 16 18 17 16 16 16 17 18 18 20 24 27 29 30 30 32 34 35 35 35 36 37 39 41 43
4 2 2 5 12 12 5 4 16 19 18 22 23 17 14 14 13 15 14 15 16 16 15 15 15 14 16 19 23 24 25 26 28 30 32 32 32 33 35 37 38 41 43 43
6 1 4 7 6 6 7 8 8 18 18 15 14 15 13 11 11 13 13 13 14 13 13 12 14 16 19 20 21 22 24 27 29 30 31 31 31 32 33 37 40 42 45 46
8 9 5 7 8 11 7 6 9 14 14 15 15 14 13 11 11 11 12 11 11 11 12 13 15 17 17 18 20 23 26 27 28 28 29 30 31 34 36 39 41 43 46 48
16 13 4 10 12 11 8 6 7 9 12 10 10 10 10 10 11 10 9 9 9 10 12 14 14 14 16 19 22 24 25 25 25 26 27 30 32 35 37 40 43 47 48 49
4 1 11 9 11 12 7 4 4 6 7 9 9 8 10 10 9 8 7 8 10 11 11 11 12 15 18 20 21 22 22 23 25 27 29 31 33 34 38 41 42 44 46 49
7 4 15 9 6 15 12 5 4 6 6 6 11 11 9 7 7 7 8 9 9 9 9 12 15 16 18 18 19 20 22 24 26 28 30 33 35 37 37 35 39 43 46 48
13 10 10 17 11 9 10 9 8 8 10 11 9 8 7 6 7 8 8 7 7 9 11 13 14 15 16 18 19 21 22 24 27 29 31 33 36 38 41 44 46 46 46 47
13 17 10 10 12 12 12 11 11 11 11 10 10 8 7 7 7 7 6 6 8 11 12 13 14 16 17 18 20 22 24 26 28 31 33 35 37 40 42 45 47 49 46 40
17 19 13 11 11 10 11 12 11 11 10 10 9 6 6 6 6 6 6 8 10 11 12 14 15 16 17 19 21 23 25 28 30 31 33 36 38 41 44 47 47 43 39 37
12 14 14 14 12 11 11 11 11 10 10 9 7 5 5 6 5 5 8 9 10 11 12 13 15 17 19 20 22 25 27 29 31 32 35 38 40 44 46 46 41 37 36 35
14 14 12 8 2 11 13 14 12 11 10 8 7 7 6 6 6 7 8 8 10 11 13 15 17 18 20 22 24 26 28 30 32 34 36 39 43 46 44 39 37 36 35 32
14 13 13 14 12 9 9 10 11 12 11 9 7 7 6 6 7 7 7 9 11 13 15 16 18 20 21 24 26 28 29 31 33 36 39 42 44 42 38 37 37 35 33 31
18 15 13 14 16 12 10 12 12 11 9 7 7 7 6 6 6 7 9 10 13 15 16 17 19 21 24 26 27 28 30 33 35 38 42 44 40 37 37 37 35 33 32 30
21 19 17 15 16 16 14 12 11 9 9 10 8 5 5 5 6 7 10 13 15 16 17 19 21 23 24 26 28 31 33 35 39 42 43 40 37 37 37 35 33 32 30 28
21 21 18 16 17 14 14 15 13 11 11 8 6 5 4 4 7 10 12 14 16 17 19 21 23 24 26 28 30 33 36 39 42 42 39 38 37 37 36 33 31 29 28 26
21 20 17 18 16 14 14 14 14 14 11 7 5 4 3 6 9 12 14 15 16 18 20 22 24 26 28 31 33 36 39 41 40 38 38 38 38 36 34 32 30 29 26 23
19 20 20 20 16 14 13 14 15 12 9 7 5 3 5 9 11 13 15 16 18 20 22 24 27 29 31 33 36 38 40 39 38 38 38 37 36 34 32 30 28 26 23 20
20 21 21 13 15 16 16 15 13 10 9 7 4 5 8 11 13 15 16 17 20 22 25 27 29 31 33 35 38 39 38 37 37 37 36 35 33 30 28 27 25 22 19 15
22 19 15 18 17 17 16 14 12 11 8 5 5 7 11 13 14 15 17 19 22 25 28 29 31 33 35 37 37 36 36 37 37 35 34 31 30 28 25 22 20 18 14 9
23 23 23 22 21 20 17 14 12 10 7 6 6 10 13 15 16 17 19 22 25 27 29 31 33 34 36 35 35 35 36 36 35 32 29 29 26 23 21 20 17 12 7 2

GFSNGP_700_spd_006.txt.gz
Wind_Speed
38 39 34 24 19 29 41 42 25 43 36 45 32 25 21 24 12 12 14 17 19 19 22 23 24 24 27 28 27 26 25 25 24 26 27 28 30 34 37 39 42 44 44 45
32 33 35 43 39 31 29 37 45 46 42 35 21 18 14 18 9 12 17 17 17 18 18 19 20 20 25 27 26 26 26 26 27 28 29 31 35 36 38 40 43 43 44 44
17 17 7 22 39 40 36 34 33 35 17 15 10 17 16 8 10 13 15 15 15 14 14 15 17 19 23 25 25 25 27 28 28 29 32 34 35 36 38 41 42 42 43 43
16 17 3 9 10 18 34 32 30 34 22 18 18 8 8 4 14 16 15 15 14 12 13 15 16 19 22 24 26 27 27 27 28 30 31 32 33 36 39 40 40 41 41 41
6 9 10 15 11 3 25 29 28 26 19 14 10 7 5 12 17 19 17 15 13 11 11 13 16 18 21 23 23 23 24 26 27 27 28 31 34 36 37 38 40 39 40 40
8 4 4 13 7 11 5 6 6 15 13 14 7 13 13 10 14 15 16 18 17 15 15 16 15 16 16 18 19 21 22 22 23 26 30 32 34 35 36 38 38 37 37 40
10 5 3 8 6 11 7 8 6 15 18 20 19 17 11 11 10 12 15 17 20 19 16 15 15 15 15 16 17 18 19 22 25 28 30 31 33 35 36 35 36 37 39 40
4 3 2 4 1 3 9 8 10 11 12 16 15 13 7 8 10 10 12 14 15 16 15 14 14 13 14 14 15 18 21 24 25 27 29 31 32 33 34 35 36 37 39 39
4 2 2 4 3 5 4 5 6 15 13 17 16 13 10 8 8 9 13 12 14 14 13 13 13 12 13 15 18 20 21 22 25 27 29 29 30 31 33 35 37 39 41 43
5 4 5 4 4 4 1 4 5 13 14 13 11 9 10 9 8 10 12 12 12 11 11 11 12 13 14 16 17 18 21 23 25 26 27 28 29 30 33 35 37 40 44 47
8 9 8 7 6 7 1 2 5 10 12 11 11 10 9 8 9 10 10 10 10 10 10 11 12 13 14 15 17 20 22 23 24 25 25 27 29 31 33 37 41 45 47 49
5 7 12 8 9 6 5 4 5 5 6 10 10 7 9 11 11 10 9 8 8 9 10 10 10 10 13 16 19 20 21 22 22 23 25 27 29 31 35 38 40 43 46 49
9 4 12 9 12 12 8 3 4 4 6 6 9 9 9 9 9 7 7 8 8 7 6 7 9 12 15 17 18 18 18 20 21 23 25 28 31 34 34 34 39 43 47 49
13 9 9 14 8 12 15 9 4 3 6 10 10 14 12 9 7 6 6 6 5 5 6 8 11 13 14 14 15 16 18 20 22 25 28 31 33 36 38 41 43 44 44 41
13 13 12 10 15 10 10 9 7 8 9 10 13 10 8 5 5 5 5 5 5 6 8 10 11 11 12 13 15 17 19 22 25 28 31 32 35 37 40 42 45 46 41 38
20 16 14 11 12 12 10 10 10 9 11 11 8 6 5 6 6 6 5 4 6 7 8 8 9 11 13 14 16 19 22 24 27 29 31 34 36 39 41 44 44 40 39 40
13 19 16 12 9 10 10 11 12 12 10 9 9 7 6 6 6 6 5 5 5 5 6 8 10 12 14 16 19 21 24 27 29 31 33 36 38 41 44 43 40 39 39 38
13 15 15 12 4 11 13 16 16 15 12 10 8 6 6 6 6 4 4 3 4 6 8 10 12 14 16 18 21 24 26 28 30 32 34 37 41 43 42 40 39 39 38 35
12 13 13 15 14 12 11 11 12 13 11 10 7 7 7 6 3 2 2 3 5 7 10 12 14 15 18 21 23 25 27 29 32 35 37 40 42 41 39 39 38 38 37 34
13 13 13 14 16 14 13 14 13 14 11 8 8 8 6 3 2 1 2 4 8 10 13 14 16 18 21 22 24 27 29 31 34 37 40 42 41 39 39 39 38 36 34 31
20 16 15 14 16 18 16 13 12 11 10 10 10 8 4 3 2 1 4 8 11 13 14 16 17 20 23 25 27 29 32 34 37 39 41 40 40 40 39 38 36 34 32 29
21 19 17 15 17 17 17 16 15 13 11 11 9 6 5 3 0 4 8 11 13 14 16 18 20 22 24 26 29 32 34 36 39 40 40 40 40 40 38 36 34 31 28 25
19 19 18 18 17 18 17 17 15 14 13 11 8 6 4 1 3 7 11 13 14 15 17 20 22 24 27 30 32 34 36 38 39 40 40 40 40 39 36 33 30 27 24 20
18 18 19 19 21 20 15 15 14 14 13 10 7 6 3 2 6 10 13 14 15 17 19 22 25 27 30 32 34 36 37 38 39 39 39 39 38 35 32 29 25 23 20 16
17 19 21 22 22 19 15 13 13 14 11 9 8 6 3 5 9 12 14 15 16 19 22 25 27 30 32 34 36 37 37 38 38 38 37 36 33 30 26 24 23 20 16 10
20 20 21 20 16 15 15 16 15 12 11 10 8 4 4 8 11 13 15 16 19 22 25 27 29 32 34 35 36 36 37 38 37 36 35 33 30 24 22 22 20 16 10 4
21 22 23 22 21 19 18 17 14 12 11 9 7 4 7 11 13 15 16 18 21 24 27 29 32 33 34 34 35 37 38 37 37 34 32 30 24 21 20 19 15 9 3 4

GFSNGP_700_spd_009.txt.gz
Wind_Speed
41 45 42 42 36 32 37 46 28 36 29 36 30 32 20 28 15 13 9 19 27 30 34 34 32 32 30 28 28 29 30 28 26 24 23 24 25 27 30 34 37 39 40 42
45 42 29 34 41 44 37 34 37 42 48 31 35 32 23 6 15 1 16 20 24 25 28 31 30 27 27 26 28 29 28 27 25 24 25 25 27 30 34 36 37 39 40 42
34 29 26 20 11 30 41 42 37 35 13 13 12 14 11 23 12 15 21 24 27 27 25 23 21 20 21 24 26 26 25 24 24 24 25 27 30 33 34 35 37 39 41 40
26 25 3 14 13 10 12 20 28 29 24 21 17 19 21 20 14 21 26 25 25 24 22 21 19 20 21 22 23 23 23 23 23 24 26 29 31 32 33 34 37 38 39 39
6 14 16 13 19 10 4 10 13 10 10 14 15 14 12 10 18 24 24 23 22 21 19 18 18 19 20 21 21 21 21 21 22 25 27 28 29 30 33 35 35 37 37 38
13 6 4 17 14 15 12 15 13 5 6 6 2 3 14 18 22 20 24 25 22 21 19 17 16 15 15 16 16 17 18 20 22 23 24 26 28 31 32 33 34 34 35 36
13 7 9 12 9 10 10 15 16 15 20 16 13 13 14 16 17 18 19 21 22 18 14 13 13 12 12 12 13 14 16 19 20 21 24 26 28 29 31 32 33 33 34 36
4 5 5 11 8 9 13 14 7 10 13 16 16 16 11 10 12 11 11 11 14 15 14 12 11 10 10 11 13 15 16 17 20 22 24 25 28 29 29 30 31 32 34 35
4 5 9 7 8 11 13 11 4 9 11 12 12 10 8 8 6 5 7 8 11 13 10 9 9 10 11 13 13 14 16 19 20 21 24 25 26 27 28 30 31 34 36 38
10 6 6 6 5 5 9 11 5 11 10 8 9 10 7 8 7 8 10 9 9 11 10 9 9 10 10 12 14 16 17 18 20 22 22 23 24 26 28 31 34 36 38 41
9 9 10 7 4 1 4 7 7 8 10 11 10 9 7 6 7 10 8 9 10 9 9 9 9 10 12 13 14 15 17 18 19 19 21 22 24 26 30 33 36 39 41 45
9 9 6 4 5 3 1 3 6 8 8 11 10 6 5 7 9 9 9 9 8 7 9 9 10 11 11 12 14 15 16 16 17 19 20 23 25 29 32 34 37 40 43 46
13 8 5 6 7 7 5 4 4 6 10 6 4 3 7 8 10 9 9 6 7 8 8 9 8 9 10 12 12 13 14 15 17 19 22 24 27 29 29 33 37 41 44 44
13 10 6 9 6 10 7 3 2 2 5 6 5 4 11 10 7 6 6 6 7 7 7 6 8 9 9 10 11 12 14 16 19 21 24 27 29 32 36 38 39 38 39 38
15 14 12 11 12 8 10 10 5 4 5 10 8 7 9 8 6 5 6 7 7 5 5 6 7 8 8 10 11 13 15 18 21 23 26 29 32 36 38 40 42 42 39 36
19 17 15 13 11 13 9 9 8 6 12 12 9 10 8 5 5 5 6 5 4 4 5 6 6 7 9 10 12 15 17 20 23 26 29 32 35 38 39 41 40 38 38 38
16 21 18 15 11 13 11 8 10 7 5 12 11 8 6 5 5 6 6 4 3 4 4 4 6 8 10 12 15 18 21 23 26 28 32 35 37 39 41 40 39 38 38 38
7 15 15 13 9 10 9 15 16 15 13 12 10 8 6 6 7 6 4 4 3 2 3 6 8 10 12 14 18 20 23 25 28 31 34 37 39 41 41 40 39 39 37 34
9 13 18 18 14 14 14 16 18 18 15 12 10 8 8 8 7 5 4 3 1 3 6 8 9 11 14 17 20 22 25 27 31 34 36 38 40 40 40 40 38 37 35 32
10 11 12 15 16 15 14 17 17 16 14 10 9 8 8 8 6 5 4 1 3 5 7 9 11 14 16 19 22 24 27 30 33 36 38 39 40 39 39 39 37 34 31 28
12 12 12 13 16 16 18 15 15 15 12 11 10 10 9 7 6 4 2 2 5 7 9 11 14 16 19 22 24 27 30 33 35 37 38 39 39 39 38 37 34 32 28 25
20 18 15 15 16 17 19 18 17 16 13 10 10 10 8 7 6 3 2 5 7 9 11 13 16 19 22 24 27 30 32 34 35 37 38 39 39 38 36 34 31 28 24 20
20 20 18 16 16 19 19 20 19 16 13 13 13 11 9 8 5 3 4 7 10 11 13 16 19 22 24 27 30 32 33 34 36 38 39 38 37 35 35 30 27 25 20 15
19 20 20 19 20 21 21 21 18 16 16 16 13 11 10 8 4 4 7 10 11 13 16 18 21 24 27 30 32 33 34 35 37 38 37 37 35 34 31 26 24 22 17 11
18 20 20 20 21 22 23 17 15 15 16 15 13 12 10 6 4 6 9 12 13 15 18 21 24 27 30 32 33 33 35 36 37 36 36 34 33 31 25 22 21 17 11 5
19 19 20 21 22 24 22 18 15 15 16 14 13 11 8 5 5 9 12 13 15 18 21 24 27 30 32 32 33 35 37 37 36 36 35 33 30 25 21 19 17 11 4 3
20 21 23 24 24 22 19 18 18 17 16 15 14 11 7 5 8 12 14 15 17 20 23 26 29 31 32 33 35 37 37 38 37 35 33 30 25 21 18 16 11 3 3 5

GFSNGP_700_spd_012.txt.gz
Wind_Speed
36 36 36 39 39 37 38 46 32 49 30 38 26 24 24 25 21 20 21 20 26 35 36 35 34 38 38 34 30 28 28 29 28 28 28 26 24 25 27 27 28 34 37 39
40 34 27 35 41 36 33 43 43 42 46 24 26 25 27 26 8 16 16 18 26 34 33 32 31 34 34 30 28 29 30 27 26 27 27 25 25 26 27 29 33 35 37 39
19 20 37 16 20 13 17 21 26 36 20 23 21 17 6 10 14 2 14 22 31 35 33 32 30 30 30 28 28 29 28 23 26 26 24 24 24 27 28 32 34 35 36 39
24 29 4 17 19 12 9 12 13 18 13 15 21 22 19 18 11 13 16 23 27 29 29 28 26 26 24 25 25 24 24 24 23 23 22 23 25 27 31 32 33 35 37 39
7 12 17 12 20 11 9 14 24 8 6 10 12 18 16 15 19 22 26 29 30 31 29 27 25 23 23 22 22 21 21 20 20 20 21 23 26 29 29 30 33 35 37 38
9 5 4 15 19 16 11 10 12 8 8 19 13 14 20 21 21 20 20 23 24 25 24 22 22 20 19 18 18 17 17 17 17 19 22 25 25 26 28 31 33 35 36 36
17 8 9 12 14 11 10 13 14 9 14 18 18 16 17 20 19 24 25 26 24 22 20 18 17 17 17 16 15 14 15 16 18 19 20 22 24 27 28 30 32 33 34 34
5 5 4 12 9 11 13 11 7 8 14 16 20 21 18 16 17 17 15 16 19 19 19 18 17 15 14 14 13 13 14 15 16 17 20 23 24 26 29 30 31 31 32 35
6 6 13 8 7 9 12 8 6 11 11 15 14 13 14 16 16 16 15 17 18 18 16 16 16 15 13 11 11 11 12 14 17 18 20 22 25 27 27 28 30 32 33 35
7 7 10 7 5 5 9 8 6 9 7 8 9 10 10 8 9 13 15 18 19 18 16 13 12 11 9 9 9 12 14 14 16 19 22 23 24 25 27 29 31 33 35 37
9 7 12 5 3 2 4 5 5 4 6 10 10 7 7 4 6 11 13 17 17 16 13 11 8 8 9 10 11 12 13 15 18 20 21 22 23 25 28 30 32 35 37 39
9 11 10 5 4 3 1 4 6 7 5 7 7 4 4 6 10 12 14 15 15 13 11 9 9 8 8 9 10 12 15 17 18 19 20 22 24 27 29 31 34 37 39 41
11 13 8 4 4 5 5 6 7 8 7 4 8 8 7 8 12 14 15 14 11 7 7 7 7 7 8 10 12 14 15 16 17 19 21 23 25 27 30 33 35 38 40 40
16 11 10 6 5 8 6 6 6 6 8 6 4 5 12 11 13 12 8 5 7 8 7 6 7 8 10 11 12 13 14 16 17 19 22 24 27 30 32 34 35 36 39 40
17 14 15 11 10 8 10 7 4 3 6 8 9 9 10 10 8 7 6 6 6 6 6 7 8 8 9 10 11 13 15 16 18 21 23 26 30 32 35 37 39 40 38 36
17 20 18 15 10 11 10 8 6 4 7 12 9 11 10 9 6 5 5 7 7 7 7 6 7 7 8 10 12 14 16 18 20 23 26 29 33 35 37 39 40 40 39 39
12 20 18 15 13 12 12 10 8 7 10 13 10 10 8 6 5 6 7 7 6 6 5 5 5 8 10 11 13 15 17 19 22 25 29 32 35 37 39 40 40 39 38 37
8 17 20 16 11 13 16 13 14 13 9 12 11 9 7 6 7 7 7 6 5 4 4 5 8 9 10 12 15 17 19 22 25 28 31 34 36 39 40 40 40 39 37 34
6 8 20 19 17 16 15 11 14 17 14 12 10 8 7 6 7 7 6 5 5 4 5 7 9 10 12 14 16 19 22 25 28 30 33 35 38 39 40 39 39 38 36 33
9 7 11 15 15 15 16 16 18 18 16 13 10 9 7 8 8 7 6 6 4 4 6 8 10 12 14 16 19 21 24 27 30 32 34 36 38 38 38 38 37 36 31 28
10 10 11 13 16 16 16 15 17 17 14 11 10 9 9 10 9 8 7 5 4 6 8 10 12 13 16 19 21 24 27 29 31 33 35 37 37 37 37 35 34 29 27 23
13 11 11 12 14 15 16 19 18 17 15 11 10 10 11 10 10 9 6 4 5 8 10 12 14 16 19 21 24 27 29 30 32 35 37 37 36 36 33 33 29 25 23 18
20 18 15 14 15 17 18 21 21 19 16 14 12 13 13 12 10 7 5 5 8 10 12 14 16 19 21 24 27 29 30 32 34 36 37 36 36 33 32 30 25 22 19 12
17 20 18 18 19 20 22 22 23 23 20 16 15 15 12 11 10 7 6 7 10 12 14 16 19 21 24 27 29 31 33 35 36 37 36 36 34 32 29 25 21 19 14 7
15 19 20 21 21 22 23 23 23 21 17 16 16 14 13 11 9 7 8 10 12 14 16 18 21 23 26 29 31 34 36 37 37 37 36 34 32 29 26 22 18 15 8 1
13 19 21 21 21 22 24 23 21 17 15 15 16 15 14 12 10 8 9 12 14 16 18 20 23 26 29 31 34 37 38 38 38 37 35 32 28 25 21 18 15 10 3 4
13 18 21 23 25 26 25 23 21 18 17 18 17 16 15 13 10 9 12 14 16 18 20 22 25 28 30 33 36 38 39 40 40 36 32 29 25 21 17 14 10 4 6 6

GFSNGP_700_spd_015.txt.gz
Wind_Speed
25 29 28 30 31 35 39 46 38 58 42 46 34 30 31 26 21 24 24 21 21 24 23 27 30 34 38 35 32 31 27 27 28 31 30 31 30 30 27 26 26 27 30 34
31 22 16 28 33 30 22 23 32 37 42 20 24 25 22 24 22 29 22 24 27 24 23 29 29 29 36 33 30 30 32 28 35 31 32 27 25 23 25 27 27 28 33 36
11 12 28 11 18 17 14 12 18 27 25 17 21 23 21 15 11 19 21 20 23 22 26 28 28 26 33 33 32 31 33 27 31 24 23 21 22 24 27 26 27 31 35 40
17 19 3 8 18 14 13 12 13 22 22 14 18 21 17 10 6 12 12 15 21 24 27 28 27 27 28 30 32 28 28 29 17 20 20 21 19 25 25 26 30 34 36 35
5 11 23 6 13 16 14 13 20 18 13 11 11 17 15 6 9 12 11 14 20 25 25 26 27 26 22 25 36 27 26 17 18 19 17 22 21 21 24 29 32 32 33 35
10 5 4 11 14 17 10 8 13 11 15 14 13 13 19 22 20 18 18 22 24 26 29 27 25 25 18 17 8 7 9 11 17 18 16 16 20 24 27 28 29 32 33 35
19 8 12 11 18 12 7 10 7 7 6 7 13 14 12 15 18 23 26 26 25 24 21 21 21 16 12 11 10 11 13 11 11 12 16 19 22 23 25 28 30 32 33 33
8 6 7 11 16 8 11 9 1 3 9 11 9 10 13 12 11 11 13 18 19 17 17 17 16 15 14 12 11 8 8 10 13 15 17 19 22 24 26 28 30 30 30 32
8 5 12 14 10 10 11 9 5 4 6 3 3 9 10 9 9 10 13 14 16 15 13 14 14 13 11 9 8 9 11 13 14 15 18 20 22 25 26 27 27 28 31 33
9 5 13 16 11 8 9 6 8 8 7 5 6 6 8 5 10 14 13 13 12 12 12 11 11 11 11 11 12 11 11 12 14 16 18 21 23 23 23 25 28 30 33 35
10 9 9 13 8 7 6 3 6 6 6 7 7 8 7 5 11 13 12 14 14 12 13 12 10 9 10 9 9 10 11 13 15 17 19 19 20 21 24 26 30 32 35 38
7 13 14 13 8 6 4 2 3 4 7 9 3 2 3 5 10 13 13 15 15 14 12 10 9 9 8 9 10 11 12 14 15 16 17 19 21 23 26 29 32 35 38 40
16 13 12 9 7 5 3 2 3 6 6 6 4 7 6 6 10 14 16 16 15 13 13 11 9 9 9 8 9 11 12 13 14 16 18 21 23 26 29 31 33 36 37 40
19 16 13 9 8 7 6 4 4 5 6 6 4 5 7 8 10 13 13 13 11 10 9 8 8 7 7 8 10 11 12 13 15 18 20 22 25 27 30 33 35 38 40 41
23 22 18 14 11 10 11 8 7 7 8 5 5 4 11 12 13 10 8 8 8 7 7 6 6 6 8 8 9 11 13 15 17 19 22 24 27 30 32 35 38 39 40 40
17 18 17 17 15 14 12 12 9 7 7 9 7 8 10 9 7 6 7 8 8 7 5 5 6 6 7 9 11 13 14 16 19 21 24 26 30 32 35 37 39 40 41 41
13 16 17 19 17 13 13 14 11 10 8 11 9 8 7 6 5 5 6 6 5 4 4 5 6 6 8 10 12 14 16 18 20 23 26 29 32 34 37 39 39 39 39 39
6 6 16 18 17 14 14 14 12 11 9 10 10 9 7 5 5 5 6 5 5 5 5 5 6 8 10 12 14 16 18 20 23 26 29 32 34 36 38 39 39 39 37 37
9 8 14 19 16 15 14 15 11 11 11 10 10 8 6 6 6 7 7 6 5 4 4 6 8 10 12 14 16 18 20 23 26 29 31 33 35 38 39 38 38 36 36 33
10 8 8 14 17 14 16 14 9 15 14 12 10 8 7 7 7 7 7 6 5 4 6 8 10 12 14 16 18 21 23 26 29 31 33 35 37 38 38 37 35 34 32 29
9 8 9 8 9 11 14 16 13 15 15 15 13 9 8 8 9 9 8 6 5 6 8 10 12 14 16 18 21 23 26 29 31 33 35 36 38 37 37 35 33 32 27 24
11 9 8 10 13 15 16 17 17 18 17 14 9 9 9 10 9 8 7 6 6 8 10 12 14 16 18 20 23 26 29 32 33 36 37 38 38 37 35 32 30 27 22 19
14 13 12 11 12 14 16 18 19 19 16 14 10 10 10 11 10 10 9 8 8 9 12 14 16 18 21 23 26 29 32 34 37 39 40 39 37 35 32 29 26 21 17 13
13 18 18 16 15 16 18 18 20 22 19 19 16 14 12 12 11 11 10 9 9 11 14 16 18 21 23 26 29 32 35 38 40 41 41 39 37 33 29 25 21 16 14 9
9 14 18 20 19 18 19 20 22 24 24 23 18 14 14 13 13 12 11 9 10 13 16 18 21 23 25 29 32 35 38 41 42 42 42 39 34 30 25 21 16 13 10 4
11 13 17 19 19 19 20 22 24 25 25 21 16 15 15 14 13 12 10 10 13 16 18 20 22 25 28 31 34 38 40 42 42 41 39 35 30 24 19 15 12 10 5 3
12 12 16 18 20 22 23 24 26 24 19 18 15 16 16 15 14 12 11 12 15 17 19 21 23 26 30 33 37 39 40 41 40 37 35 31 23 17 13 11 9 5 3 6

GFSNGP_700_spd_018.txt.gz
Wind_Speed
21 22 22 25 23 20 29 36 35 49 47 43 39 31 29 32 31 27 34 25 26 31 34 17 18 23 29 31 30 27 30 32 33 33 33 33 31 25 26 26 24 25 26 25
25 7 8 18 19 24 26 21 26 29 37 32 29 30 24 19 18 24 26 32 32 28 26 16 15 23 25 26 28 27 30 33 33 30 41 30 34 30 21 21 23 24 25 33
8 12 20 12 5 13 16 14 19 30 30 29 23 20 25 24 20 22 23 20 24 24 19 15 16 24 23 25 27 27 28 30 31 37 26 41 20 26 18 22 21 29 30 31
11 13 2 3 18 14 16 8 12 25 19 20 15 15 13 13 14 17 18 16 19 24 15 14 19 22 23 27 27 26 25 26 33 28 27 15 14 12 15 25 26 24 29 33
4 9 16 4 11 20 19 11 17 15 21 24 19 23 10 8 6 2 4 7 11 9 12 18 22 23 20 22 24 24 24 28 28 26 12 10 15 16 17 19 23 28 31 31
5 4 3 6 14 20 15 6 12 13 16 17 18 18 21 10 9 6 4 5 5 10 14 17 18 19 22 23 23 25 22 15 4 4 5 8 10 13 19 23 25 26 27 29
20 8 11 9 11 15 5 11 14 10 14 12 14 15 17 19 17 14 20 20 17 15 18 16 23 22 19 17 17 9 9 10 5 5 5 8 15 17 18 21 23 25 27 28
10 6 8 8 15 10 15 15 15 8 7 9 15 7 13 12 12 15 18 18 17 13 15 17 15 14 11 11 9 9 9 8 3 3 9 11 12 16 19 21 24 25 26 28
9 6 7 16 18 17 15 17 12 6 3 6 6 7 14 7 13 13 13 12 13 13 14 14 14 16 11 8 7 7 3 2 4 6 8 12 15 18 20 21 23 25 27 29
13 5 8 13 14 12 11 14 9 7 5 2 4 2 5 9 7 7 8 8 8 9 9 10 11 10 10 6 4 2 3 5 7 10 12 14 17 18 19 21 24 26 28 31
14 8 6 8 15 11 10 10 5 6 7 6 5 4 2 1 3 4 5 5 4 6 5 5 5 6 2 3 4 5 8 10 11 12 15 16 17 18 20 23 25 27 31 34
12 9 11 14 13 9 7 8 4 5 6 8 8 7 5 2 6 8 9 6 5 5 4 3 3 2 5 6 6 8 9 10 13 14 14 16 17 20 22 24 28 31 34 37
18 21 15 14 11 8 6 5 4 3 6 9 6 7 8 13 8 9 10 10 9 5 5 5 8 6 7 8 8 9 11 12 12 13 15 17 19 21 24 27 30 33 35 38
22 22 20 17 13 9 7 5 4 3 5 6 5 7 9 7 7 9 10 10 9 8 7 7 6 7 8 8 9 9 10 11 13 15 17 20 22 25 28 30 32 34 38 40
21 20 21 19 15 13 9 9 6 4 6 7 7 5 5 7 10 10 8 7 7 6 6 7 6 7 7 8 8 9 11 13 15 18 20 22 25 27 30 32 34 37 39 39
17 19 23 22 18 16 12 14 10 8 7 8 5 2 3 5 5 5 5 5 7 7 6 6 6 6 6 7 9 12 14 16 17 19 22 24 27 29 31 34 36 38 39 40
10 11 17 19 16 17 14 14 15 11 7 8 7 5 4 4 3 3 4 5 5 5 5 5 5 5 7 9 11 13 16 17 19 22 24 27 30 32 34 36 38 38 38 38
8 6 8 11 16 18 15 12 13 13 10 9 9 7 7 5 5 5 5 5 5 5 5 4 5 7 9 11 13 15 17 19 22 25 28 31 32 34 37 38 38 37 36 34
10 8 7 8 14 13 14 13 17 14 12 10 9 7 6 5 6 6 6 5 5 5 4 4 6 9 11 14 15 18 20 22 25 29 32 33 35 38 39 38 37 36 34 31
9 11 13 22 20 19 15 17 19 13 13 11 10 7 6 6 7 6 6 6 6 4 4 6 8 11 14 16 18 20 23 26 29 32 34 36 39 40 39 38 37 34 31 27
5 7 5 13 9 16 14 13 8 7 12 11 11 10 9 7 6 6 6 6 5 4 5 8 11 13 16 18 21 23 26 29 32 34 37 39 41 41 40 38 35 31 27 23
5 5 5 4 7 6 4 9 9 10 15 13 11 8 7 7 7 7 6 6 5 5 7 10 13 16 18 20 23 25 29 32 35 38 41 43 43 42 39 35 31 27 23 18
6 7 8 7 8 8 9 10 14 15 15 14 14 7 8 8 8 8 7 7 6 7 9 12 16 18 20 22 25 28 31 34 38 41 44 45 44 41 36 31 25 20 17 13
8 14 15 14 13 12 12 14 15 16 18 19 17 16 11 9 9 9 9 8 7 8 11 14 17 20 22 24 27 30 34 37 41 44 44 43 41 36 31 24 18 15 12 8
16 13 12 15 16 15 14 16 18 20 21 23 21 18 13 10 11 11 11 10 9 10 12 16 19 22 23 26 29 33 36 40 43 42 41 39 36 30 21 14 11 9 6 0
20 19 16 15 14 16 16 17 19 21 23 23 25 21 15 11 11 12 12 11 10 11 14 18 21 22 25 28 31 35 38 40 40 40 35 32 26 19 13 9 7 5 3 7
15 16 17 16 15 17 18 19 20 23 24 25 24 17 14 12 13 13 12 11 11 12 15 19 22 23 26 29 33 36 38 38 37 31 28 25 19 15 11 9 7 5 8 7

GFSNGP_700_spd_021.txt.gz
Wind_Speed
17 18 20 22 23 24 29 35 30 45 42 39 37 40 34 33 30 27 18 19 25 32 30 33 31 26 25 29 31 26 27 29 30 32 32 33 32 34 32 29 30 26 25 27
16 1 3 13 14 14 19 25 31 34 39 29 30 32 33 27 27 22 21 18 19 24 36 34 31 21 25 29 30 36 29 28 31 31 33 36 34 32 35 22 25 29 21 26
5 8 17 7 0 6 10 11 17 22 24 26 24 30 33 25 27 24 18 20 20 24 30 31 30 24 21 18 28 25 24 26 28 30 29 37 28 31 34 28 25 22 20 20
9 9 1 4 9 8 12 7 11 17 24 24 26 29 29 20 17 13 13 10 11 10 14 17 14 12 12 10 15 17 24 23 25 29 35 28 35 24 22 20 9 15 19 23
3 7 14 4 5 13 16 6 14 17 20 21 21 21 28 16 15 11 10 7 6 7 9 11 8 11 13 13 13 19 20 21 24 27 33 29 17 22 7 8 12 14 19 25
3 3 3 2 9 14 17 5 20 20 16 17 20 19 21 22 20 13 8 4 5 3 1 5 9 11 12 10 14 16 21 20 15 17 10 7 6 5 5 10 14 19 22 26
15 7 11 5 8 14 5 7 21 19 11 16 17 17 19 18 19 13 13 16 13 11 8 8 8 10 6 7 13 19 18 17 15 12 8 5 5 5 7 13 16 20 23 25
12 7 9 2 14 13 20 18 19 19 7 11 13 16 14 16 16 21 18 17 14 6 22 17 22 22 20 24 21 17 18 16 11 10 5 2 4 7 12 15 17 20 22 23
10 5 3 11 16 17 19 16 16 14 5 6 8 11 15 11 12 14 17 17 18 19 17 18 20 21 18 20 17 13 13 7 4 3 1 4 8 11 13 15 17 18 21 24
14 9 2 10 14 13 18 13 14 7 5 6 9 7 10 7 10 8 11 13 14 14 14 16 15 15 14 11 10 8 5 3 3 3 5 8 10 11 13 15 18 20 23 26
19 17 15 8 11 18 13 10 10 6 7 9 10 7 5 4 3 4 6 8 10 11 8 11 15 10 9 7 6 4 2 2 2 5 7 9 10 12 15 18 20 23 26 28
25 12 10 11 13 14 11 9 7 6 7 7 5 7 9 6 4 4 6 5 3 5 7 8 11 8 6 5 5 6 7 8 9 9 10 11 13 16 18 20 23 25 28 30
19 22 24 21 17 14 12 9 6 4 5 5 5 8 8 6 10 5 4 4 1 7 7 5 6 4 6 7 8 8 9 9 10 11 13 15 16 18 21 24 26 28 30 33
19 21 22 20 19 15 12 9 6 6 5 5 6 7 9 7 3 4 6 5 3 4 3 4 5 6 7 7 8 9 9 11 12 14 15 16 18 21 23 26 29 31 34 36
21 24 23 20 19 17 14 11 10 7 5 5 5 6 5 3 4 6 8 7 5 2 3 4 4 5 6 7 8 9 10 12 13 15 17 19 21 24 28 30 31 33 35 37
20 23 23 21 21 20 19 14 13 12 7 6 4 2 1 3 3 4 4 3 3 4 4 4 4 5 6 7 8 10 11 13 15 17 20 22 25 28 30 32 34 36 38 38
14 11 11 12 16 18 16 15 16 14 15 12 5 6 4 3 3 2 2 3 4 4 4 4 4 5 6 7 9 11 13 15 18 20 22 25 29 31 33 36 37 38 38 38
13 10 8 8 10 16 17 15 15 13 8 7 9 8 5 7 4 3 4 5 5 5 5 4 4 5 6 9 11 13 16 18 20 23 26 29 32 35 38 40 40 39 37 36
14 13 6 5 4 9 14 17 15 14 15 12 10 7 7 6 4 4 5 6 6 5 5 4 4 6 8 10 13 16 18 21 23 26 29 32 36 39 42 43 41 39 36 31
14 13 12 9 13 14 19 18 15 18 15 14 13 10 8 5 4 5 6 6 5 5 5 5 5 7 10 12 15 18 21 24 26 29 32 36 39 42 44 43 41 36 31 26
4 1 4 3 14 7 18 19 17 16 12 16 13 11 9 7 6 6 7 6 6 7 6 6 7 9 12 15 18 21 24 26 29 32 36 39 42 44 44 41 35 29 23 18
3 3 3 7 8 10 9 9 10 10 14 14 12 10 7 7 7 7 7 7 8 8 6 7 9 11 15 18 21 23 26 29 32 36 39 42 43 43 38 33 26 19 14 12
9 4 5 7 4 5 4 2 5 10 13 15 12 12 9 8 8 8 9 10 9 8 7 8 10 14 17 20 22 24 27 31 35 38 40 42 39 35 31 24 16 11 9 7
10 8 10 13 12 9 7 8 8 12 14 18 17 18 16 11 9 9 9 9 10 9 8 9 12 16 19 22 24 26 29 33 36 39 40 37 32 28 23 16 10 7 5 3
13 14 12 11 10 14 15 14 14 14 15 20 22 22 21 15 11 11 11 11 11 10 9 11 14 18 21 23 25 28 31 35 37 38 35 29 26 21 16 11 7 4 3 6
17 17 16 13 12 12 14 16 16 17 19 21 22 23 21 17 14 11 11 12 12 10 11 13 16 19 21 23 26 29 32 34 36 34 29 24 22 17 11 7 3 2 5 6
19 17 16 15 14 14 14 15 16 17 19 22 23 22 21 14 16 13 13 13 12 11 12 14 17 20 22 24 27 29 31 32 31 28 24 20 17 12 7 3 2 5 4 3

GFSNGP_700_spd_024.txt.gz
Wind_Speed
16 16 17 18 19 19 26 31 29 38 37 31 27 28 33 37 34 28 28 25 22 18 24 34 35 35 34 28 29 27 30 32 35 28 30 33 38 36 33 35 38 35 34 33
15 7 11 15 16 16 20 23 32 33 33 21 28 28 31 33 27 26 24 21 19 15 17 17 27 35 35 31 25 23 27 30 26 27 27 30 29 36 33 35 40 35 42 35
4 4 13 14 4 9 12 15 16 19 21 24 28 27 28 30 24 21 18 15 10 10 12 16 18 22 28 31 23 23 28 30 26 28 29 29 32 34 38 41 41 37 36 30
7 7 2 5 2 3 8 7 9 14 20 21 24 26 25 28 21 16 16 13 11 9 11 10 11 15 18 18 22 22 24 22 22 23 20 29 30 35 37 27 30 30 22 15
3 5 13 7 3 4 10 7 4 17 20 18 21 23 24 24 20 17 12 10 9 9 10 10 12 13 15 5 7 10 21 21 12 16 22 25 32 26 17 14 13 10 9 11
5 3 4 5 4 10 13 9 6 22 19 17 20 21 20 20 15 17 21 18 13 12 12 8 6 7 9 11 9 6 8 12 14 16 14 12 12 16 15 8 7 8 11 15
17 6 10 4 2 8 3 8 23 18 17 13 14 15 15 18 20 17 18 11 12 13 16 10 10 12 10 10 19 20 18 16 17 14 15 13 10 7 4 5 7 9 13 16
13 7 10 5 6 10 15 18 19 17 16 7 9 11 15 12 16 17 22 24 21 16 21 25 26 25 24 26 26 25 23 20 17 14 11 8 5 3 1 7 9 12 15 18
10 4 6 11 18 14 17 20 17 16 10 6 7 9 12 10 10 12 16 19 22 22 22 22 25 24 22 22 23 20 17 14 11 8 5 3 0 2 6 9 11 13 16 19
15 11 10 9 12 15 15 19 14 13 7 7 8 10 11 4 8 9 12 13 15 15 17 18 19 18 17 14 13 11 8 7 6 4 2 1 3 4 7 9 12 15 17 20
22 24 20 17 14 10 13 13 13 10 7 8 8 6 8 7 2 3 8 10 8 10 14 13 12 13 9 8 9 7 5 5 6 5 5 5 5 7 10 12 14 17 21 24
22 23 23 19 17 11 12 12 12 10 7 7 5 3 5 8 11 5 2 3 4 6 8 9 8 8 7 7 6 5 5 6 6 6 7 8 10 11 13 16 19 22 25 28
22 20 27 26 21 16 15 12 11 9 7 6 4 5 6 7 8 3 5 4 7 9 5 6 6 6 5 5 6 7 8 8 8 9 9 11 12 15 18 20 23 26 28 30
24 21 22 21 21 21 19 14 11 9 6 8 7 5 7 7 5 5 5 5 4 6 5 2 3 4 4 5 5 6 6 8 9 11 13 14 16 18 21 25 28 31 33 35
10 21 20 21 20 20 18 16 13 13 13 11 7 5 4 3 4 6 8 9 9 3 1 1 2 2 4 5 6 7 9 10 11 13 15 17 19 23 26 29 32 34 36 39
14 21 19 20 22 22 23 19 18 17 17 14 8 5 3 2 3 6 9 6 3 2 2 1 1 3 3 5 6 8 10 12 14 16 18 21 24 27 30 33 36 39 40 40
15 15 20 20 18 19 19 20 19 18 17 15 15 14 6 5 5 5 4 3 4 4 3 2 2 2 3 6 8 10 12 14 16 19 21 24 27 30 33 37 40 42 42 41
11 11 14 12 11 11 13 17 17 17 17 14 15 12 7 10 7 4 4 4 4 4 3 3 3 3 5 7 9 11 13 16 18 21 23 26 30 34 37 41 43 42 40 35
20 14 14 12 10 7 5 11 17 18 16 12 14 13 7 10 6 5 5 5 5 5 5 4 3 4 6 8 11 13 16 18 20 23 26 29 33 37 41 43 42 39 33 26
12 13 15 13 13 16 19 15 20 22 20 18 17 15 11 9 7 6 7 7 7 7 7 6 5 6 7 9 12 15 18 20 23 25 28 32 36 39 42 41 37 32 23 16
2 5 9 9 7 13 16 20 22 23 22 17 20 17 15 11 10 8 8 8 8 8 8 6 6 7 9 11 14 17 20 22 25 28 31 34 38 40 38 35 30 21 13 9
15 1 3 5 8 11 2 11 18 21 21 17 20 19 16 13 9 7 8 8 9 10 9 8 8 9 11 13 16 19 22 24 27 30 33 36 38 36 33 28 22 13 9 6
10 5 6 11 12 8 4 7 5 11 14 17 18 17 15 14 11 10 9 10 12 11 11 10 10 10 13 15 18 21 23 26 29 32 35 36 34 30 27 22 16 11 6 1
9 8 7 7 7 11 10 6 3 8 8 17 19 19 20 17 15 15 12 11 12 13 12 12 11 12 14 16 19 22 25 27 31 33 35 33 29 25 21 17 12 7 2 1
15 14 12 10 9 9 12 14 13 12 10 11 13 21 22 22 18 17 16 15 15 14 14 13 13 13 15 17 21 23 25 28 31 33 32 29 25 21 18 13 9 4 3 2
22 19 17 15 13 13 13 15 17 17 18 18 18 21 22 23 19 18 16 15 16 15 15 14 14 14 15 18 22 24 26 29 30 30 27 24 21 17 14 9 5 3 2 3
32 29 25 22 19 16 15 16 17 19 19 20 22 23 22 18 16 16 21 19 17 17 16 15 14 14 16 20 22 24 26 28 27 25 22 19 17 14 10 6 3 1 3 5

GFSNGP_700_spd_027.txt.gz
Wind_Speed
12 12 13 11 12 13 22 25 17 25 31 25 24 25 28 29 30 33 27 29 25 22 21 17 14 19 34 30 29 33 32 30 30 33 32 29 28 30 33 34 33 33 36 35
11 10 15 20 21 24 27 28 35 35 30 19 20 24 26 26 29 30 22 24 22 17 15 14 17 16 15 31 37 31 29 26 26 27 26 24 25 28 29 32 35 34 36 33
4 2 8 16 14 20 21 20 18 23 16 18 18 22 23 25 28 26 21 19 18 13 12 12 12 12 12 18 25 24 26 25 24 25 25 26 24 29 30 32 34 32 36 40
7 7 2 3 3 2 5 8 13 7 15 18 19 22 23 25 25 20 22 13 11 10 8 9 10 13 13 15 11 16 17 20 24 18 21 27 26 25 25 28 30 26 32 36
3 5 14 8 7 3 6 4 10 7 20 18 16 18 21 23 20 19 17 15 13 12 10 10 11 11 10 12 6 3 11 12 12 18 25 22 10 16 21 18 27 21 17 13
4 3 4 4 2 4 8 3 5 15 17 17 11 14 19 20 20 22 10 12 15 15 10 11 9 7 9 8 6 8 3 9 8 8 12 14 14 6 8 25 14 10 7 7
15 7 10 9 4 5 2 4 14 17 16 16 8 11 16 17 18 19 19 13 13 23 23 25 26 23 20 17 16 15 15 19 19 19 15 14 12 15 12 10 6 5 6 9
12 7 10 4 6 5 12 13 15 17 16 13 5 8 11 12 14 15 14 16 17 21 23 25 28 30 28 28 29 26 24 24 22 21 19 15 12 8 6 3 2 6 7 10
11 5 6 6 10 11 14 14 17 14 15 8 5 6 11 7 10 10 8 11 14 15 17 20 22 23 21 20 22 21 19 17 15 12 11 9 7 5 3 3 5 7 9 13
16 14 16 18 10 13 12 12 14 13 13 8 7 7 7 6 3 9 7 6 8 10 12 14 16 17 16 15 14 14 14 13 10 9 7 5 4 4 4 7 9 12 14 17
23 24 21 21 19 19 15 15 13 11 11 9 8 8 7 8 5 6 3 6 5 7 10 8 8 11 10 10 9 10 9 8 6 6 6 6 6 7 9 10 12 14 17 20
21 20 24 23 18 16 17 15 13 12 11 9 9 7 7 8 10 7 4 4 3 2 4 4 6 7 6 6 6 6 6 6 5 5 4 5 7 8 10 12 15 18 22 25
24 26 24 23 24 24 22 21 17 14 11 9 8 8 7 8 10 6 7 6 5 5 6 2 3 3 3 4 4 5 4 4 4 5 6 7 9 11 14 17 21 24 27 29
16 20 18 20 19 20 22 22 18 15 13 10 8 9 8 9 10 9 10 12 10 5 5 3 1 1 2 2 3 3 3 4 5 7 10 13 15 17 20 22 25 28 32 35
15 19 17 16 18 18 18 19 17 16 15 15 15 15 11 9 9 11 11 13 13 8 7 4 2 1 0 1 1 3 5 8 10 12 13 15 17 19 23 26 29 33 37 40
12 16 18 20 19 19 20 19 19 20 21 18 19 21 13 10 9 10 12 15 16 9 6 4 4 3 2 1 4 6 8 10 11 13 15 18 21 24 27 31 34 38 40 41
15 14 19 21 22 24 21 19 19 20 20 20 18 17 14 12 7 10 11 11 9 7 7 6 5 3 1 2 4 6 8 11 13 16 19 21 24 27 31 35 38 41 41 38
11 11 13 14 14 12 13 17 19 19 17 19 16 18 17 12 11 9 8 8 7 7 7 6 5 3 3 3 5 8 10 13 16 18 21 24 27 30 34 38 40 40 38 34
16 22 22 16 14 12 10 9 9 15 18 19 15 15 14 12 14 11 9 8 8 8 8 7 6 5 5 5 7 10 13 16 19 21 23 26 30 33 37 39 38 36 33 26
24 12 7 14 14 13 12 18 19 17 21 22 19 20 17 14 12 11 10 10 10 9 8 8 7 6 6 7 9 12 15 18 21 23 25 29 32 36 38 38 35 32 26 17
23 8 5 6 8 12 16 22 28 24 24 26 25 23 22 18 16 12 10 10 10 10 9 9 9 7 8 9 11 14 17 20 22 25 28 31 34 37 37 34 31 26 19 13
15 16 12 9 11 15 14 13 10 18 22 24 25 25 25 21 17 14 12 12 11 11 11 11 10 9 10 11 13 16 18 21 24 26 29 32 35 36 34 30 26 21 15 10
8 9 6 9 9 13 15 17 8 7 14 18 18 27 25 22 18 14 13 13 13 12 12 12 12 11 11 12 14 17 20 23 25 27 30 33 35 33 30 26 22 16 10 6
10 10 11 11 11 9 7 12 11 8 4 12 14 19 19 21 18 17 17 15 14 13 14 14 13 12 13 14 16 18 21 24 26 29 32 34 33 29 26 23 18 12 8 5
17 18 18 16 13 12 11 12 10 8 7 6 3 4 19 23 22 21 19 19 19 16 15 15 14 14 14 15 16 19 22 24 27 29 32 31 29 26 23 18 14 9 6 5
26 25 23 21 19 18 16 14 15 17 19 21 20 17 16 15 19 24 19 20 20 18 17 16 16 15 15 16 17 19 23 25 27 29 30 27 24 21 18 15 11 7 5 5
34 32 29 28 27 24 21 19 18 18 20 21 22 23 23 23 18 14 17 19 23 21 19 17 18 17 16 16 17 20 23 25 27 27 25 21 19 17 15 12 10 8 8 9

GFSNGP_700_spd_030.txt.gz
Wind_Speed
11 11 13 11 9 14 24 26 15 13 20 16 15 18 21 27 30 30 29 24 24 24 18 19 19 19 23 25 23 26 33 39 27 23 28 29 30 28 28 28 30 32 33 33
7 11 14 19 18 20 21 21 26 24 17 10 13 15 21 26 29 27 25 26 22 21 19 18 19 21 20 19 17 18 26 25 27 26 25 27 27 24 24 24 27 27 28 30
3 4 7 14 10 19 23 22 18 21 9 13 13 14 20 24 25 25 26 23 17 15 17 16 16 18 19 20 22 24 24 19 22 23 23 23 22 20 21 20 21 23 27 25
6 8 1 2 4 3 1 5 9 7 7 14 17 15 19 23 22 25 26 19 18 17 16 16 15 14 14 17 15 14 10 19 13 14 15 16 16 18 19 20 16 23 20 26
3 6 13 9 8 2 1 4 2 5 10 13 15 13 15 19 19 24 25 17 20 18 14 12 13 10 13 11 7 4 3 6 5 4 10 14 14 12 20 21 32 20 13 17
3 3 3 1 6 2 2 6 4 8 11 13 14 10 12 17 16 19 19 15 18 20 21 18 13 11 11 14 14 8 4 3 0 8 10 7 10 19 9 10 6 6 8 7
11 6 9 7 8 4 2 1 10 10 13 13 12 7 10 14 13 15 14 12 13 16 20 23 25 26 25 21 20 22 19 16 11 12 15 13 14 15 18 16 12 8 5 2
11 7 10 5 9 5 4 9 11 12 13 12 7 5 8 10 10 11 11 10 12 13 13 15 19 21 22 23 25 25 24 24 24 23 21 19 16 14 12 10 6 4 2 4
10 5 5 7 8 7 7 10 10 14 13 11 6 6 9 9 5 7 8 8 9 11 11 13 15 17 17 18 18 18 18 17 17 17 15 13 12 10 9 7 5 4 7 9
14 13 14 14 17 14 13 12 11 15 14 11 7 9 10 9 8 6 5 6 7 8 9 9 11 13 14 13 13 13 15 14 13 13 12 11 10 8 6 5 6 7 9 12
23 22 21 21 19 19 18 18 15 14 14 12 9 9 12 12 9 5 6 7 4 4 7 9 7 9 11 10 10 10 10 10 10 10 9 8 7 7 7 7 9 10 13 16
25 24 24 22 22 24 22 19 18 16 15 14 11 9 12 12 12 8 6 7 6 6 7 7 5 6 6 6 7 8 8 8 8 8 8 8 8 9 9 10 12 15 18 22
20 24 27 25 22 22 25 26 21 19 17 14 11 9 11 11 12 12 6 11 8 9 5 8 2 3 3 3 4 5 5 6 6 7 8 8 9 10 12 14 18 21 24 28
19 19 15 11 14 16 19 20 22 20 17 14 11 10 12 14 14 14 12 14 12 12 9 6 3 3 3 2 1 2 4 5 6 7 8 10 12 15 18 21 23 26 30 33
18 18 16 15 16 14 17 17 18 17 16 15 14 13 14 15 17 18 15 13 17 16 10 9 6 5 4 3 2 3 4 5 7 9 11 13 15 18 20 23 27 30 34 36
12 17 22 21 19 17 18 18 20 19 20 19 18 19 18 20 21 19 16 14 17 18 15 10 8 6 5 4 4 4 5 7 9 12 14 16 18 20 23 26 30 35 37 37
18 17 19 19 19 19 20 21 18 19 20 19 20 20 19 16 16 16 14 15 19 20 13 9 9 7 7 6 5 5 6 9 12 14 16 18 20 24 27 30 34 37 37 35
15 11 14 16 15 16 16 18 19 19 20 20 20 20 18 12 15 15 14 16 15 12 10 10 9 9 9 7 6 6 8 11 13 16 18 20 23 26 30 33 37 37 35 33
15 19 21 19 22 18 15 14 13 14 14 16 18 17 13 17 20 17 15 14 12 11 11 11 11 11 10 8 7 7 9 12 15 18 21 23 26 29 33 36 37 35 33 30
22 14 10 9 8 13 12 12 14 17 17 14 18 18 17 18 19 18 17 14 14 13 11 12 12 12 11 9 8 9 11 14 17 20 23 25 28 31 34 36 35 32 30 26
17 20 12 3 3 5 1 9 15 22 27 28 21 23 23 25 21 20 15 13 12 12 13 12 12 13 11 10 10 10 13 15 18 22 25 28 30 33 36 35 33 31 28 23
6 11 10 17 16 14 15 15 18 17 13 19 24 25 28 28 24 21 18 17 14 14 13 13 14 14 13 12 11 12 14 17 20 23 26 29 32 35 35 33 31 28 24 19
6 9 11 12 11 9 8 15 22 21 11 8 17 20 26 27 28 23 20 16 13 14 14 13 14 15 14 13 13 14 16 18 21 24 27 30 33 34 33 31 28 24 20 14
10 13 14 15 14 14 14 10 8 10 16 10 6 11 17 26 28 25 21 19 18 15 15 15 16 16 15 15 15 16 17 18 22 26 28 31 33 32 29 27 24 20 16 12
20 20 21 20 19 17 16 15 13 12 12 9 8 7 4 15 21 25 23 21 19 18 18 16 16 16 17 17 17 16 17 19 23 26 29 31 30 27 24 22 19 17 14 12
26 27 28 28 26 24 22 20 18 16 15 15 15 15 14 13 10 9 19 23 21 20 20 19 18 18 17 18 17 16 17 20 25 27 28 29 25 21 20 18 16 15 13 12
28 27 27 26 25 23 23 23 23 22 20 18 17 18 19 20 21 21 22 18 19 20 21 22 21 20 19 18 17 16 17 21 25 26 27 25 21 18 17 16 16 16 16 16

GFSNGP_700_spd_033.txt.gz
Wind_Speed
8 10 10 9 8 12 24 26 14 11 14 7 5 7 11 17 22 23 25 25 21 20 17 18 19 18 20 24 24 24 25 23 21 27 34 41 36 32 25 30 28 25 26 30
6 10 14 18 17 19 18 20 28 25 15 2 6 9 12 17 21 22 25 25 21 20 21 21 20 18 21 20 21 19 20 17 15 15 14 16 16 22 26 26 24 23 24 24
4 4 8 15 16 21 23 23 18 21 3 5 6 9 11 15 18 21 25 22 18 20 23 24 21 17 18 17 20 16 14 8 10 13 15 16 17 18 19 20 21 20 21 20
4 6 2 3 4 3 2 6 12 8 3 6 10 10 11 13 17 17 20 20 22 22 24 21 15 15 16 17 14 13 10 2 7 8 10 13 13 14 17 18 17 16 18 17
3 5 11 9 8 4 5 5 5 6 3 6 9 9 9 12 14 13 15 15 18 21 25 22 14 13 14 16 14 7 6 5 2 3 6 9 8 10 12 14 14 14 18 16
4 3 4 1 9 8 6 6 3 1 5 8 9 9 7 10 11 11 12 13 16 17 19 22 21 17 15 12 15 14 8 2 3 2 3 6 10 11 9 13 6 6 6 6
14 6 8 9 9 4 5 6 3 5 7 9 10 9 6 8 8 9 10 11 12 13 14 14 16 21 23 22 23 25 26 22 19 19 19 18 16 14 16 15 15 12 10 7
13 8 10 10 11 11 7 2 3 5 8 9 10 8 6 6 6 6 8 8 10 11 12 12 11 12 14 14 17 20 19 19 20 19 18 18 17 15 14 12 10 8 7 4
10 3 4 8 10 10 8 5 5 5 8 8 8 9 9 8 7 7 9 7 7 9 10 10 11 11 12 13 14 14 15 15 15 15 14 13 13 12 11 9 7 6 4 4
12 13 10 11 12 16 11 11 12 10 9 9 8 9 11 11 10 8 9 10 10 8 7 8 7 8 9 10 10 10 11 12 12 12 12 11 11 9 8 8 8 8 9 10
22 19 14 15 19 19 19 21 19 15 14 11 9 10 12 14 13 11 8 7 9 9 8 8 4 5 5 6 7 8 8 8 8 8 8 7 7 8 8 9 10 11 13 15
21 18 16 18 19 23 24 25 24 22 19 15 12 11 11 13 15 13 10 6 9 10 9 10 6 4 4 4 4 4 5 5 6 6 7 8 8 9 10 11 13 15 17 20
19 17 18 21 22 23 24 25 26 27 21 18 15 13 11 12 12 14 12 12 10 16 13 7 7 5 3 3 3 3 4 5 6 7 8 9 9 10 11 12 15 17 21 24
18 21 21 17 16 11 15 16 20 22 24 22 18 15 13 12 12 14 14 14 14 15 16 11 9 7 6 4 4 3 4 5 6 7 8 9 10 12 14 17 20 23 26 30
15 15 15 11 15 16 18 16 18 19 19 21 20 18 15 15 16 14 15 17 17 18 16 15 10 8 8 6 6 5 5 5 6 8 9 12 13 16 18 21 24 27 30 33
11 13 18 21 21 20 18 20 18 20 20 21 21 20 19 19 18 17 18 21 17 17 18 14 10 10 10 9 8 7 7 7 7 9 12 15 17 19 21 24 27 30 32 33
15 18 20 19 16 16 18 17 19 19 19 19 21 21 22 21 21 19 16 18 16 17 20 19 15 11 12 10 9 9 9 8 9 11 13 16 18 21 24 27 29 32 33 33
14 13 16 20 21 20 19 16 17 20 20 21 20 20 21 20 18 18 17 16 17 17 20 19 15 13 13 12 11 10 10 10 11 13 15 18 21 23 26 29 31 33 33 32
6 17 22 21 19 18 22 18 14 14 15 16 16 17 19 19 17 14 19 18 16 18 16 15 15 15 13 13 12 11 11 11 12 14 17 20 23 26 28 31 33 32 31 30
9 18 18 10 8 5 5 13 15 15 16 17 15 15 17 18 18 18 22 19 18 18 19 15 15 14 14 14 13 12 12 13 14 16 18 22 25 28 30 32 33 32 31 28
6 15 17 17 13 12 12 10 6 10 19 24 26 25 21 23 23 24 24 20 19 16 12 14 15 15 14 14 14 14 14 14 15 17 19 23 26 29 31 32 32 30 28 25
1 8 11 15 16 16 13 12 14 18 18 10 15 22 29 24 24 28 25 24 22 19 19 16 17 16 15 15 15 16 16 16 16 18 21 25 28 30 32 32 29 28 25 22
4 7 8 9 9 10 11 12 10 12 16 21 10 10 18 22 25 27 27 28 24 19 16 16 17 16 15 17 17 17 17 17 17 18 21 26 29 30 31 29 26 25 22 19
10 13 15 17 17 17 16 16 14 13 13 12 15 17 7 9 16 23 31 29 24 23 21 21 18 17 18 19 18 18 18 17 17 19 22 26 28 29 27 24 23 21 18 17
17 19 21 22 23 23 22 21 19 17 16 13 11 10 11 8 8 19 24 24 25 23 20 18 20 20 19 19 19 19 18 17 18 19 22 26 27 26 23 21 19 18 18 17
25 26 26 25 24 23 22 21 21 20 19 18 15 13 13 12 11 10 13 18 22 23 22 22 21 19 21 19 19 19 18 18 18 20 24 25 25 23 20 18 18 18 18 18
27 26 25 24 23 21 19 18 18 19 20 20 21 18 16 16 18 19 18 18 18 18 19 21 22 24 23 21 20 19 18 17 18 21 24 24 23 20 17 17 17 18 19 20

GFSNGP_700_spd_036.txt.gz
Wind_Speed
8 7 6 6 7 16 26 23 10 7 15 12 10 10 10 10 12 14 17 21 19 15 16 16 19 20 18 18 21 25 26 24 22 20 16 15 22 27 32 36 35 37 39 29
9 11 12 16 18 19 18 20 28 25 21 11 7 8 10 10 13 13 17 16 17 17 18 18 20 21 18 17 20 23 16 15 11 8 10 11 12 13 14 13 22 18 22 23
3 5 8 14 17 24 24 23 19 19 5 7 7 10 10 10 12 12 14 14 18 20 21 18 15 12 10 14 17 12 11 9 5 4 7 12 13 13 15 17 17 18 20 23
3 3 4 5 4 1 8 17 19 16 11 11 9 9 8 9 11 10 11 14 14 17 18 22 17 12 11 9 8 7 5 2 4 4 9 10 12 13 13 12 11 14 18 21
2 5 12 9 9 4 4 4 9 13 14 8 8 8 8 7 9 8 9 10 13 14 17 20 21 18 10 10 10 10 5 4 2 4 5 8 11 10 10 9 11 15 17 21
3 3 3 3 7 11 9 5 10 11 9 6 8 8 9 7 7 6 7 9 11 12 14 16 17 19 19 18 19 19 16 13 9 8 8 5 7 8 10 9 8 6 5 1
13 7 10 8 11 11 7 6 13 7 6 7 8 9 9 7 6 6 7 8 9 11 12 12 12 12 14 15 15 18 20 19 18 17 17 16 15 14 13 12 11 9 8 6
13 8 10 13 17 11 9 10 9 9 3 5 7 9 9 8 6 7 8 8 8 9 10 8 8 9 10 10 10 12 12 12 12 12 13 13 14 13 12 10 8 6 4 3
12 7 6 8 16 16 14 10 7 7 5 5 6 7 9 9 9 8 9 9 9 9 7 8 6 7 6 7 8 8 8 8 9 10 10 10 10 9 8 7 6 5 4 5
13 12 9 9 12 13 14 13 10 10 10 10 8 8 8 12 12 12 11 10 9 8 7 6 6 5 4 4 5 5 5 6 7 8 8 8 7 7 6 6 6 7 9 11
22 18 12 14 18 18 19 20 21 19 17 16 13 11 11 12 14 14 13 12 7 8 11 6 7 5 4 3 2 3 4 5 5 6 6 6 6 6 7 8 9 11 13 16
19 14 14 18 21 24 24 26 27 25 22 22 19 17 13 12 14 15 14 12 8 10 9 12 7 6 5 5 4 2 2 3 4 5 5 6 7 8 10 12 14 16 18 21
21 18 17 18 18 20 23 25 27 27 25 27 23 20 17 15 14 16 16 14 14 11 12 15 12 8 9 7 6 5 4 3 4 5 6 8 10 11 13 14 17 19 21 23
17 16 16 18 21 19 19 18 19 20 23 25 26 24 21 18 16 15 15 16 17 16 13 16 14 12 11 9 8 7 6 6 6 7 9 11 12 14 15 17 20 22 25 28
17 17 18 14 11 13 17 20 20 18 20 22 22 24 24 21 19 18 19 17 16 19 20 16 14 16 12 12 11 10 9 9 8 8 11 13 14 16 18 20 23 25 28 30
11 11 13 14 17 20 21 21 21 20 18 19 20 23 23 23 22 20 19 19 18 23 21 19 18 18 13 13 13 13 12 10 10 10 12 14 16 18 20 23 26 27 29 31
11 14 16 19 20 17 15 17 17 19 21 20 21 21 22 23 23 22 23 22 19 21 22 22 20 19 17 14 15 15 13 12 11 11 13 15 17 20 23 26 28 30 31 31
12 12 16 20 22 23 24 23 21 16 18 22 21 22 21 21 22 25 23 20 21 21 20 21 21 20 20 16 16 16 14 12 12 13 15 17 19 22 25 28 30 31 32 31
4 7 14 17 15 13 13 17 22 20 17 19 22 21 22 22 21 21 21 20 17 19 20 21 21 21 18 15 17 16 15 13 13 14 16 18 20 23 27 29 31 31 31 29
2 8 14 11 8 7 7 5 8 14 16 15 17 19 17 17 19 20 22 21 21 21 23 22 21 22 16 17 17 17 15 14 15 15 16 18 21 25 28 30 30 30 28 26
2 5 7 13 15 16 14 13 14 13 9 9 22 25 24 22 22 22 24 21 22 25 25 24 22 20 17 18 18 17 16 16 16 17 17 19 22 25 29 29 30 28 26 24
5 4 6 11 14 13 15 16 14 12 11 16 20 12 18 28 31 26 25 24 26 27 24 22 21 17 19 19 19 18 17 19 18 18 18 20 23 26 29 28 27 25 23 21
7 6 6 9 12 13 13 13 14 14 14 14 15 19 12 13 21 28 26 23 26 29 25 26 24 20 19 20 19 18 19 21 19 18 19 21 23 27 28 27 25 22 21 19
9 10 12 13 15 17 18 18 17 17 16 16 14 12 12 16 8 16 24 24 25 30 31 27 24 21 20 20 21 22 21 22 20 19 20 21 24 27 27 26 23 20 19 18
14 15 17 20 22 23 22 22 21 19 19 17 16 14 12 10 8 12 9 15 23 30 29 29 29 25 25 23 23 22 23 21 20 20 21 21 24 26 25 24 21 19 19 20
20 21 23 24 24 23 22 20 19 19 18 17 17 17 15 14 13 12 7 6 12 19 22 24 23 22 23 23 26 22 23 22 22 22 22 22 24 24 23 22 20 18 19 20
24 24 25 24 23 22 21 19 18 17 17 17 17 17 17 17 16 15 15 15 16 17 16 17 18 20 23 24 23 23 25 26 23 27 28 26 24 23 22 20 18 18 19 20

GFSNGP_700_spd_039.txt.gz
Wind_Speed
8 5 5 5 11 18 26 26 13 7 15 12 12 9 12 13 13 13 12 15 14 14 15 17 19 20 22 21 19 18 19 23 21 18 20 24 21 18 17 21 21 27 32 34
11 13 13 16 17 15 18 24 28 20 17 16 17 16 17 13 12 11 11 13 13 14 15 16 15 15 15 12 12 16 18 16 17 15 17 18 14 14 14 16 17 17 15 17
3 5 7 14 23 26 24 24 21 22 14 9 14 17 15 12 12 11 10 9 9 10 11 15 13 9 7 9 10 11 12 13 12 12 12 12 12 13 14 14 15 16 17 19
3 3 5 7 6 6 20 22 23 22 16 15 15 16 12 11 11 10 10 8 8 10 14 16 16 11 9 10 10 11 12 9 8 11 11 12 11 12 13 15 16 13 15 17
3 8 12 11 10 8 4 6 14 19 17 18 17 11 10 10 9 9 8 7 7 11 12 10 12 14 15 14 15 13 9 5 5 8 12 12 9 9 11 11 9 9 13 15
4 4 4 1 7 9 6 4 6 14 18 16 11 8 10 8 8 8 6 5 7 10 10 9 10 11 12 13 14 16 15 15 15 16 16 15 12 10 7 11 11 11 7 8
13 7 9 9 6 12 6 5 11 14 15 12 10 9 9 9 8 7 6 5 6 7 9 9 9 10 9 9 11 10 10 12 13 13 14 13 14 14 12 10 9 8 8 8
13 7 9 8 14 10 10 7 13 13 12 9 7 8 9 10 9 7 8 6 6 8 8 8 8 8 9 7 7 7 7 8 9 9 9 9 9 9 8 7 7 8 8 9
11 7 12 9 17 22 14 8 10 12 18 14 4 7 8 9 10 10 9 8 7 9 9 8 7 7 6 6 5 6 6 5 5 6 5 6 7 7 7 8 8 9 10 11
13 12 13 10 11 17 15 15 12 10 10 9 11 9 9 9 11 13 12 11 10 11 8 8 7 6 6 6 6 5 4 4 4 5 6 7 7 8 9 10 11 13 15 16
22 20 13 15 15 12 13 16 16 17 16 15 16 15 15 12 12 14 15 14 12 10 8 10 8 7 7 7 7 6 5 5 5 5 6 6 8 9 10 11 13 15 17 19
17 12 11 12 17 16 19 22 22 24 25 23 21 22 20 17 16 16 16 16 13 10 10 9 8 8 8 8 9 9 7 7 7 7 7 7 9 11 13 15 16 18 20 22
20 19 17 16 16 18 21 23 24 26 27 27 28 27 24 22 20 18 18 19 16 14 13 12 11 12 11 11 10 10 10 8 8 8 8 9 10 12 15 17 19 21 22 24
22 22 22 21 21 18 21 23 23 22 22 22 24 26 26 27 24 21 19 19 18 16 16 15 14 16 17 13 11 11 12 11 10 10 10 11 12 14 16 19 21 23 25 27
15 16 18 17 19 19 16 16 17 20 22 20 20 21 22 24 26 24 22 21 20 18 17 18 23 17 19 16 15 12 12 12 12 11 11 13 14 15 17 20 23 25 27 28
15 16 18 19 17 18 18 20 20 20 22 22 20 19 22 22 24 25 24 22 21 19 20 21 24 24 20 21 18 14 13 13 13 13 13 14 15 17 19 22 25 27 29 30
9 11 14 17 18 19 21 21 20 18 18 19 21 20 20 21 23 25 24 23 22 23 24 24 24 25 22 22 21 18 14 15 15 15 14 15 16 18 20 23 27 29 30 30
11 13 14 15 17 21 23 25 25 25 23 20 19 22 20 21 23 24 25 26 27 26 24 23 23 22 21 23 23 21 14 15 17 16 16 15 17 19 21 24 27 30 30 30
15 7 9 10 14 14 11 12 15 16 21 21 18 18 24 23 24 24 24 26 27 23 22 22 21 24 26 25 25 21 15 16 18 17 16 17 19 20 22 25 28 30 30 29
13 3 5 8 9 9 8 7 8 7 7 12 18 19 22 21 21 22 24 23 23 24 24 23 24 25 23 24 25 18 16 18 18 17 17 18 20 21 23 25 28 30 29 28
11 5 2 7 8 12 14 14 16 12 8 9 12 9 18 25 23 23 23 24 24 27 25 25 26 27 28 26 26 19 18 19 18 16 18 21 21 22 24 25 28 29 28 26
13 6 1 4 7 10 13 12 12 12 12 12 12 12 15 12 18 28 30 27 27 25 25 27 27 27 27 27 26 20 18 20 18 20 21 22 22 23 24 25 27 27 26 25
14 8 4 5 8 14 14 16 17 16 17 16 14 13 13 12 14 13 19 26 31 27 26 23 26 27 27 29 24 18 19 21 21 23 22 23 23 23 24 25 27 26 25 24
13 11 9 10 13 17 20 21 20 20 19 18 19 17 15 14 10 10 9 14 20 24 22 24 28 28 29 27 22 21 21 21 23 24 21 24 23 23 24 25 27 26 25 23
12 12 15 18 20 22 24 24 23 22 20 19 17 17 17 17 15 13 8 6 8 14 19 23 30 30 28 29 28 25 23 26 26 20 21 24 23 24 25 26 28 26 24 23
17 19 21 23 24 25 25 23 23 22 20 19 18 17 16 17 17 16 14 11 8 4 5 9 16 21 23 24 27 26 28 28 26 26 24 27 29 29 30 27 25 25 24 22
20 22 23 24 24 24 23 22 21 20 19 18 18 17 17 16 16 17 17 15 13 12 11 12 15 16 17 20 20 24 23 22 25 26 26 28 27 28 27 23 23 24 23 22

GFSNGP_700_spd_042.txt.gz
Wind_Speed
7 5 6 7 16 24 30 29 15 10 15 13 14 11 12 13 14 11 12 13 13 13 15 15 16 16 17 19 20 20 17 17 20 17 15 13 14 15 16 17 16 15 16 16
11 12 13 15 14 16 28 27 31 18 16 13 17 18 19 18 16 13 13 13 11 10 11 13 14 14 12 12 11 11 14 15 14 13 10 10 12 15 15 16 16 16 17 19
1 5 7 14 24 26 24 23 24 30 29 22 23 25 25 20 16 14 12 11 9 9 9 12 13 10 8 8 7 7 9 10 9 7 6 8 12 13 14 15 15 15 16 17
2 3 3 5 7 9 17 25 25 23 15 14 19 20 19 15 15 12 11 9 8 8 7 7 7 10 10 10 9 7 6 5 4 5 8 9 12 12 13 13 13 13 13 14
4 8 12 17 13 8 6 9 17 23 22 21 20 20 15 13 13 12 9 7 6 6 6 5 6 8 10 9 11 12 12 12 11 11 11 11 7 7 6 6 11 13 12 11
5 4 3 4 6 5 6 7 5 11 20 22 21 17 13 12 11 10 8 5 6 5 6 4 5 8 8 6 7 10 11 10 9 10 12 13 15 16 16 14 13 12 10 10
13 7 9 11 12 7 5 4 4 7 16 18 16 14 12 11 10 10 7 6 6 7 6 4 5 6 7 7 7 8 8 7 7 8 9 11 12 12 11 11 10 9 10 10
14 7 9 7 7 10 7 5 5 8 11 13 11 10 10 10 11 12 8 7 6 7 8 4 4 5 6 6 6 6 6 5 6 6 8 9 8 8 8 8 8 9 10 11
11 7 9 8 9 16 12 7 6 10 12 14 17 12 5 6 8 11 11 9 8 8 9 6 4 6 5 4 5 5 4 5 5 5 6 6 6 6 7 7 9 10 12 13
16 15 18 14 11 9 14 16 15 10 10 11 12 17 12 5 6 9 13 12 10 11 11 7 7 7 6 5 5 5 5 5 5 5 5 5 6 7 7 9 10 12 14 17
23 21 16 13 12 11 9 13 12 12 12 12 11 12 13 14 10 11 11 14 14 13 11 10 9 9 9 7 7 6 6 7 7 6 6 6 7 7 9 10 12 14 16 19
17 13 12 10 10 13 12 15 15 16 17 18 20 20 20 18 19 18 15 13 14 14 13 10 12 9 6 8 9 9 9 9 8 9 8 8 9 9 10 12 14 16 18 21
20 19 17 16 12 12 15 16 18 20 21 22 24 24 24 24 23 22 19 16 16 16 16 14 13 12 10 13 12 12 11 11 11 10 10 10 10 11 12 14 15 18 20 22
25 20 18 19 19 18 19 19 18 21 23 22 21 20 20 23 24 24 22 19 19 18 17 17 15 14 12 14 16 14 14 13 13 12 12 11 11 12 13 14 16 18 20 23
20 19 18 18 17 18 18 19 19 16 16 18 19 19 18 19 20 23 25 24 21 20 19 19 18 19 17 20 17 15 15 15 14 14 13 13 13 13 14 16 18 21 23 25
16 17 17 19 19 19 20 18 18 19 21 19 19 20 20 19 20 21 22 23 23 20 20 21 22 22 24 21 24 19 19 18 17 16 15 14 14 15 16 17 19 23 25 27
13 13 13 14 15 16 17 20 20 21 21 22 19 18 18 20 18 19 19 21 23 22 21 22 22 24 25 25 25 25 21 21 19 18 16 16 15 15 17 18 20 23 26 28
10 7 9 12 13 15 17 20 22 23 23 24 24 22 19 20 21 19 21 21 22 23 23 23 25 25 23 22 23 25 24 23 21 19 18 17 16 16 17 19 22 24 26 28
9 10 7 8 8 10 10 11 13 14 13 13 17 19 18 18 22 24 22 24 21 22 24 25 23 23 23 23 23 25 24 24 22 20 19 18 17 16 18 22 23 25 26 27
13 9 3 3 6 6 7 9 10 10 6 5 8 11 17 18 20 22 22 23 25 25 25 25 23 24 22 24 26 26 26 26 23 20 19 19 17 16 21 24 24 25 26 27
16 12 6 5 6 8 8 10 13 14 12 13 12 11 10 10 15 21 23 23 22 23 25 25 26 25 24 26 27 24 26 26 22 20 21 19 18 22 22 24 24 25 26 28
19 13 10 6 5 2 4 8 12 14 13 15 14 12 12 14 13 13 15 23 28 27 24 25 26 27 27 27 26 28 29 27 25 22 20 20 21 23 23 23 24 25 26 28
21 17 12 10 7 5 7 12 16 17 18 17 17 17 17 17 16 14 13 13 18 24 28 30 28 27 25 25 26 27 27 27 25 21 21 24 23 23 23 23 24 24 26 28
19 18 14 11 10 11 15 19 21 21 20 20 18 17 16 16 17 17 16 14 13 13 17 20 24 25 26 23 24 26 24 26 24 20 23 23 24 23 22 23 23 25 29 27
14 14 13 10 13 17 19 22 23 23 22 21 19 17 16 15 15 16 17 15 14 12 13 16 20 20 21 22 23 23 23 26 27 24 28 29 29 27 26 25 28 28 26 26
13 13 14 17 19 20 21 22 22 21 21 20 19 18 18 17 15 15 15 16 14 14 10 9 9 9 12 18 20 21 23 23 25 26 26 21 23 26 25 24 25 25 23 24
13 15 18 20 20 20 20 20 20 20 19 19 18 17 17 17 16 15 15 15 15 15 13 11 10 9 10 14 17 18 20 20 21 22 22 22 23 23 22 23 23 22 22 23

GFSNGP_700_spd_045.txt.gz
Wind_Speed
10 7 8 9 21 26 31 30 18 25 17 18 12 14 15 16 15 12 11 11 12 12 13 12 13 14 14 15 16 18 21 21 18 17 18 18 16 13 10 9 10 12 13 15
13 13 12 13 13 20 33 32 32 20 19 22 16 20 20 18 15 12 13 12 12 11 9 10 11 12 11 10 10 10 11 13 13 13 14 13 10 10 9 9 11 13 13 15
4 6 9 16 25 28 25 31 35 37 35 16 23 25 23 23 18 17 15 14 12 10 10 9 8 8 7 7 7 8 9 10 10 8 7 9 10 11 11 10 9 11 12 14
4 5 2 5 5 6 13 23 28 26 23 28 26 25 26 26 24 20 16 13 11 10 9 8 7 8 6 4 7 6 3 3 2 2 4 5 6 8 8 5 7 9 8 6
3 7 14 15 11 12 11 12 15 25 23 17 25 27 29 24 20 17 14 12 10 8 7 7 6 5 4 2 3 5 7 6 4 5 6 7 8 10 10 8 8 9 8 7
6 3 4 2 2 6 8 13 9 11 20 27 26 25 16 17 16 14 13 11 9 7 6 7 5 5 4 3 3 3 3 3 4 7 8 9 10 10 9 8 7 7 6 8
14 7 11 11 6 8 6 4 4 6 12 23 29 19 15 14 13 11 12 10 8 7 7 8 6 7 4 1 2 3 1 1 4 6 6 6 6 7 6 6 5 5 6 7
16 7 10 4 6 8 6 4 1 1 6 14 16 14 13 13 13 12 13 10 9 8 8 9 9 8 5 2 0 0 1 1 2 3 3 3 4 4 4 4 4 5 7 9
11 6 5 5 7 8 10 5 3 3 6 10 12 14 14 11 9 11 14 13 10 10 9 9 9 9 7 5 3 2 2 2 1 1 1 2 3 3 3 5 6 8 9 10
11 15 16 15 11 10 8 10 8 5 7 10 12 13 10 19 17 6 11 14 13 11 11 11 8 9 10 8 5 4 5 5 4 4 4 4 4 5 5 6 8 9 10 12
25 23 17 14 11 9 11 10 13 11 11 10 10 8 9 10 11 10 5 7 12 14 13 13 13 10 12 10 7 6 7 7 7 7 6 6 7 7 7 8 9 11 12 14
25 16 13 11 13 14 14 11 11 12 13 14 14 16 17 18 17 15 16 13 10 13 14 13 14 12 9 7 7 7 9 10 10 9 8 8 9 9 9 10 11 12 14 16
29 26 22 16 12 9 10 12 14 17 19 20 21 22 22 23 23 22 21 19 17 14 16 17 15 16 13 10 12 11 10 12 11 12 11 11 11 11 11 12 12 14 16 18
30 27 24 20 17 13 14 15 17 18 19 19 21 23 22 21 21 22 22 22 23 21 19 17 17 16 13 14 14 12 12 13 13 14 13 13 13 13 13 13 14 15 17 19
26 22 23 22 20 20 19 19 20 18 19 17 16 17 19 20 20 20 21 22 25 25 22 20 19 20 18 19 17 16 19 15 15 15 16 16 15 15 15 15 15 16 18 20
26 28 17 18 17 17 18 18 18 20 19 18 19 19 18 19 21 20 19 19 21 22 24 23 22 22 26 21 22 22 19 23 20 20 18 18 18 17 17 17 16 17 19 21
5 12 15 15 14 14 15 16 18 19 20 21 23 23 22 20 19 20 20 18 18 19 22 23 23 24 22 22 22 22 24 23 26 24 22 20 20 19 18 18 18 18 20 22
9 9 8 8 10 13 14 16 18 19 20 22 22 24 25 25 23 22 23 18 17 21 23 22 25 26 25 25 25 24 23 23 25 25 25 22 20 20 20 19 18 18 22 24
14 11 5 6 6 5 4 5 7 10 12 12 12 14 15 20 21 21 22 25 25 20 24 25 29 25 27 28 24 21 24 26 26 25 26 25 21 21 21 20 19 23 23 23
15 6 7 6 5 6 8 8 8 7 7 8 10 11 9 9 14 17 20 22 23 24 26 29 26 23 24 25 25 25 27 26 27 27 29 28 24 20 21 21 21 24 23 23
13 10 15 13 10 7 3 1 3 6 7 8 9 9 9 9 10 10 11 17 25 25 25 23 23 26 26 27 27 29 27 26 27 29 28 26 21 19 22 22 23 25 23 23
14 16 13 13 9 6 3 3 6 10 12 13 13 14 14 14 13 15 17 15 13 18 27 27 25 25 27 27 25 27 28 26 27 29 27 25 21 21 22 23 25 22 23 23
15 21 18 15 12 10 9 8 11 15 17 18 17 16 15 15 16 17 19 17 18 17 15 21 27 29 29 27 27 25 27 27 27 26 26 27 23 23 27 28 25 22 23 24
15 23 22 17 15 14 13 15 18 19 19 19 19 19 17 17 16 16 16 17 16 16 16 15 17 21 24 27 26 25 24 21 20 18 22 25 25 22 23 26 28 28 28 29
9 11 13 15 14 13 14 16 19 20 20 20 19 17 16 15 15 16 16 16 16 16 15 14 14 14 16 17 18 19 17 17 18 19 22 25 25 26 27 26 29 28 26 24
12 12 12 10 10 12 15 17 18 19 19 19 18 18 17 17 17 16 16 16 15 15 16 15 11 10 10 13 14 15 17 18 18 20 23 23 22 20 20 21 23 23 21 23
16 16 12 9 12 14 15 16 16 17 17 18 18 18 18 18 18 17 16 15 15 14 15 15 13 10 9 9 10 13 15 16 16 18 17 16 18 18 19 20 21 22 22 23

GFSNGP_700_spd_048.txt.gz
Wind_Speed
12 10 9 11 16 27 41 43 24 32 34 29 18 12 11 14 19 18 16 15 15 14 15 15 15 16 18 19 18 18 19 19 22 22 21 19 20 19 17 16 15 15 14 13
17 15 13 15 15 18 29 40 46 43 38 31 23 21 17 17 17 18 17 12 14 14 15 14 13 12 11 12 12 11 11 11 12 14 15 15 14 13 12 12 13 14 13 13
5 10 13 19 27 29 28 32 36 37 36 21 22 25 24 24 22 19 15 15 15 15 15 14 13 11 10 9 7 7 7 8 8 8 9 10 10 11 12 12 13 12 13 12
3 4 2 9 9 7 15 25 33 32 31 27 29 19 27 26 24 20 19 19 17 16 14 14 12 10 7 6 5 4 2 0 3 3 4 4 5 6 7 6 7 8 7 2
4 7 19 16 11 12 14 17 15 25 28 25 23 31 29 30 26 24 22 20 18 16 13 12 11 8 6 5 5 4 2 3 4 4 3 3 4 5 4 3 4 4 2 1
7 4 5 4 3 3 8 16 9 12 15 26 24 29 38 32 28 26 20 19 17 15 12 10 9 7 5 4 4 6 4 3 4 5 5 4 4 4 4 3 2 1 1 2
16 7 11 8 10 7 5 4 7 7 9 22 31 23 19 20 19 19 18 17 16 14 12 10 9 7 6 6 4 8 5 4 5 4 3 3 3 3 2 1 0 2 4 6
13 7 10 5 7 8 6 8 7 7 6 15 22 25 20 17 17 16 16 15 15 13 12 9 8 8 8 7 8 9 6 6 5 4 4 4 4 3 2 1 3 5 7 8
11 6 5 5 5 7 6 7 6 4 1 7 12 16 17 17 18 17 18 17 16 14 12 9 9 8 10 10 10 10 7 7 7 6 6 7 6 4 4 5 7 8 9 10
18 14 17 17 14 10 11 8 6 4 3 5 12 16 18 16 17 18 17 17 19 15 12 10 10 9 10 12 11 9 9 10 9 7 8 8 7 7 7 8 10 10 11 12
29 28 24 19 16 10 11 10 10 14 12 10 9 8 7 7 6 8 15 21 17 15 14 12 14 13 12 13 14 12 11 11 11 10 10 9 10 10 11 11 11 12 13 14
29 22 19 14 12 15 17 15 13 12 13 13 12 13 13 13 14 14 14 13 12 10 12 14 15 15 15 11 13 13 12 12 12 12 12 12 12 13 14 14 13 14 14 15
38 31 26 17 19 14 10 11 14 14 15 16 17 18 19 20 20 21 21 21 19 17 17 17 16 17 17 15 11 11 14 12 13 14 15 14 15 15 15 16 15 15 16 16
44 40 33 17 21 19 15 15 15 15 16 18 20 21 21 21 22 22 21 22 25 25 24 22 22 19 22 18 15 15 13 13 12 14 16 16 17 18 17 18 17 17 17 18
30 32 32 29 23 21 19 18 19 21 21 21 20 21 18 17 18 19 20 21 23 25 28 27 25 23 25 25 21 20 19 18 18 16 17 18 19 20 20 20 19 19 19 19
17 24 29 33 21 19 20 22 20 20 20 20 20 19 20 20 20 19 21 22 20 20 23 27 28 26 29 31 30 29 21 23 21 18 21 23 23 22 22 22 21 21 20 20
11 14 21 17 16 17 19 21 22 22 21 21 20 21 24 24 23 23 22 21 22 21 23 23 24 28 30 31 32 30 29 29 25 24 23 26 27 26 24 23 23 23 22 21
2 12 15 11 13 14 16 17 18 18 18 19 20 22 26 27 27 26 26 24 23 22 19 22 27 26 28 30 31 29 28 28 25 26 27 27 28 28 28 24 24 24 24 23
9 11 10 11 11 12 11 10 10 8 8 8 9 10 14 15 16 20 22 22 23 25 26 26 25 27 29 28 28 32 32 31 30 25 29 30 29 29 30 27 25 24 25 24
7 11 10 11 11 10 9 7 5 3 1 2 4 6 9 11 10 9 12 16 19 22 27 29 30 28 27 23 31 31 32 34 31 32 31 30 30 31 32 31 26 24 25 26
8 16 14 15 14 13 9 5 3 0 3 5 8 10 12 12 11 10 10 11 11 13 17 28 30 27 27 27 29 29 28 30 32 33 31 31 32 31 30 28 26 23 26 27
12 16 15 17 18 14 9 6 5 4 7 9 11 13 14 14 14 15 17 19 21 20 20 19 20 28 29 28 27 29 30 31 31 32 32 32 30 27 27 28 25 24 27 29
9 10 14 18 19 15 12 11 10 10 12 15 16 17 16 16 15 16 16 16 18 19 19 18 16 15 21 29 30 28 29 30 30 31 31 29 24 23 26 27 27 29 32 32
9 9 9 13 18 17 15 16 16 15 17 17 17 17 18 18 16 16 16 16 16 17 18 19 18 16 15 17 21 24 28 28 26 25 23 18 16 20 23 26 28 28 24 24
8 8 9 11 14 15 15 21 18 16 17 18 18 17 16 16 17 17 17 17 17 17 17 18 19 17 15 14 15 17 18 21 21 18 17 15 14 18 21 23 23 21 22 24
11 12 13 13 13 14 10 9 11 14 16 16 16 16 16 17 16 17 17 17 18 17 17 17 17 16 15 14 12 12 13 12 12 13 14 14 16 19 18 18 20 21 21 22
15 16 16 16 16 12 9 10 13 14 15 16 17 17 18 18 18 19 19 18 18 18 17 17 15 15 13 12 10 8 8 10 12 14 15 17 18 18 18 18 18 20 21 22

GFSNGP_700_spd_051.txt.gz
Wind_Speed
13 10 9 11 14 22 40 45 26 30 36 38 33 25 15 10 13 17 18 17 15 15 16 18 19 19 19 21 24 25 25 24 24 25 25 25 24 23 21 20 19 16 15 15
11 13 15 17 18 19 23 26 40 48 49 38 30 26 25 25 18 19 19 16 14 14 16 17 18 17 17 16 17 19 19 19 18 19 18 18 18 17 16 15 13 13 14 14
4 8 13 18 25 29 31 31 29 35 30 30 32 29 27 26 21 26 18 17 18 15 16 17 16 16 17 17 16 15 14 15 15 14 14 13 13 12 11 11 13 13 12 11
4 4 2 7 10 12 16 19 27 34 33 25 21 22 21 24 25 23 18 19 17 17 18 17 16 16 15 14 13 12 10 9 9 10 9 9 9 8 8 9 8 7 7 7
4 5 19 23 17 13 16 20 17 22 19 21 26 24 33 26 24 25 21 22 19 19 18 18 16 15 14 12 11 11 10 7 5 5 4 4 4 5 5 5 4 4 4 4
4 3 4 3 3 5 9 13 7 11 15 16 21 31 27 27 26 27 25 22 21 20 19 17 14 13 13 10 9 8 7 7 4 4 5 6 5 4 5 5 4 5 5 5
13 7 12 9 10 13 5 6 11 11 11 15 19 25 18 19 28 26 25 27 24 20 18 16 14 13 12 10 9 8 7 5 5 6 6 5 4 4 5 5 6 5 6 7
10 8 10 4 5 8 8 12 11 11 12 11 14 17 18 14 18 21 21 19 18 19 17 16 14 12 12 11 9 8 8 6 7 8 8 7 7 7 7 7 6 7 8 10
11 6 6 7 5 9 9 10 11 10 9 6 5 11 18 18 18 18 19 19 19 19 18 16 14 12 11 12 10 8 9 8 9 10 10 10 11 9 9 8 8 10 10 12
20 19 14 9 14 17 15 14 11 7 5 4 4 8 11 15 18 19 21 21 21 21 19 17 15 12 10 10 11 10 10 11 12 12 12 12 12 12 10 10 12 13 12 13
29 31 31 26 21 17 18 15 14 12 13 12 8 6 8 12 12 7 6 14 20 25 25 21 17 15 14 11 12 14 13 13 14 15 14 14 14 14 13 14 15 15 15 15
36 33 30 26 15 11 12 14 17 15 14 13 12 12 10 10 10 11 12 13 11 11 24 21 20 17 15 16 14 13 16 16 16 16 16 15 15 15 16 17 17 17 17 17
31 37 45 35 30 18 15 12 14 16 15 15 15 15 15 15 17 18 18 18 17 17 17 15 16 15 17 17 16 13 14 17 18 18 17 17 17 18 18 19 19 19 19 19
36 41 41 43 35 27 18 15 17 16 16 17 18 19 20 20 20 21 22 22 22 21 23 23 22 21 22 20 23 18 15 16 15 17 17 19 19 20 19 20 20 21 21 22
23 32 39 37 41 30 25 16 20 19 18 19 20 21 22 20 20 19 18 19 20 20 21 23 26 25 25 26 25 25 24 20 21 23 23 19 19 21 21 22 22 23 23 24
21 17 20 24 27 36 24 21 21 21 22 23 22 22 21 21 20 21 21 21 20 22 23 23 24 26 29 29 31 32 31 29 28 27 24 23 22 23 25 27 26 26 25 26
20 23 17 32 27 28 18 25 21 22 23 23 23 21 23 22 23 24 24 24 24 22 23 23 21 25 28 31 32 33 34 36 37 37 28 29 28 27 26 28 29 29 29 28
13 11 7 11 15 22 28 17 18 21 23 22 21 21 21 22 23 25 27 26 27 26 24 24 23 21 24 26 28 31 34 34 38 35 36 34 32 32 30 31 31 31 31 30
6 5 1 9 10 11 13 15 15 17 17 14 12 10 8 9 10 12 15 17 20 23 25 25 26 26 26 26 26 34 33 33 35 35 35 32 33 32 31 32 32 32 32 33
10 10 7 10 11 12 13 12 11 9 7 5 4 5 7 10 11 11 11 10 11 13 17 21 24 28 30 32 32 32 30 32 33 30 35 36 31 32 34 33 32 32 33 33
13 13 16 13 15 18 20 16 9 7 4 2 3 5 7 9 11 12 14 13 12 12 12 15 16 16 19 30 33 29 32 32 30 30 30 32 35 35 35 33 32 30 30 31
14 12 13 15 16 19 16 10 10 8 5 3 5 8 9 11 12 12 12 13 15 19 22 23 22 21 19 17 21 28 28 29 30 32 34 33 32 32 32 31 28 25 27 30
10 10 10 14 17 22 19 15 12 10 9 8 10 12 12 13 13 13 13 13 14 15 16 17 18 20 21 19 17 20 27 31 31 31 33 32 31 30 27 25 22 23 28 30
15 9 7 7 9 15 22 18 14 14 16 16 16 15 15 14 14 14 14 15 16 16 17 17 17 18 19 19 18 19 20 23 26 28 28 28 27 23 19 16 15 20 22 23
19 15 10 8 9 11 13 19 20 18 17 17 16 16 14 14 13 14 14 15 16 17 17 18 19 19 19 19 18 17 16 17 18 19 20 21 18 15 13 13 16 18 19 21
20 16 14 14 13 12 14 18 16 13 14 14 14 14 13 13 13 14 15 17 17 18 18 18 19 19 18 18 16 15 14 12 12 12 11 11 13 15 17 16 16 19 20 21
20 18 16 16 16 15 15 14 13 13 10 11 12 13 15 15 16 17 17 18 19 19 19 19 18 18 18 18 15 13 12 10 9 9 10 12 15 18 19 18 18 20 21 21

GFSNGP_700_spd_054.txt.gz
Wind_Speed
10 10 11 12 15 26 35 43 30 45 37 36 33 32 31 30 17 14 13 16 16 15 14 15 16 18 18 20 21 21 23 25 26 26 26 26 25 25 24 23 22 20 18 17
9 14 16 19 19 21 27 29 38 42 46 33 37 37 32 23 26 26 19 13 15 14 13 14 17 18 18 20 20 20 21 21 22 22 22 21 20 20 20 19 18 16 14 13
7 8 7 15 24 29 31 31 30 33 32 30 23 20 22 25 25 26 19 12 15 15 17 15 17 18 18 18 18 19 19 18 18 18 17 17 16 15 15 15 13 13 13 12
5 3 2 5 4 8 14 16 17 21 22 20 19 22 20 21 22 22 20 18 16 18 18 18 18 18 18 18 17 16 17 15 13 13 13 13 13 13 12 13 13 10 9 9
4 5 16 14 7 6 8 15 11 16 18 18 18 21 26 21 19 19 21 18 18 20 19 19 19 18 17 16 16 15 14 13 12 9 8 8 9 10 10 9 8 8 6 5
2 2 4 2 4 7 11 7 7 11 14 16 17 24 17 21 24 23 22 24 22 20 20 19 19 18 17 15 14 13 12 11 8 7 7 6 6 6 7 8 8 6 6 6
11 6 11 9 8 10 4 6 16 16 16 17 18 18 15 17 22 21 27 22 23 23 22 23 20 18 16 15 14 12 11 10 8 7 6 6 7 7 7 7 6 7 7 8
9 7 6 6 7 4 6 12 15 15 16 16 16 13 10 14 14 16 21 22 23 25 24 21 20 18 16 15 14 12 11 10 9 8 8 8 7 8 7 6 7 8 9 10
8 5 4 13 18 14 20 20 19 19 14 14 13 7 6 8 10 13 17 19 20 20 20 20 19 15 17 15 15 14 12 12 11 10 10 9 8 10 9 9 10 11 12 12
21 17 14 9 10 18 25 20 13 12 12 14 12 8 6 11 16 17 17 18 20 21 22 21 21 20 18 16 14 15 14 13 13 12 11 10 11 12 12 12 13 14 14 15
33 35 34 30 27 27 25 21 18 18 19 17 16 10 6 8 11 13 15 16 13 21 30 27 26 24 21 17 14 14 15 15 15 14 13 13 13 14 14 15 16 15 16 16
27 30 33 33 30 23 20 16 14 17 16 16 16 13 14 11 9 9 9 11 12 13 10 8 28 29 26 19 16 15 14 16 16 16 15 15 16 17 17 18 17 18 18 18
30 28 31 34 37 30 31 24 18 15 15 17 17 16 15 15 14 14 16 17 17 17 17 16 12 10 23 21 19 15 14 15 16 16 17 19 19 19 20 20 20 20 20 21
22 25 28 25 27 31 35 34 30 19 16 15 17 17 17 18 19 20 20 20 21 20 20 20 19 18 16 18 19 19 16 15 15 17 18 20 20 21 21 21 21 22 23 23
23 27 34 32 28 24 31 37 36 23 19 18 18 19 19 21 22 22 21 21 18 18 19 19 19 19 22 23 22 24 26 27 24 21 22 22 23 23 21 22 22 24 24 25
21 23 26 32 35 28 23 29 42 24 22 20 20 21 22 23 23 23 22 22 21 20 20 20 21 21 23 25 27 28 27 28 29 28 30 29 28 27 25 24 25 26 27 29
22 19 22 23 23 22 20 25 31 26 21 22 23 22 22 22 23 24 23 23 23 24 24 24 22 23 23 23 25 27 29 29 31 33 35 35 36 33 29 31 32 29 27 29
21 19 20 17 17 10 12 10 21 17 17 24 24 22 21 21 20 21 22 23 25 27 27 27 26 25 24 22 21 22 23 26 31 34 36 32 32 36 37 37 36 36 32 29
24 21 19 13 13 11 11 13 13 11 11 16 20 18 15 14 13 12 13 13 14 17 19 21 22 23 24 25 25 26 27 28 29 34 33 33 36 34 34 35 34 33 32 32
25 23 23 19 14 12 12 11 12 13 11 11 10 9 8 9 9 10 11 10 9 10 10 11 14 17 20 23 25 29 32 33 33 33 32 31 33 30 31 33 34 33 33 35
27 26 22 21 19 15 15 19 19 16 15 8 6 6 6 6 8 9 10 11 12 13 13 13 14 15 17 19 22 23 23 30 34 33 31 32 30 30 30 31 32 34 35 32
26 26 24 20 20 19 16 18 20 16 11 9 7 4 5 7 8 9 11 11 12 12 13 15 18 20 22 23 22 23 23 22 25 30 30 29 30 31 32 32 31 30 29 29
24 23 24 23 19 21 20 18 21 16 13 12 8 5 6 10 10 11 10 10 11 11 12 13 14 15 17 18 20 22 21 20 21 24 29 31 30 30 31 30 28 27 25 23
27 22 22 21 19 18 20 21 24 23 19 17 15 13 11 12 13 12 11 12 12 12 12 13 14 14 16 17 18 19 21 20 20 19 20 22 25 25 25 24 23 20 16 15
28 24 20 22 19 16 15 17 20 21 21 18 15 14 14 14 13 12 12 13 12 13 14 14 14 15 16 17 18 18 18 19 18 18 18 18 18 17 18 17 14 13 16 18
26 24 20 20 18 16 15 13 19 22 23 20 16 14 13 13 12 12 13 14 14 15 15 15 15 15 16 17 17 17 17 16 15 15 15 15 14 12 12 14 14 16 18 19
22 21 22 19 20 19 18 16 14 14 18 14 9 9 10 11 12 13 14 15 16 16 16 17 17 17 17 16 16 16 15 14 14 13 12 12 10 11 13 16 17 19 20 21

GFSNGP_700_spd_057.txt.gz
Wind_Speed
5 5 5 7 10 21 32 35 29 40 31 39 42 39 32 21 21 22 17 16 13 14 14 15 15 16 17 19 19 20 21 21 22 24 25 26 27 26 26 25 25 23 22 21
4 6 10 14 17 19 20 25 31 33 36 27 22 23 21 24 24 22 19 11 13 15 18 16 15 15 17 19 20 20 21 21 21 22 22 22 23 22 22 22 22 21 19 16
2 6 9 14 17 21 27 30 29 31 29 27 22 19 23 21 19 23 23 18 17 17 16 17 15 14 16 19 20 20 20 20 19 20 20 19 18 17 17 17 16 16 14 12
4 4 2 5 6 7 10 11 14 16 17 18 20 21 20 24 24 25 28 25 22 19 19 18 19 18 19 20 20 19 19 18 17 17 15 13 14 14 13 14 14 13 11 11
3 7 13 17 6 4 5 6 4 7 11 14 17 20 16 17 24 22 20 20 24 21 21 21 18 19 20 20 20 19 18 17 17 16 13 10 8 10 11 12 11 10 10 9
4 2 4 1 5 8 9 2 10 15 16 18 19 22 12 14 15 21 20 22 21 22 22 21 19 19 20 20 19 18 17 15 14 13 10 9 6 6 7 8 8 8 8 8
9 5 7 8 7 8 2 5 13 13 18 19 21 23 18 13 16 22 23 23 20 22 22 21 22 22 22 20 19 17 16 14 12 9 8 7 5 5 6 7 7 6 8 8
6 6 3 5 9 6 9 13 17 16 17 14 18 20 15 10 11 17 18 20 23 22 23 23 24 25 23 21 19 17 15 14 12 11 10 9 7 7 6 7 8 9 9 9
6 3 5 17 20 15 16 16 18 22 15 13 14 19 13 6 8 9 13 16 18 20 22 24 25 23 23 25 18 17 16 14 13 12 11 10 9 9 10 10 10 11 12 11
14 11 14 15 15 17 23 28 31 27 19 15 14 16 14 9 9 11 11 13 16 18 20 21 22 23 23 18 18 17 17 16 15 14 13 12 12 12 12 13 13 13 14 14
24 26 25 24 24 27 31 33 29 25 24 22 20 12 12 12 9 10 10 13 15 19 19 22 28 28 26 25 21 20 18 16 16 16 15 15 15 15 15 14 15 15 16 16
23 27 30 26 22 20 23 29 31 24 21 22 20 16 14 14 15 12 8 8 9 11 12 12 9 10 27 25 28 25 19 16 17 17 17 17 17 17 17 17 18 17 17 17
28 30 30 28 27 31 31 23 25 32 25 22 20 20 17 17 17 17 15 14 14 15 16 15 14 13 11 9 25 28 20 16 16 17 17 18 19 19 19 20 19 19 19 19
26 31 30 26 30 30 33 30 27 24 35 28 23 21 19 18 19 19 19 19 18 18 19 18 17 16 16 14 9 17 22 15 14 16 17 18 18 20 21 20 19 21 21 21
23 26 28 27 28 30 30 30 31 29 29 39 29 24 21 20 20 21 21 21 21 20 19 17 16 16 17 17 17 17 17 20 21 22 21 20 20 19 20 21 21 22 22 22
27 26 24 23 26 28 30 29 34 31 28 37 35 28 23 23 22 23 24 23 22 21 21 20 19 19 19 20 19 20 21 23 24 25 25 25 26 26 27 27 26 26 25 26
30 29 27 23 23 24 26 28 21 25 23 20 30 27 25 25 25 24 23 23 22 22 22 22 23 22 22 21 21 20 20 22 24 25 25 26 28 28 29 30 32 33 30 32
28 30 32 33 26 25 23 22 19 10 11 11 23 24 23 24 23 23 22 21 21 21 22 24 25 26 25 24 23 22 20 19 20 21 23 26 30 33 35 34 31 29 31 36
29 28 28 32 29 25 23 22 20 20 16 14 14 16 14 20 21 18 16 15 14 15 16 17 19 21 22 23 23 22 22 23 24 26 26 28 28 31 32 32 31 33 33 32
28 30 29 28 31 26 22 21 17 17 16 12 12 11 10 11 12 13 13 14 13 12 11 9 10 11 13 15 18 21 23 25 26 28 29 29 29 30 31 30 31 31 31 32
29 28 30 27 28 30 25 22 22 19 18 13 8 7 7 9 11 11 11 11 11 11 13 13 12 12 12 13 15 18 21 24 25 25 23 28 32 34 33 32 31 29 30 30
28 27 27 28 25 29 28 21 21 23 21 21 19 15 14 11 9 9 9 10 9 9 10 11 11 11 13 15 16 18 21 24 24 24 23 23 25 28 30 30 30 31 30 31
30 28 26 25 24 24 29 24 19 22 25 21 20 18 14 10 7 6 8 9 9 9 9 10 10 11 12 13 13 14 16 17 19 21 22 22 22 23 26 29 30 30 29 27
30 30 27 24 23 24 25 26 20 19 23 27 24 18 15 10 8 6 8 9 9 8 8 8 9 11 11 12 13 14 15 16 16 17 19 20 21 20 21 22 23 23 22 20
29 29 26 22 22 23 20 25 21 19 21 23 27 24 17 15 12 9 9 10 10 10 9 10 11 12 13 13 13 14 14 15 15 15 16 17 17 17 18 18 18 16 14 13
23 23 21 20 20 22 20 20 21 20 18 22 23 21 16 10 12 12 12 12 11 11 11 12 12 12 13 14 14 14 14 14 15 14 14 14 13 12 11 11 10 9 11 12
16 18 18 18 20 20 20 17 18 18 16 16 20 17 12 10 11 10 10 10 11 12 12 12 13 13 13 14 14 14 14 14 14 14 13 13 12 11 9 10 11 13 16 17

GFSNGP_700_spd_060.txt.gz
Wind_Speed
9 5 6 8 16 23 27 33 24 29 26 28 24 25 31 26 25 26 18 17 17 16 16 17 17 19 20 21 22 22 23 25 26 27 28 27 28 29 30 32 32 31 29 26
7 7 7 10 13 16 18 22 27 30 32 21 20 27 27 27 23 22 22 18 18 18 18 18 18 18 19 19 20 22 23 25 26 26 27 28 28 28 28 28 29 28 26 25
3 5 5 11 13 16 19 22 23 26 26 22 20 21 21 24 27 29 27 28 26 21 19 20 20 20 19 18 18 20 22 23 24 26 26 26 26 26 26 26 24 24 23 22
4 2 4 2 3 5 8 9 9 9 11 13 17 18 16 19 25 23 26 25 33 27 25 24 24 24 22 20 20 21 22 23 24 25 24 24 23 22 22 22 20 19 18 17
2 3 7 5 2 2 2 4 4 4 7 12 17 20 16 18 22 21 22 23 30 31 27 28 27 25 24 22 22 22 22 23 23 23 23 22 21 19 18 18 16 15 16 15
4 1 2 1 4 6 4 6 1 7 10 14 17 21 18 20 19 20 20 24 25 31 33 33 29 25 23 23 22 22 23 23 21 21 20 19 16 16 15 15 13 14 13 13
7 5 4 3 0 0 3 4 7 11 14 16 17 18 21 19 16 17 18 22 21 22 27 28 26 25 27 25 24 24 24 23 21 18 16 15 14 13 11 12 13 13 14 14
5 5 4 5 2 3 8 16 17 13 15 18 17 17 20 17 14 15 14 21 22 22 23 26 28 26 26 27 27 25 24 21 20 18 16 15 14 13 11 12 13 13 13 13
5 2 7 10 19 16 16 18 19 21 21 23 21 18 18 17 11 11 11 16 18 22 24 25 27 27 28 29 28 26 28 26 18 19 17 16 15 14 13 13 13 13 14 13
11 13 17 20 20 22 26 28 28 31 33 33 30 23 23 20 13 12 14 13 15 17 20 23 25 28 30 28 27 30 34 22 19 19 18 17 16 15 15 15 15 16 15 14
19 21 20 21 21 24 26 28 30 32 35 36 33 26 25 22 17 15 12 14 18 18 19 22 24 27 30 29 28 27 24 21 20 18 17 18 17 17 17 17 17 17 17 16
13 17 20 20 21 22 25 24 24 28 23 31 32 29 26 24 21 17 18 14 13 14 14 13 14 14 10 19 30 32 29 28 25 22 20 20 20 19 19 19 18 19 18 19
19 22 24 25 25 25 23 23 26 26 25 24 29 33 28 27 25 24 20 20 19 16 16 17 17 17 16 14 13 12 24 26 28 24 23 21 21 20 21 21 21 21 20 21
19 22 21 22 22 21 23 24 23 21 23 24 25 35 34 30 29 27 26 24 23 20 20 20 19 19 18 17 15 14 11 20 24 25 21 23 23 23 24 24 22 22 23 24
16 19 24 26 25 23 24 26 26 24 25 22 22 26 38 35 32 30 27 26 24 23 23 23 21 19 19 18 17 16 15 12 19 20 16 16 18 19 21 21 21 22 23 24
16 19 21 22 23 26 27 27 27 25 25 25 26 28 33 40 36 33 29 27 26 25 25 25 23 23 22 20 19 19 18 17 20 22 22 21 21 21 22 24 24 26 27 26
21 21 25 25 25 25 26 25 25 26 20 17 17 16 24 37 30 34 30 28 26 26 25 25 25 25 24 24 23 21 21 21 22 22 23 25 25 24 26 26 27 26 26 26
21 22 23 25 26 27 27 29 24 23 22 18 18 17 14 23 25 29 30 27 26 26 25 25 26 26 26 26 26 25 24 24 24 21 22 25 27 30 31 31 31 32 32 32
27 26 25 26 26 25 26 26 27 24 25 21 22 16 14 24 19 23 24 23 24 22 21 22 22 23 23 24 25 25 25 25 24 24 24 25 27 26 29 31 32 31 31 32
33 35 33 30 28 27 25 24 26 24 23 24 21 22 22 23 23 18 19 20 18 19 19 18 17 17 16 17 18 20 22 24 25 27 27 28 28 28 31 32 33 32 32 33
35 34 37 36 32 29 26 24 22 24 23 23 22 20 19 15 16 12 13 13 16 17 16 18 19 17 15 14 14 15 17 19 21 24 26 27 28 28 27 28 33 36 37 35
36 35 35 35 33 30 29 26 22 21 22 24 24 23 22 18 13 14 14 14 14 14 14 14 14 15 15 16 18 18 19 20 21 23 25 28 28 26 25 25 27 29 31 32
36 35 34 34 32 29 28 27 22 21 21 23 25 26 25 28 25 21 13 13 12 12 11 11 11 11 12 12 13 13 14 15 16 18 19 20 21 22 23 24 24 25 26 28
32 30 31 32 29 27 26 25 21 19 18 21 23 25 22 24 23 21 16 11 9 9 9 9 9 10 10 10 11 11 12 14 16 16 16 17 17 18 20 21 21 21 21 21
27 26 24 24 25 25 24 23 20 19 16 17 18 22 23 20 21 22 21 15 8 9 9 9 9 9 9 9 9 10 11 12 14 14 14 14 15 16 16 16 16 16 15 13
18 17 17 20 22 20 19 19 19 18 16 15 16 16 21 21 19 13 10 16 9 8 9 9 8 8 9 9 10 10 11 12 12 12 12 13 14 14 14 13 11 11 9 9
19 17 16 17 20 20 20 15 15 17 14 13 13 12 16 21 17 12 10 10 10 11 11 10 9 9 9 10 10 10 12 12 12 12 13 13 13 14 14 14 14 14 14 14

GFSNGP_700_spd_063.txt.gz
Wind_Speed
6 4 10 11 14 19 22 28 22 20 20 19 17 18 21 27 25 26 25 23 22 21 20 15 16 18 20 21 22 24 25 26 27 28 29 29 31 32 33 34 35 35 35 35
6 7 7 9 10 11 18 21 21 22 23 20 21 16 19 21 22 24 26 25 23 24 24 20 17 18 20 20 21 22 23 24 26 27 28 29 30 31 33 34 35 35 34 33
3 6 6 10 12 13 12 12 11 15 16 18 21 20 16 17 19 23 25 25 24 27 26 24 21 21 20 21 23 22 23 24 25 26 28 29 30 31 31 33 33 33 33 30
1 1 3 2 3 3 5 5 6 8 7 9 12 16 14 17 18 21 23 23 23 26 28 29 25 25 25 25 23 22 22 23 24 26 26 27 30 30 30 30 30 29 29 25
3 5 4 5 2 1 2 3 4 5 7 9 11 12 8 18 21 22 23 20 21 27 28 36 31 30 29 28 27 27 26 26 26 26 27 26 28 28 28 28 28 26 25 21
2 3 3 3 6 4 5 9 10 7 9 12 13 14 14 18 19 19 21 21 22 23 26 31 35 31 31 31 28 25 25 26 26 26 26 26 26 26 25 24 23 21 20 18
9 7 5 9 7 5 6 6 10 11 14 15 15 17 21 22 22 23 20 18 19 19 22 26 34 33 32 31 27 27 28 28 28 28 26 25 23 22 20 20 19 19 18 17
6 5 7 9 9 6 7 12 17 20 22 24 23 21 20 21 22 22 20 17 14 19 21 22 22 26 29 30 30 31 30 29 30 29 26 22 22 19 18 17 16 16 16 16
6 5 10 9 15 16 21 24 26 27 25 28 28 26 25 26 26 24 21 18 14 15 20 22 21 25 28 31 32 32 32 32 33 30 29 25 19 20 18 16 14 15 15 16
12 14 17 18 21 25 29 31 32 34 31 31 32 34 34 33 28 27 23 19 19 16 17 19 22 25 29 31 33 34 34 35 32 31 32 22 19 20 18 17 17 16 16 16
20 20 21 23 21 24 27 30 32 32 29 27 30 30 29 28 26 26 26 22 18 19 20 20 21 24 28 31 32 34 33 33 33 32 30 23 21 19 19 19 19 19 19 19
12 13 15 17 20 22 24 27 28 30 32 33 35 33 29 27 26 26 26 25 21 18 17 21 21 20 19 24 24 22 31 36 34 29 29 27 22 22 21 20 21 21 21 20
15 15 16 18 19 21 21 22 21 20 22 27 26 29 31 30 28 29 29 29 27 25 26 21 19 18 18 19 19 18 17 14 20 27 26 28 24 24 24 25 25 24 23 23
13 15 14 17 19 20 21 19 19 20 21 23 26 26 26 29 29 34 33 33 32 30 28 26 24 20 21 21 20 20 19 18 15 16 22 23 30 27 26 26 25 24 25 26
16 16 17 17 17 19 22 25 25 23 23 21 22 24 28 29 31 33 40 38 36 33 31 32 26 25 24 22 22 21 19 18 17 14 14 15 17 20 21 21 23 24 24 25
15 18 20 21 23 23 23 24 26 25 24 24 25 22 23 27 29 34 39 40 38 36 35 34 30 29 27 26 24 24 22 20 19 18 16 17 18 17 18 16 17 18 19 21
18 21 24 26 28 28 28 27 27 28 28 26 26 25 26 26 29 30 35 39 38 40 37 34 32 30 29 28 27 26 25 24 23 22 21 21 22 23 25 25 23 25 24 25
19 24 28 32 34 34 34 34 32 30 30 28 28 27 25 25 28 28 27 30 33 35 37 33 31 30 29 29 28 28 27 27 27 25 24 23 23 25 26 27 27 27 29 30
24 28 35 40 41 39 39 37 36 35 33 31 28 27 27 24 26 24 26 23 33 31 31 28 31 29 28 28 27 28 29 30 29 28 27 25 27 26 26 27 27 27 28 30
33 41 46 44 38 37 38 39 38 35 34 32 29 28 29 26 23 25 27 27 29 25 24 24 25 22 22 23 22 22 24 25 27 27 28 26 28 29 29 30 31 31 33 35
47 49 45 41 38 36 37 37 36 34 32 31 29 27 27 28 24 21 25 28 25 23 21 21 22 23 21 19 17 16 17 18 19 21 24 26 28 30 31 32 32 32 30 30
45 42 38 36 34 34 33 33 32 31 29 27 28 26 25 26 25 20 21 17 13 15 15 17 20 19 19 20 19 19 18 18 18 19 21 23 26 28 30 31 29 27 27 28
38 36 34 33 32 31 30 28 28 27 26 24 26 26 24 25 25 25 19 19 19 13 15 18 18 16 16 16 16 15 15 15 15 16 17 18 19 20 20 21 21 22 23 23
33 30 30 29 28 28 28 27 25 24 22 22 24 25 23 19 18 22 29 28 22 16 16 15 14 14 13 13 12 12 12 12 13 14 14 15 16 16 16 17 18 18 20 20
28 27 25 24 23 25 25 25 27 22 21 21 22 22 20 21 18 17 19 26 23 17 16 14 12 11 11 11 10 10 10 11 11 12 12 12 13 13 14 14 15 16 16 15
27 26 28 28 25 23 23 24 26 25 21 21 21 19 17 20 19 18 19 25 22 17 13 12 11 10 9 9 9 9 9 9 9 9 10 11 11 12 12 13 13 13 14 14
27 26 30 29 28 19 20 25 27 27 27 20 18 19 16 16 19 18 11 11 22 20 12 11 9 8 8 8 8 8 8 8 8 8 9 10 11 11 12 13 13 14 14 15

GFSNGP_700_spd_066.txt.gz
Wind_Speed
4 2 9 8 15 19 20 24 12 20 20 17 16 18 21 26 29 31 28 23 22 23 20 20 20 20 19 17 18 22 24 24 25 27 28 29 29 30 30 31 31 33 34 34
4 3 4 5 10 16 19 20 18 19 23 18 22 24 25 23 23 21 20 20 21 20 21 20 20 20 20 18 17 17 19 21 22 23 24 26 27 29 30 31 32 33 34 35
3 6 7 9 13 15 16 18 18 18 17 23 24 26 25 21 18 17 19 21 22 19 20 19 22 22 22 21 19 19 20 21 22 23 24 25 27 28 29 30 31 31 33 34
1 3 1 4 4 7 14 13 15 16 19 23 23 14 11 15 14 18 21 22 21 21 20 21 24 26 25 24 22 23 23 23 22 22 23 24 26 28 30 30 30 30 32 32
2 7 3 6 5 6 7 10 10 13 14 13 11 8 12 9 17 22 21 21 21 21 23 22 25 27 28 27 26 26 25 25 25 26 25 26 28 29 29 30 30 29 29 28
3 3 2 7 6 5 7 11 12 12 10 10 12 13 11 16 18 18 18 20 20 20 21 21 23 26 25 30 28 29 28 27 27 26 26 26 27 28 28 28 28 26 26 23
9 6 4 7 8 8 7 4 7 12 12 16 18 20 21 22 20 20 22 22 22 20 18 18 20 20 21 27 30 28 29 29 28 28 29 30 29 29 27 26 24 21 22 20
6 3 5 7 8 8 6 9 12 15 19 23 25 25 26 26 25 24 25 24 23 20 17 17 19 18 20 23 28 29 29 31 29 31 31 31 31 29 27 25 19 20 21 18
5 9 10 8 10 12 18 20 24 28 30 33 32 31 30 28 28 30 31 28 24 22 18 16 19 20 19 19 20 25 28 30 33 33 33 34 31 29 28 22 18 20 19 16
12 15 16 14 16 19 22 25 27 30 32 32 31 30 27 26 27 26 25 26 24 22 21 18 19 19 20 22 24 27 30 33 35 36 37 36 33 31 32 22 18 19 16 15
17 17 16 20 22 20 21 25 28 30 31 32 33 31 32 32 31 28 25 24 23 23 20 18 20 22 21 21 24 26 29 32 34 38 38 32 30 31 29 21 19 20 20 19
19 17 15 15 18 20 21 24 25 26 25 24 27 27 28 27 28 26 25 25 25 24 22 21 18 23 22 22 22 22 22 28 26 24 29 34 33 27 28 29 22 21 20 19
17 15 16 19 21 23 24 25 25 25 24 26 26 26 27 28 25 25 26 25 27 26 25 26 26 25 23 21 20 21 20 20 22 19 17 21 27 26 24 29 26 22 19 18
14 15 16 18 21 23 24 24 23 24 26 27 28 31 29 26 27 27 27 27 28 30 29 30 33 30 29 24 23 23 23 21 20 19 18 17 17 19 18 27 26 25 24 23
13 14 15 18 19 21 24 26 27 27 27 26 25 27 30 32 29 29 28 27 29 30 34 34 36 34 34 29 27 25 25 23 22 20 18 16 13 13 13 16 28 26 26 28
13 15 15 16 19 22 26 30 33 34 34 32 31 29 28 29 32 32 33 32 30 30 33 36 35 37 36 35 28 26 27 26 25 23 21 18 15 13 12 11 10 11 12 14
16 16 17 20 24 26 29 34 40 39 37 37 37 35 34 32 31 32 33 33 37 33 32 32 37 37 34 38 35 31 29 29 27 26 25 23 20 19 19 18 18 18 19 19
20 20 23 28 32 36 40 44 47 41 36 37 38 37 36 35 33 32 33 34 34 27 27 27 33 35 33 38 37 33 31 31 30 27 27 26 25 21 21 20 20 22 21 21
25 29 33 38 43 49 50 48 43 40 37 36 39 38 37 35 34 32 32 32 34 30 25 25 28 34 31 38 35 30 31 32 30 29 28 27 27 27 23 23 23 24 24 25
35 40 43 47 47 45 43 39 38 38 36 37 39 39 37 33 32 32 31 29 31 34 29 30 27 28 28 24 21 23 28 30 28 27 27 27 27 27 24 25 26 25 26 28
40 43 40 38 37 34 34 34 35 36 35 35 35 34 33 31 29 28 29 28 26 31 29 31 32 33 22 19 17 19 23 24 23 22 22 22 22 24 24 26 28 30 31 32
35 34 33 33 31 31 30 31 32 33 33 32 29 27 28 27 27 26 26 26 23 26 23 20 19 25 14 15 19 22 23 21 19 18 18 18 20 23 25 27 29 30 29 28
32 32 32 30 29 28 28 30 32 31 31 30 28 25 25 25 24 24 21 22 22 24 17 9 12 12 10 15 17 17 20 20 19 20 19 19 19 20 19 19 19 18 18 18
33 33 30 28 26 27 28 30 29 28 28 30 24 23 23 22 22 19 19 17 22 24 24 17 11 10 13 15 14 15 15 14 15 16 15 15 15 14 14 14 14 13 14 14
34 32 30 27 25 26 27 27 27 26 26 27 29 20 19 19 21 20 15 16 18 21 21 19 12 12 11 13 14 12 11 12 11 12 12 12 11 11 11 12 12 11 11 12
33 32 31 28 25 26 26 26 25 30 30 29 29 28 21 19 19 17 14 15 18 18 18 14 12 10 8 8 9 9 9 9 9 9 9 9 9 8 9 9 9 10 10 11
32 32 31 30 27 24 25 28 30 30 30 30 28 31 27 21 18 16 16 16 14 18 16 13 11 9 8 8 8 7 7 7 7 7 7 8 7 7 8 8 8 9 9 10

GFSNGP_700_spd_069.txt.gz
Wind_Speed
5 4 5 7 19 20 20 21 17 20 17 14 15 14 15 17 21 26 29 31 30 27 26 24 20 18 18 19 19 21 23 23 24 26 26 27 28 29 31 32 32 32 32 33
6 4 6 10 12 19 25 23 23 22 21 24 27 26 22 26 29 27 25 24 23 22 22 23 19 19 19 19 17 18 18 19 19 20 21 22 24 25 27 28 29 31 32 32
5 4 5 9 15 16 21 21 21 23 18 21 22 22 27 28 28 27 20 19 20 21 21 20 22 21 21 21 21 20 19 19 19 20 20 21 22 23 25 26 27 29 30 31
2 3 1 3 3 8 17 17 19 21 23 25 24 22 25 20 16 14 16 18 19 21 21 20 21 22 23 23 23 23 22 21 20 20 20 21 21 22 24 26 27 28 29 30
5 7 4 7 7 9 12 14 17 19 20 19 17 14 15 15 14 16 20 19 18 19 19 19 21 23 20 24 25 26 25 24 22 22 22 23 23 24 24 25 26 28 29 29
6 3 4 3 6 7 10 12 16 15 15 14 13 13 11 14 18 20 21 21 19 18 18 18 19 22 21 20 22 27 26 27 27 25 26 25 25 25 26 27 28 28 28 27
8 5 2 7 9 8 8 5 7 12 13 14 16 18 19 22 22 25 26 26 23 20 20 19 17 17 17 17 19 21 28 28 27 27 27 27 27 28 28 28 28 27 27 25
9 5 3 6 9 10 9 8 9 11 16 21 24 27 30 31 30 29 28 28 30 27 23 20 17 16 18 17 18 21 26 28 27 27 27 29 30 29 29 29 29 27 26 24
6 5 4 6 9 9 11 15 19 23 27 30 33 34 33 31 30 28 25 24 27 27 24 21 18 17 16 18 19 19 20 25 28 29 30 31 32 32 32 32 31 29 27 25
10 11 11 16 18 18 16 19 22 24 26 29 30 31 30 29 29 29 29 28 27 25 24 21 19 17 16 16 19 21 21 22 25 29 32 33 35 35 34 34 34 28 29 30
16 17 15 19 20 19 18 19 21 23 25 27 28 27 29 27 26 24 24 25 25 24 24 23 22 17 15 17 18 20 22 23 26 30 32 33 34 37 36 33 29 28 22 22
18 15 17 18 18 19 20 21 23 25 26 27 28 27 28 27 27 27 26 24 23 24 25 26 25 20 18 19 21 21 22 22 21 21 23 24 25 26 29 29 28 22 23 21
15 16 15 16 18 20 20 20 21 22 22 23 25 26 26 28 27 25 26 26 26 26 24 28 27 25 26 23 21 24 22 21 21 21 22 22 21 20 22 25 28 27 30 26
14 15 15 17 18 18 18 17 17 18 21 23 26 28 30 29 28 29 28 26 27 25 24 25 29 29 31 27 30 25 26 26 24 22 21 20 20 22 21 22 22 20 26 25
14 15 15 16 17 18 19 22 22 25 27 28 31 33 34 34 32 29 29 29 28 28 26 27 25 29 33 30 35 31 30 27 31 24 22 22 22 21 18 17 18 18 25 29
16 17 18 19 20 21 24 27 31 33 35 38 41 42 39 38 37 34 32 31 30 28 27 26 29 31 31 37 34 32 33 31 30 26 24 24 23 21 18 15 11 10 12 23
19 20 24 24 27 29 31 35 40 45 47 47 48 44 38 36 39 39 35 33 32 30 30 29 28 28 31 33 38 35 37 32 34 29 26 26 26 24 21 19 16 13 12 13
24 27 30 32 36 40 43 44 42 40 39 37 35 35 38 40 40 41 40 37 34 32 31 29 28 28 26 29 35 40 36 34 32 33 29 28 28 27 25 23 22 22 21 19
28 30 34 37 41 45 43 38 35 35 35 36 37 36 35 36 38 39 37 37 35 34 30 29 27 27 26 24 30 29 30 33 33 33 31 28 28 28 27 26 23 22 21 22
29 34 39 40 36 33 32 31 31 31 32 34 36 36 37 34 33 33 32 31 31 31 30 28 26 26 27 28 28 30 34 32 33 34 31 28 27 29 29 27 26 23 23 25
33 30 30 30 30 29 28 28 29 27 29 33 34 37 38 32 29 28 27 27 26 26 26 25 25 24 26 28 31 29 28 25 24 21 22 22 23 24 25 24 23 25 24 25
27 28 29 31 31 30 27 26 26 28 30 31 33 36 36 29 26 25 24 25 23 23 23 22 22 22 20 24 30 32 33 27 21 20 19 20 21 21 21 22 24 25 27 29
29 31 32 32 31 28 25 25 25 28 28 30 31 33 38 30 24 23 21 20 21 19 21 21 16 17 10 16 24 24 21 22 22 20 20 22 22 22 22 23 25 26 26 27
33 34 33 31 30 28 26 25 24 25 25 24 29 31 34 36 23 18 19 19 18 19 19 20 19 16 11 12 18 12 17 17 16 20 23 21 21 21 21 19 19 18 18 17
34 35 33 32 32 31 27 25 26 25 26 25 27 28 29 33 28 19 17 17 16 17 17 15 14 16 16 11 13 10 10 14 14 14 15 16 16 16 15 15 14 13 13 12
33 34 34 32 31 30 27 26 26 25 27 29 28 28 29 29 32 22 16 14 13 14 14 14 13 13 7 11 11 13 10 9 10 12 13 14 14 12 11 11 10 10 10 9
34 34 33 29 26 27 27 27 27 26 24 24 26 26 26 27 31 25 17 15 13 12 12 14 11 12 7 7 9 9 11 11 10 9 11 11 11 10 10 9 8 7 7 8

GFSNGP_700_spd_072.txt.gz
Wind_Speed
7 3 7 8 16 18 19 18 8 8 20 19 15 11 10 12 15 18 20 23 27 30 29 28 26 25 27 28 24 22 23 23 24 26 28 30 30 29 29 29 31 32 33 34
6 4 5 7 7 17 21 20 18 16 13 17 18 20 21 22 21 21 25 27 28 28 27 26 27 26 26 27 27 23 21 20 21 21 22 23 24 24 25 26 27 28 29 30
3 4 4 7 11 12 14 21 23 23 22 21 22 22 21 22 24 27 28 27 24 23 24 24 25 26 22 24 28 27 23 23 21 20 19 20 21 21 22 22 23 24 26 27
2 3 1 2 3 8 15 16 19 20 22 22 22 24 26 26 26 23 20 20 20 22 21 22 23 24 24 23 25 28 27 25 23 22 21 21 21 21 21 21 22 23 25 26
4 7 5 3 6 6 7 14 20 20 21 22 23 24 22 19 20 20 21 21 20 20 22 22 23 25 25 23 25 26 30 26 25 25 24 24 22 23 23 23 24 25 25 27
8 3 4 5 9 9 9 16 17 19 20 19 18 19 18 18 19 20 23 27 28 28 27 26 25 25 24 22 25 24 26 28 29 30 28 26 26 26 25 26 26 25 26 27
8 5 6 10 10 10 10 8 9 13 18 21 22 23 23 23 24 28 29 30 33 33 32 29 27 25 24 21 22 22 25 29 34 32 31 31 31 28 28 28 27 27 27 28
12 6 9 12 16 15 12 12 11 13 14 16 20 23 26 30 33 35 36 36 34 33 30 28 31 29 25 22 22 22 22 25 27 32 32 32 31 31 31 30 30 29 29 29
8 7 9 7 10 11 12 12 13 16 19 23 26 28 29 29 30 31 31 31 31 31 29 29 28 29 25 24 22 24 23 23 25 29 32 31 32 32 33 32 32 33 32 32
10 13 14 14 14 15 16 16 19 23 24 23 23 24 24 25 25 25 26 26 27 28 29 28 29 27 27 24 23 23 23 22 22 22 26 31 32 32 33 34 36 36 34 32
18 19 19 19 19 21 20 19 20 21 23 25 25 24 25 23 23 24 23 24 25 24 23 22 25 27 29 25 24 22 21 21 21 23 25 28 30 33 35 35 37 37 35 33
16 16 17 19 20 20 20 22 21 21 21 23 23 23 23 23 24 24 23 23 23 24 24 23 23 25 27 26 26 22 23 22 23 24 24 24 23 24 23 25 25 28 28 30
18 18 18 19 21 22 20 21 22 21 21 20 20 23 25 26 28 29 30 29 26 24 24 24 23 23 27 27 30 26 26 21 22 22 21 22 22 23 23 23 22 23 26 28
14 15 16 18 19 20 20 21 20 21 23 24 27 29 31 33 35 36 36 37 35 30 26 26 25 22 24 28 30 33 32 33 25 23 25 24 24 23 22 21 23 22 22 26
15 15 15 17 19 21 22 24 24 27 29 32 36 40 42 43 46 47 46 42 40 37 33 30 27 26 26 27 30 32 34 37 32 31 31 27 27 25 22 22 20 19 19 23
17 19 19 21 22 25 28 30 34 38 41 43 45 46 48 49 51 50 47 45 45 42 37 35 32 28 28 28 29 30 35 36 36 38 34 30 27 27 23 21 20 17 16 17
20 21 22 24 27 30 32 35 39 42 42 39 37 35 35 36 37 42 44 44 46 47 43 40 36 33 31 31 30 30 31 37 42 39 36 33 31 28 25 23 22 21 18 16
20 23 26 29 33 35 37 39 38 34 34 34 35 34 32 32 33 34 38 41 42 42 41 41 40 37 33 32 31 30 30 31 37 42 38 37 34 32 29 26 25 23 23 21
22 25 29 33 37 37 35 34 32 32 32 33 34 32 32 34 35 39 34 35 36 35 31 34 34 34 33 33 31 29 29 30 30 31 38 37 37 33 33 29 27 27 25 25
27 32 34 32 30 30 31 31 31 30 30 32 33 32 33 36 36 42 35 30 29 31 30 28 29 29 30 31 30 30 27 27 30 31 27 32 37 32 33 31 29 27 28 27
29 29 29 29 29 29 29 29 30 30 29 31 32 32 33 34 33 39 36 31 26 27 28 27 27 27 27 27 29 29 30 29 26 26 30 31 32 32 32 32 30 28 27 28
28 28 29 31 32 31 28 28 30 31 30 30 31 31 30 30 32 37 36 29 26 25 25 25 26 26 24 23 25 26 30 30 27 26 26 27 28 27 27 26 23 22 23 26
30 32 33 34 34 33 30 29 32 32 30 29 30 30 31 32 32 35 39 28 25 24 22 21 20 22 20 18 20 24 28 29 29 29 27 27 27 27 25 25 24 24 24 26
36 35 35 35 35 36 36 34 34 34 33 31 29 29 31 33 30 30 35 29 25 23 20 19 18 16 18 19 20 20 20 23 21 24 29 29 25 23 23 24 25 26 27 30
37 37 36 36 36 35 35 35 33 32 32 32 31 29 28 26 30 31 33 29 21 20 17 15 15 15 15 16 20 15 14 16 16 16 22 24 25 23 23 26 26 24 23 22
37 36 36 36 35 35 35 36 36 33 32 31 29 27 26 25 26 28 30 28 20 20 17 14 11 11 14 13 8 9 11 9 15 16 18 19 21 17 18 18 17 17 18 17
35 38 38 37 35 34 34 34 34 31 30 29 28 24 24 24 24 25 26 26 17 13 15 12 9 10 9 2 5 6 7 8 10 11 12 14 13 13 13 12 13 15 15 14

GFSNGP_700_spd_075.txt.gz
Wind_Speed
8 4 5 6 12 12 12 9 4 5 8 17 14 11 10 9 11 13 16 19 22 25 27 28 28 27 27 27 26 27 28 30 30 30 30 29 30 31 32 33 33 33 32 32
7 5 5 5 7 14 16 15 14 12 13 20 18 13 13 17 19 21 22 24 27 30 32 32 31 30 29 27 27 29 29 27 29 28 26 26 28 28 27 27 27 27 28 28
4 3 2 4 10 11 14 19 19 20 18 18 24 24 24 25 24 24 26 28 28 28 28 28 27 28 29 28 27 30 30 29 28 29 25 23 24 24 24 25 24 24 24 24
3 4 0 4 5 7 13 14 17 22 23 23 23 26 26 26 26 28 29 26 25 25 25 26 25 25 25 27 27 28 30 30 29 29 26 24 24 22 23 24 24 23 23 23
1 5 7 6 8 6 8 13 18 17 17 17 19 22 23 24 25 23 22 23 24 25 24 24 26 27 25 24 27 27 28 30 30 29 30 28 26 25 25 25 25 25 24 25
3 1 4 3 9 11 11 14 14 16 17 17 19 20 17 19 20 21 23 25 26 27 27 28 30 32 30 29 27 26 28 29 30 32 33 32 30 30 29 27 28 27 27 27
7 5 6 9 8 8 6 4 5 7 13 17 18 21 22 24 25 28 30 32 34 34 34 35 34 34 32 31 30 27 26 29 32 35 35 34 35 34 32 31 30 30 29 29
8 5 7 6 11 13 9 10 13 12 12 14 17 20 24 27 30 32 34 35 36 37 36 34 34 35 30 28 30 30 26 27 31 33 33 35 37 36 36 36 35 33 33 31
7 5 8 7 8 13 15 16 16 17 20 22 24 27 29 29 28 29 29 29 30 32 31 30 31 34 31 29 29 29 28 27 30 31 30 32 34 36 37 37 36 35 35 35
11 12 15 14 14 15 17 19 22 22 24 27 26 25 26 28 29 29 29 30 29 28 29 27 28 29 32 30 30 29 28 29 29 31 31 30 32 34 35 35 35 37 38 35
17 18 18 19 19 21 22 24 25 24 26 27 27 27 27 26 25 25 25 24 25 25 26 26 27 28 28 28 30 29 29 29 28 29 31 31 29 27 30 32 34 35 36 39
18 18 18 19 21 23 24 26 26 27 27 27 28 27 26 24 24 25 26 27 28 29 29 28 28 28 28 29 31 29 28 27 27 29 28 28 29 29 29 30 32 32 31 30
20 20 20 21 21 22 23 25 25 27 28 27 28 30 30 30 31 33 35 35 36 37 37 37 34 32 29 31 31 33 31 31 29 30 30 27 28 28 27 27 26 27 27 27
16 18 19 20 21 22 23 25 26 27 29 31 33 34 37 40 41 43 44 44 46 46 45 46 45 39 34 32 33 32 35 35 32 35 31 28 27 27 25 24 24 22 22 24
16 17 18 19 21 24 25 26 28 30 33 35 38 40 40 40 40 40 40 43 48 49 44 41 42 40 39 36 33 33 34 36 36 40 36 33 30 29 27 26 25 24 23 21
16 18 20 21 23 25 26 28 33 34 36 37 37 36 35 36 36 36 35 35 38 44 49 45 43 39 38 38 37 34 33 35 36 38 38 38 33 33 31 33 28 26 25 21
16 18 20 22 25 27 30 33 36 38 36 33 33 33 34 34 34 33 32 33 34 40 44 45 39 39 37 35 37 37 35 34 36 38 39 37 36 36 38 31 26 27 26 24
17 20 23 26 29 32 34 34 33 31 31 32 33 32 32 32 33 32 32 35 38 44 35 42 40 35 33 31 33 35 36 34 34 36 38 39 40 39 34 33 32 29 28 27
21 24 28 31 34 35 34 33 33 32 32 32 32 31 32 32 33 34 34 35 38 44 34 34 34 33 30 29 30 31 32 33 33 34 35 35 36 37 37 36 36 33 31 30
25 28 31 33 32 32 33 34 34 34 32 32 33 33 34 34 35 33 32 35 36 43 35 30 29 28 27 27 29 29 29 29 30 31 32 32 32 30 35 35 35 34 33 32
27 29 31 32 33 33 34 35 35 34 33 33 35 36 37 36 35 33 33 35 36 42 33 26 27 28 26 26 26 27 27 27 28 29 30 28 30 30 29 30 32 32 31 31
29 32 32 34 36 35 34 34 35 35 36 37 36 36 37 36 36 35 33 36 38 40 35 28 28 27 25 23 24 24 25 25 26 28 30 29 28 27 31 29 30 29 29 29
33 35 37 38 37 37 37 37 38 37 36 36 35 34 35 36 35 35 35 33 36 40 35 28 26 23 22 21 20 20 21 22 23 26 29 29 29 25 26 27 28 29 28 27
37 38 39 38 37 37 39 39 39 37 37 36 36 34 33 34 33 30 31 32 33 37 32 26 25 23 21 20 19 19 19 17 18 21 25 29 29 25 23 23 26 28 28 27
39 38 37 38 40 41 42 42 41 39 38 36 36 32 31 29 31 29 29 30 31 35 30 26 24 20 19 17 15 15 17 16 14 17 21 25 28 28 22 19 20 23 23 22
40 37 38 39 40 42 43 42 42 40 40 38 34 30 27 25 26 26 28 28 30 32 23 21 18 12 11 11 11 13 14 14 14 15 13 15 19 21 26 22 21 22 22 22
36 37 39 40 40 42 42 42 41 38 35 35 33 27 24 22 21 23 24 25 25 28 18 16 15 12 11 9 6 5 3 7 9 13 15 11 12 13 16 19 20 18 18 17

GFSNGP_700_spd_078.txt.gz
Wind_Speed
5 3 5 8 8 8 6 5 2 5 5 11 14 13 11 10 10 10 10 13 16 18 21 24 27 28 28 26 25 25 28 30 32 33 31 30 30 32 32 33 34 35 35 35
6 4 2 2 7 11 10 9 9 4 10 11 15 16 15 13 11 13 16 19 21 23 26 29 31 30 27 26 26 26 25 26 29 30 31 29 28 28 29 30 31 31 31 31
1 1 1 3 6 7 10 14 14 14 12 12 15 18 17 17 20 22 22 23 26 27 27 27 28 28 26 25 25 24 25 26 27 28 29 29 29 28 26 26 27 27 27 27
1 1 1 2 4 7 12 12 13 16 16 16 18 20 22 23 22 23 24 26 27 27 26 26 26 27 26 26 26 25 23 24 27 29 28 29 29 28 26 24 25 25 25 25
2 3 8 5 5 6 7 8 12 14 14 14 16 17 19 20 22 24 27 27 27 27 26 26 28 29 29 27 28 28 27 25 25 28 30 30 29 29 29 29 28 27 27 25
1 1 2 2 4 6 8 11 10 11 12 14 15 18 19 22 23 23 25 27 29 30 30 31 33 36 35 32 32 31 30 28 26 26 29 32 32 32 33 32 31 30 29 28
4 3 5 6 8 6 4 3 5 4 7 12 15 17 19 21 22 25 28 30 32 33 34 35 36 37 36 35 35 34 32 30 28 26 27 30 32 35 36 35 34 33 32 30
6 5 6 3 6 7 8 10 12 14 14 13 15 18 21 25 27 30 31 30 30 30 29 30 31 32 32 31 32 33 32 30 30 29 27 29 32 33 35 37 37 37 36 34
7 4 5 8 9 10 11 14 16 16 18 20 24 27 29 31 31 30 30 29 29 29 27 28 29 30 31 30 29 31 33 32 31 30 28 29 30 31 33 34 37 38 38 37
10 10 12 13 14 15 15 18 20 22 25 27 29 30 30 31 31 29 29 29 28 26 25 23 22 23 27 29 29 29 30 33 32 30 29 29 32 33 33 33 33 35 36 36
15 15 17 17 17 19 20 22 25 27 29 29 30 31 30 30 30 29 29 29 29 28 29 29 28 27 28 29 28 28 29 31 32 30 27 29 30 31 32 32 32 32 33 34
18 17 18 19 19 21 24 25 27 28 29 31 31 31 33 31 30 31 32 33 35 37 37 38 38 37 35 34 35 33 30 30 31 29 27 29 30 29 29 30 30 29 29 31
18 19 19 20 21 23 24 26 26 27 29 30 32 34 35 34 34 35 37 40 42 44 43 44 46 46 44 42 41 38 37 33 31 32 32 36 33 31 30 29 30 29 29 29
17 18 19 21 22 23 24 25 26 28 29 32 33 34 38 37 36 38 38 38 39 40 40 41 43 42 41 43 42 40 39 37 34 31 33 32 34 29 32 29 27 26 27 26
16 17 19 21 22 24 26 27 28 29 33 35 37 39 38 37 37 35 33 33 33 33 33 32 34 39 44 38 37 38 39 38 37 34 33 35 40 32 33 31 31 26 25 24
16 17 20 22 23 25 27 30 32 34 36 37 36 34 34 35 34 32 31 32 34 32 31 35 37 40 40 46 36 35 37 37 37 36 33 34 37 38 35 32 30 30 28 23
17 20 22 24 26 28 31 33 36 39 36 34 35 35 35 34 33 32 31 31 31 32 33 35 38 44 42 42 39 32 34 35 36 36 36 33 34 38 37 33 31 32 30 26
20 22 24 27 29 32 33 34 34 34 34 35 37 36 35 34 34 33 31 32 32 31 32 35 37 43 38 37 35 30 32 31 33 35 34 34 33 34 35 38 35 34 31 30
21 24 27 30 32 34 35 35 35 36 37 38 38 36 34 34 34 34 33 32 32 33 32 35 37 42 36 31 29 28 29 28 30 32 32 32 32 32 33 35 38 38 32 31
25 27 30 32 33 35 35 36 37 38 37 36 36 36 36 35 35 35 35 34 33 34 34 36 37 41 33 28 26 26 26 25 27 29 30 30 29 29 29 30 33 38 39 40
26 29 31 34 35 35 37 38 38 38 37 36 38 37 36 35 34 35 36 35 31 32 33 35 36 40 32 27 25 23 24 23 24 26 28 29 27 25 25 25 28 28 38 34
28 31 33 35 38 38 37 37 37 38 38 38 38 36 37 36 34 34 34 34 31 31 32 33 35 37 31 27 24 21 21 21 21 22 24 27 26 24 22 22 25 24 26 29
32 34 36 37 39 39 38 38 40 41 42 40 39 37 37 36 34 35 33 29 28 28 30 33 36 36 31 28 24 21 21 20 19 20 20 23 24 23 23 22 21 21 26 27
36 37 39 40 38 38 39 41 41 41 41 40 38 36 37 35 33 29 29 27 26 28 28 33 36 31 31 27 22 19 18 17 16 16 16 17 20 22 23 21 21 20 22 24
40 41 37 36 38 40 42 44 44 43 42 39 36 32 28 28 31 28 24 22 23 25 26 29 33 26 27 22 17 15 14 14 15 14 14 14 17 20 21 20 19 18 20 19
38 34 36 39 42 44 45 46 45 43 41 37 31 28 24 23 23 24 22 21 22 23 25 28 25 22 21 17 13 12 11 10 12 13 12 12 13 16 19 20 19 15 14 15
33 37 40 40 39 40 39 38 39 37 34 31 28 24 21 19 18 18 17 17 20 20 22 27 19 18 17 13 11 8 6 7 9 10 10 10 10 10 14 18 22 20 16 16

GFSNGP_700_spd_081.txt.gz
Wind_Speed
8 7 5 6 6 4 2 3 2 3 3 10 15 13 11 10 10 9 9 9 11 13 15 16 17 19 22 25 27 26 26 27 29 30 31 31 31 30 30 30 31 33 32 33
8 6 4 5 4 3 2 2 1 3 4 8 11 13 13 12 12 11 12 13 15 16 19 21 23 24 25 24 23 23 23 25 26 27 28 30 30 30 30 30 30 32 34 35
2 3 3 3 2 2 4 5 5 6 5 8 11 13 13 13 14 16 18 20 21 23 25 26 27 26 25 24 24 24 23 24 25 26 28 28 29 30 30 29 29 30 31 32
3 1 3 2 2 2 4 5 4 5 7 8 10 14 16 18 22 24 25 26 27 27 27 27 26 26 24 24 25 25 26 26 26 25 25 27 28 28 28 28 28 28 28 28
2 2 3 3 2 3 3 3 3 6 8 8 10 14 18 20 21 22 24 26 27 27 27 28 29 29 29 28 28 29 29 28 28 28 27 27 28 27 28 29 29 28 28 27
1 2 1 0 2 2 4 3 4 6 7 7 9 12 16 19 21 24 26 27 27 28 29 30 32 32 32 33 33 33 33 32 31 30 29 28 27 28 29 29 30 31 30 28
3 3 4 5 5 5 2 1 4 5 7 9 11 14 16 17 20 23 26 28 30 31 32 32 31 31 31 31 31 31 31 32 31 31 30 30 29 29 30 30 32 32 32 31
5 5 4 1 3 3 5 8 11 13 14 14 14 17 20 23 26 29 30 31 30 28 28 29 30 30 31 31 31 30 30 30 29 30 29 28 29 30 31 31 31 31 32 34
6 3 4 5 7 10 11 12 14 15 17 20 22 25 27 30 32 33 33 32 30 28 26 25 26 26 25 25 26 27 28 27 29 29 30 29 28 29 30 31 30 30 31 33
8 7 9 10 11 13 15 16 19 21 23 26 28 30 33 34 35 35 33 30 28 28 29 30 30 30 30 29 28 26 25 25 25 27 28 29 28 29 31 33 32 30 31 32
13 13 14 14 14 15 17 19 21 24 27 30 31 32 33 33 33 33 31 29 32 35 36 37 38 38 39 38 37 35 32 29 27 27 26 29 29 25 30 31 33 34 33 33
17 15 15 17 17 18 20 22 23 26 28 31 32 33 34 32 31 31 30 33 35 37 40 41 41 40 40 42 43 42 41 39 36 32 28 28 30 28 29 29 30 31 31 30
15 15 16 17 19 20 22 24 27 29 31 32 34 35 35 34 33 34 35 37 38 38 39 40 40 39 38 38 40 42 44 42 41 38 34 30 30 30 32 30 27 29 28 29
15 17 18 19 20 21 24 26 28 30 33 34 33 34 36 37 37 36 36 35 34 33 31 30 30 30 32 35 37 37 37 39 40 39 37 34 32 31 34 31 31 33 32 31
13 15 17 19 21 24 27 29 29 31 33 34 35 37 38 36 35 35 34 34 32 30 29 29 30 29 31 30 31 35 43 40 31 35 38 38 35 33 30 39 30 28 31 32
15 16 18 22 25 27 29 31 32 34 36 37 35 34 35 35 36 35 33 32 31 29 30 31 31 31 31 32 33 36 36 40 31 28 34 36 37 35 34 34 38 37 27 28
15 19 22 25 27 29 32 34 36 37 37 36 36 37 37 36 35 32 30 31 30 29 30 32 31 31 31 32 34 37 36 33 32 26 32 33 35 36 33 35 35 34 32 26
20 22 24 26 29 32 33 34 36 38 38 39 39 39 37 36 35 33 32 33 32 30 30 31 32 32 31 32 33 37 35 30 28 27 31 32 32 34 34 34 34 34 32 27
21 24 26 28 31 34 35 37 39 40 40 40 40 39 37 36 36 36 35 35 34 32 30 31 30 31 30 30 33 36 32 28 26 28 31 30 29 31 32 32 32 33 35 35
23 26 28 30 34 37 38 40 42 41 39 39 39 38 39 37 37 36 35 35 32 31 33 30 30 32 30 30 33 31 28 27 27 29 28 27 26 27 29 29 29 29 32 34
26 29 32 34 36 37 40 42 43 41 38 38 40 41 42 40 38 36 36 36 29 29 31 31 29 30 30 31 33 28 26 25 25 25 24 24 23 25 27 28 27 26 26 30
29 31 34 37 40 41 41 40 40 41 42 42 43 42 42 40 37 35 33 32 29 30 29 26 25 27 29 32 30 28 26 23 22 21 22 22 20 21 24 24 22 22 24 24
31 35 37 39 40 38 37 39 40 41 42 42 41 40 39 35 33 32 29 24 25 23 23 22 23 24 27 32 28 28 25 21 20 19 18 18 17 17 20 21 20 19 20 21
34 37 37 35 37 40 40 38 39 39 40 38 37 35 33 31 26 25 25 25 23 21 18 18 20 23 28 26 26 24 21 18 16 16 15 15 14 14 17 20 19 17 17 15
35 35 34 36 38 37 37 38 40 41 40 35 32 29 26 24 25 24 21 20 19 17 16 17 21 23 25 22 23 21 17 14 13 12 13 13 12 12 15 18 18 16 14 14
33 32 34 36 36 37 38 40 40 39 40 36 29 26 22 19 19 19 18 18 15 15 16 18 21 23 18 19 18 17 13 10 9 9 11 11 10 11 14 17 17 15 12 13
32 34 33 32 33 34 37 37 37 36 36 34 27 22 18 15 14 14 14 13 14 14 17 20 20 17 16 15 12 14 11 8 7 7 9 10 10 10 13 16 17 17 13 12

GFSNGP_700_spd_084.txt.gz
Wind_Speed
8 4 3 2 2 4 5 9 7 8 8 15 16 13 10 9 8 8 8 8 9 10 12 15 16 18 19 21 23 24 26 27 28 28 29 30 31 33 33 33 31 31 31 31
10 4 5 3 2 3 4 5 7 6 7 10 12 12 11 11 12 12 13 15 16 17 19 21 22 24 26 28 28 27 26 26 27 28 29 31 32 33 33 33 33 32 32 31
3 4 3 4 3 2 1 1 2 2 3 7 9 11 13 14 15 15 16 18 20 23 25 28 30 31 31 31 30 29 28 28 27 26 26 28 29 30 32 33 33 32 32 32
4 4 2 1 1 3 3 4 4 5 6 8 11 14 15 16 17 19 22 25 28 29 30 30 29 28 27 28 28 29 29 30 30 29 28 28 29 30 30 31 32 32 32 32
2 1 3 3 2 1 1 2 3 5 8 10 13 16 18 20 22 25 26 27 29 31 32 32 31 30 29 28 29 30 31 32 33 33 32 32 30 30 31 31 32 31 31 32
1 2 2 4 2 0 1 3 3 3 5 6 9 12 15 18 21 23 25 27 28 30 31 32 33 33 33 32 31 30 29 30 31 33 35 35 35 33 32 32 32 33 33 32
2 3 2 5 3 2 1 2 3 3 4 6 9 12 15 17 20 22 24 27 30 32 34 34 32 31 30 31 32 32 32 32 31 30 31 33 35 36 34 34 33 33 34 33
2 2 1 3 2 1 3 6 8 9 11 12 13 15 18 22 26 29 30 32 34 33 32 31 30 29 29 31 31 32 32 31 30 31 32 31 32 34 34 34 34 34 34 34
4 3 3 5 6 9 11 11 12 13 15 17 20 23 25 28 31 33 34 34 33 30 26 27 30 32 32 32 32 32 31 30 29 28 27 30 30 31 33 34 35 34 33 34
7 4 7 9 11 13 15 16 17 18 20 22 25 28 31 32 34 36 34 31 29 27 31 33 35 37 39 39 39 38 38 36 34 33 30 27 27 28 30 32 34 35 34 33
11 10 12 13 13 14 16 18 20 21 24 27 30 31 33 35 36 36 34 33 34 36 37 37 38 39 41 42 42 41 41 40 40 38 37 35 32 28 29 28 31 33 35 37
17 13 13 13 14 15 18 20 22 24 27 31 32 34 36 35 35 35 36 37 38 39 41 41 41 41 40 41 41 41 41 40 40 42 41 39 39 35 32 30 28 32 35 37
10 11 12 14 16 18 20 22 25 27 30 32 35 37 37 38 38 39 39 40 40 40 39 38 38 36 36 35 35 34 35 37 37 35 37 38 41 41 38 34 32 32 33 32
14 14 15 16 18 20 22 25 28 31 33 35 36 38 40 41 39 38 38 38 39 37 35 35 33 31 32 33 34 34 35 37 40 39 35 32 35 38 41 39 36 32 37 33
11 13 15 16 19 23 26 28 30 33 34 36 38 40 39 39 39 38 38 38 39 37 33 32 31 30 31 32 34 35 35 35 36 39 41 35 30 34 37 40 39 38 36 34
13 14 15 19 23 26 28 30 33 34 36 37 38 38 39 39 40 39 37 36 37 33 32 31 31 31 33 34 34 35 34 33 33 35 38 38 28 30 34 37 40 39 37 34
14 15 20 23 25 28 30 33 36 36 38 39 39 40 40 40 39 38 36 35 36 35 34 33 33 33 34 34 34 34 34 33 33 35 37 35 30 27 34 33 36 40 39 32
16 20 22 24 27 29 32 34 37 39 40 40 42 41 40 39 39 38 37 37 36 35 33 32 34 35 34 33 34 33 31 31 32 35 33 31 30 29 32 33 33 37 36 36
19 21 23 26 29 31 34 36 39 41 40 41 41 39 39 40 41 42 42 41 38 37 32 31 33 35 34 32 32 32 31 31 32 32 30 30 30 30 30 31 31 33 35 34
20 22 25 27 31 35 38 39 41 39 38 40 41 42 43 45 44 44 43 41 37 35 34 33 33 32 32 28 34 31 30 31 31 30 29 29 30 29 28 28 29 30 32 31
21 24 27 31 33 36 38 39 38 39 40 41 42 43 45 45 44 42 41 39 33 32 31 29 29 29 29 30 29 28 29 31 29 29 29 27 25 25 25 25 26 28 28 31
23 26 31 34 35 33 34 36 37 38 40 41 42 43 42 40 38 37 33 30 26 23 24 24 23 22 23 23 24 25 29 28 29 28 27 25 23 22 22 22 23 26 27 28
26 30 33 33 32 33 34 35 36 39 40 42 42 41 39 35 32 31 27 20 21 20 21 20 18 18 19 21 22 26 25 26 26 24 22 20 19 18 17 18 20 22 22 25
29 31 31 31 33 33 33 34 35 38 39 39 38 38 35 31 24 23 22 20 19 18 16 15 15 17 19 21 24 22 23 24 22 19 16 15 14 14 14 15 17 18 18 19
29 29 29 31 31 31 32 34 36 35 34 35 33 28 24 23 22 19 18 17 16 15 14 15 17 19 21 21 18 19 18 18 16 15 13 12 11 11 12 14 16 16 16 17
27 28 30 30 30 30 31 33 33 33 32 29 28 25 22 19 18 18 17 16 15 16 17 18 21 20 18 16 15 12 16 15 13 11 10 9 10 9 11 14 16 18 15 15
27 28 28 28 28 29 30 31 29 27 25 24 24 23 22 20 19 18 18 17 18 19 19 20 17 17 15 14 12 13 12 13 10 9 7 7 7 8 11 14 17 18 15 13

GFSNGP_700_spd_087.txt.gz
Wind_Speed
6 5 4 5 8 10 13 10 10 7 8 8 9 9 7 6 5 5 4 3 3 4 6 9 11 14 16 18 20 22 23 24 24 24 25 28 29 29 30 31 33 33 33 32
7 5 4 4 4 5 7 9 9 8 7 8 11 9 7 7 7 7 6 8 10 12 14 16 18 22 25 27 29 31 31 30 29 28 28 29 30 31 31 31 31 33 35 36
2 2 2 1 3 3 3 3 5 1 3 5 8 10 10 9 10 12 14 16 18 20 22 24 26 28 30 31 31 31 31 31 30 29 29 29 29 30 30 31 32 32 33 35
3 3 2 2 2 1 1 2 3 5 6 8 11 13 12 14 16 18 19 20 22 25 27 29 31 32 33 33 33 32 32 31 32 32 31 31 31 31 31 31 31 32 33 34
3 4 3 5 3 2 1 5 4 7 8 9 11 13 15 18 19 22 24 27 30 31 30 30 30 30 30 31 31 32 33 33 34 35 34 34 35 34 33 33 32 32 33 33
3 3 2 3 1 1 2 3 4 6 8 8 9 10 14 18 20 24 26 29 32 33 34 35 37 36 34 32 31 30 30 31 33 34 34 34 34 34 35 35 35 35 35 34
4 4 4 6 6 3 1 3 5 6 7 8 10 13 17 20 22 24 27 30 33 36 39 40 40 39 36 33 31 29 29 30 33 34 35 36 36 35 34 33 35 36 36 36
2 3 3 4 3 3 5 7 10 12 13 14 16 18 20 23 26 29 32 35 38 40 41 40 40 38 34 33 34 35 35 34 32 32 33 32 32 32 34 35 34 35 36 37
5 5 6 7 9 10 12 14 13 15 16 18 20 23 25 28 31 34 37 39 41 42 41 39 38 37 37 39 40 40 40 40 39 38 37 36 35 33 30 30 33 34 36 36
9 8 8 10 11 13 15 16 16 17 19 22 24 27 30 33 36 38 40 42 41 41 40 40 40 40 42 43 43 44 43 42 42 42 40 39 39 39 37 32 30 33 36 36
13 14 14 13 13 15 15 17 19 21 22 25 28 31 33 36 39 40 41 41 41 41 42 42 43 44 45 45 46 45 44 42 40 39 40 40 39 40 41 39 35 32 33 33
13 14 14 15 15 15 17 19 21 23 26 28 31 34 37 38 40 41 42 42 44 43 44 44 42 42 40 40 40 40 39 37 36 34 33 34 35 35 36 42 41 39 36 36
12 12 13 15 16 17 20 22 23 26 29 32 35 37 39 40 41 42 42 43 43 43 43 42 42 41 38 38 37 36 35 34 34 34 34 35 34 34 34 33 39 43 42 38
17 16 16 16 17 19 21 24 27 30 33 35 37 39 42 43 43 43 44 44 43 43 43 41 41 38 36 36 35 34 35 35 35 35 36 37 37 35 32 33 34 37 41 42
12 14 15 17 18 20 24 27 30 33 35 37 40 42 43 45 45 45 44 43 44 42 41 38 37 34 33 35 36 35 35 36 37 36 36 37 37 37 35 32 31 34 37 41
14 16 18 17 20 24 27 29 32 34 37 40 42 44 46 46 46 45 44 42 43 43 39 38 38 36 34 36 36 37 37 36 36 36 36 36 37 36 35 36 29 32 33 36
20 19 17 19 23 26 28 31 34 37 40 42 45 46 46 45 45 44 44 43 44 44 43 43 42 38 37 36 37 38 38 37 35 34 34 35 36 36 36 37 30 29 32 31
19 16 19 22 24 26 29 33 36 40 43 44 44 44 45 46 47 47 47 48 48 46 42 40 39 37 35 34 35 37 37 36 35 34 33 34 34 35 35 34 30 29 31 29
16 18 20 22 24 27 31 35 39 41 41 42 43 44 45 47 48 48 48 48 46 44 38 35 33 33 33 33 33 34 33 32 33 34 34 33 33 33 33 31 30 28 31 28
16 18 19 22 26 30 35 38 39 39 40 41 42 43 45 47 46 46 44 42 38 35 32 29 27 26 27 27 26 27 30 32 33 34 32 34 32 32 30 28 28 27 27 26
17 18 19 23 28 34 36 37 38 37 38 39 42 45 46 45 43 40 37 34 28 25 23 22 22 22 23 23 23 24 25 26 27 29 33 31 31 30 28 26 25 24 25 25
17 19 22 27 30 32 34 34 35 35 37 40 42 42 42 39 34 29 27 26 24 22 21 20 20 20 20 20 21 21 22 25 27 30 29 30 29 27 24 22 22 22 23 23
18 21 25 28 29 31 31 31 33 35 37 38 38 37 33 28 28 26 22 20 20 19 20 19 19 18 19 20 21 23 24 26 26 27 28 26 23 21 18 18 18 19 20 19
21 24 26 27 28 29 29 30 31 33 33 33 31 29 27 23 21 23 23 22 21 20 19 19 20 20 22 23 24 24 22 21 22 24 22 20 17 15 14 14 14 15 15 15
23 24 25 27 27 27 28 29 29 29 29 25 23 22 23 23 23 23 23 22 22 22 22 23 24 24 23 22 21 20 20 18 21 21 18 15 13 12 10 11 11 10 11 12
23 24 25 25 26 26 27 27 26 25 23 20 19 19 19 20 21 23 24 25 26 26 26 24 22 22 21 20 19 18 17 19 18 17 14 11 9 8 9 9 7 9 10 10
23 24 24 24 25 26 26 24 24 23 20 17 18 17 17 19 22 24 26 27 27 26 25 20 20 20 21 20 20 19 15 14 15 13 10 7 5 5 5 5 7 9 9 7

GFSNGP_700_spd_090.txt.gz
Wind_Speed
4 4 5 8 11 12 19 15 14 10 10 8 7 8 9 7 8 7 6 6 5 4 5 5 7 9 11 14 16 18 20 21 22 22 23 24 25 26 27 30 31 33 35 36
6 6 5 6 6 5 7 12 13 15 16 7 10 9 5 4 4 5 5 5 6 8 10 13 15 17 20 22 25 27 28 29 29 28 28 29 29 30 31 31 33 35 36 38
2 4 3 4 5 4 4 4 5 5 7 10 9 6 7 6 8 8 9 12 14 16 18 21 23 26 28 30 31 30 30 29 29 29 29 30 31 32 33 33 33 33 34 35
5 6 1 3 3 2 1 1 2 3 2 4 6 8 9 10 12 14 16 19 21 23 25 28 30 31 31 31 31 31 31 31 30 29 29 30 31 32 33 35 36 35 33 33
3 6 5 3 3 2 1 4 3 4 5 6 7 8 11 11 13 15 17 20 21 23 25 28 29 30 31 34 35 36 35 34 34 34 34 33 31 31 32 34 36 37 38 36
3 3 2 4 2 1 3 4 3 4 5 5 7 10 11 12 15 18 20 22 25 27 28 29 30 32 33 33 34 33 32 31 31 34 35 36 36 35 34 35 34 35 38 39
5 4 6 8 6 6 2 2 5 7 9 11 13 13 15 17 20 22 25 28 31 34 37 39 40 37 33 31 30 28 27 30 33 36 37 38 38 36 33 32 33 34 34 36
3 4 5 5 5 4 5 8 11 12 13 15 16 18 19 22 24 27 29 32 36 38 40 42 42 42 40 38 37 35 34 35 36 38 39 40 41 40 38 35 32 31 33 34
6 6 8 10 12 12 13 14 13 14 14 17 19 21 23 25 28 31 34 37 39 41 42 42 43 44 44 43 44 43 42 42 42 42 41 41 40 41 42 41 38 35 33 32
11 8 11 11 12 13 14 15 15 16 18 20 22 25 27 30 34 36 38 41 43 44 45 45 44 45 45 46 46 46 45 44 41 40 41 41 41 41 40 39 39 39 38 36
18 15 16 15 14 14 14 16 17 19 21 23 25 27 30 33 37 40 42 44 45 47 47 47 46 46 45 44 44 44 44 41 39 37 36 35 34 35 36 35 35 37 39 39
23 16 15 13 14 16 16 17 19 21 23 25 28 31 34 36 39 42 45 47 48 49 49 48 47 46 44 41 41 41 41 39 37 36 33 31 31 29 29 31 30 31 34 38
10 10 14 15 16 17 18 19 20 23 26 29 32 35 38 41 42 45 47 49 49 48 47 47 46 44 42 40 39 38 37 36 35 33 32 31 30 31 31 26 29 29 30 34
22 21 20 18 18 19 20 20 22 26 29 32 34 37 41 44 46 47 48 48 48 48 47 47 45 43 40 38 38 37 36 35 34 34 33 32 32 32 33 34 33 27 28 31
20 19 18 16 17 19 19 21 25 28 31 33 37 41 44 47 47 46 47 47 48 48 48 48 46 43 40 40 40 38 36 35 35 36 35 35 34 35 34 34 34 34 26 27
12 13 15 17 18 18 21 25 27 29 32 35 40 43 45 46 46 47 47 48 50 51 50 49 48 45 43 41 39 37 35 34 35 35 35 35 34 34 34 33 32 32 31 25
16 17 18 19 17 20 24 26 29 32 34 38 41 42 43 44 45 47 48 49 49 48 46 43 44 42 38 34 33 32 31 30 31 32 33 33 32 32 33 33 32 31 30 28
22 21 19 17 19 22 25 27 30 34 37 39 39 40 42 43 46 49 50 50 47 44 39 36 33 32 30 28 27 28 29 28 28 28 28 31 30 29 31 31 30 30 29 28
19 17 16 19 20 22 25 29 32 34 36 37 38 39 41 44 47 47 46 40 36 34 30 28 26 23 22 21 21 22 22 23 25 27 27 30 29 31 31 31 31 30 29 26
13 16 17 19 20 23 27 31 31 33 34 35 36 38 40 41 41 37 34 30 30 29 28 26 24 22 22 22 20 20 20 22 24 25 27 28 28 29 31 30 29 29 28 25
14 16 17 19 21 26 29 30 30 31 32 33 34 36 37 35 31 30 28 26 25 25 24 24 24 23 22 22 21 20 20 20 20 21 24 25 28 30 29 29 28 27 26 23
15 16 18 20 24 28 29 29 29 30 31 30 31 32 29 26 24 24 26 27 26 26 25 24 24 23 24 24 23 23 23 23 23 24 26 28 29 29 28 27 25 23 21 20
15 16 19 23 26 27 29 28 28 28 28 28 28 25 23 24 24 25 24 26 27 27 28 27 27 27 27 26 25 25 24 24 24 23 23 24 25 25 23 20 17 16 16 16
17 18 22 25 26 27 27 26 26 27 26 26 25 23 21 19 21 25 26 28 30 30 29 29 27 25 25 25 24 23 23 22 22 21 22 24 23 20 17 14 12 12 12 13
18 20 23 25 26 26 24 24 25 25 24 24 23 22 21 21 23 25 27 29 31 30 28 26 23 24 24 24 24 24 23 22 21 21 21 21 18 15 12 9 8 9 9 9
19 22 24 25 25 24 23 23 23 22 22 22 22 21 20 20 22 24 26 29 31 31 29 25 22 23 24 25 25 24 23 20 20 20 20 17 13 9 7 7 7 6 5 4
21 23 24 25 24 22 22 22 22 21 21 21 20 20 19 19 21 24 26 27 29 30 27 25 22 22 23 24 24 24 23 22 20 19 17 13 9 6 5 4 2 1 1 2

GFSNGP_700_spd_093.txt.gz
Wind_Speed
4 5 4 6 8 13 14 9 6 9 8 7 8 10 10 10 11 11 10 9 7 4 2 1 3 6 8 11 13 14 16 18 20 22 23 25 27 28 29 30 32 32 33 33
4 5 4 5 7 6 12 15 11 6 6 4 4 2 3 4 4 4 3 2 2 4 7 10 13 15 18 20 22 24 26 27 28 29 30 31 32 34 36 37 37 37 38 37
3 7 6 1 5 5 7 7 5 3 2 2 3 6 6 5 4 5 7 8 11 14 16 17 20 22 24 26 28 28 28 29 30 29 29 30 32 33 35 37 39 40 40 41
5 6 2 2 4 1 1 2 3 3 3 5 6 5 7 9 11 12 14 16 19 20 22 24 26 27 28 30 31 32 33 34 35 35 35 34 33 33 34 36 38 40 41 42
3 5 5 5 2 3 3 3 3 2 3 5 7 8 9 11 12 13 15 17 19 22 24 26 29 31 33 34 35 37 38 38 37 36 35 35 35 36 37 38 39 38 40 42
2 3 3 2 2 2 4 7 4 2 2 4 6 9 8 10 12 15 17 20 22 24 26 28 31 33 34 36 38 40 37 36 35 36 38 39 41 41 40 40 40 41 43 44
7 6 6 7 5 5 3 2 3 3 6 7 9 11 13 14 16 18 21 23 25 27 29 30 31 31 31 29 28 30 32 34 35 38 40 41 44 46 46 44 42 40 39 40
4 6 4 1 2 3 4 7 8 10 11 12 13 14 16 17 19 22 25 28 31 32 34 36 38 38 37 37 37 36 35 35 36 39 42 44 46 46 45 46 46 42 41 39
6 5 8 11 12 14 13 11 11 12 12 15 16 17 19 20 23 26 28 31 33 35 36 37 39 41 44 43 44 44 43 40 37 37 37 38 41 42 42 43 43 43 39 38
15 7 9 12 12 11 12 13 13 14 15 16 18 19 21 23 26 29 32 34 36 38 40 41 41 42 43 44 44 44 44 42 39 36 35 35 36 36 38 39 39 39 40 37
25 21 19 18 17 15 14 14 15 16 17 18 20 21 23 26 29 32 34 37 40 42 44 45 44 43 42 43 43 43 42 41 39 36 34 32 31 32 33 34 34 34 34 34
30 22 19 17 15 14 16 16 17 18 19 20 22 24 27 29 31 34 37 40 43 44 45 46 45 45 43 43 43 42 41 38 36 35 33 31 29 28 27 29 29 30 29 29
15 13 12 14 15 16 18 19 19 20 20 23 26 28 31 33 35 38 41 43 43 45 47 48 49 48 46 45 44 44 42 38 36 33 32 31 29 29 27 24 27 27 29 29
26 25 24 22 22 21 20 21 21 20 22 26 28 31 34 37 39 41 42 43 45 47 49 51 51 51 50 48 47 45 42 39 36 33 32 33 30 28 28 28 28 25 25 29
25 25 25 24 23 21 19 20 20 22 25 27 31 34 38 40 41 41 43 45 47 49 51 51 49 47 45 42 40 38 36 34 32 31 31 32 31 29 28 27 27 27 26 23
12 12 14 15 15 18 20 19 21 24 26 29 33 37 39 39 40 41 43 45 48 47 43 39 36 34 34 34 33 31 29 27 26 27 27 26 26 27 27 28 28 27 26 24
14 13 13 14 17 19 18 20 23 25 28 32 35 37 37 37 38 39 40 40 39 35 32 31 31 30 28 27 26 26 25 24 22 22 21 21 24 26 26 28 27 26 25 24
22 18 18 20 20 18 19 21 24 27 31 33 35 34 35 36 36 38 37 35 30 28 29 29 29 28 26 26 25 25 24 23 21 20 20 22 24 25 24 26 26 28 25 23
29 28 24 20 17 18 20 23 26 30 32 33 32 32 33 33 33 31 30 28 26 27 28 28 27 26 25 25 25 24 23 22 21 21 22 23 24 24 26 26 27 27 28 26
8 10 12 14 17 18 21 24 28 29 31 30 30 30 30 29 28 26 26 29 30 31 31 32 31 29 27 26 26 25 23 22 22 22 22 22 22 23 24 24 27 28 27 26
7 10 13 15 16 19 22 26 27 28 28 28 28 27 26 25 25 25 25 25 28 31 32 33 33 32 29 29 28 27 26 25 25 24 24 24 24 25 27 29 29 28 27 26
12 13 15 16 18 22 24 25 26 26 26 27 26 25 24 23 22 23 27 27 29 33 34 33 32 29 27 27 27 27 26 25 25 24 24 24 24 24 25 27 26 24 23 20
14 15 16 17 21 24 25 26 26 25 25 25 24 23 22 23 21 20 21 25 28 32 35 33 31 27 26 27 27 27 27 26 25 24 23 22 22 24 25 23 20 17 15 14
16 17 16 19 22 24 26 27 26 26 26 24 23 22 21 20 21 23 25 28 29 31 35 33 30 26 26 28 28 28 28 27 25 23 21 21 22 21 19 17 14 12 11 11
17 17 19 21 21 26 27 26 26 26 26 23 22 22 21 21 20 20 23 26 29 30 33 32 30 26 26 27 27 28 28 27 25 24 22 22 20 17 14 11 9 8 9 9
19 18 19 21 24 27 26 25 25 25 24 23 22 21 21 21 21 22 25 27 28 30 32 32 29 25 25 25 27 28 28 27 25 23 21 20 17 14 11 9 8 7 5 5
19 19 21 22 24 26 25 24 24 24 23 21 21 21 20 20 21 21 24 25 26 28 30 31 28 25 24 25 26 27 27 26 24 23 22 18 15 12 9 8 6 5 4 3

GFSNGP_700_spd_096.txt.gz
Wind_Speed
5 5 6 8 9 9 9 5 3 6 7 8 9 10 11 12 12 12 11 11 9 7 6 5 5 6 7 9 12 14 16 18 20 22 24 26 27 28 29 30 30 31 32 33
8 4 6 8 7 1 3 5 5 4 2 4 4 5 6 6 6 5 4 3 4 5 7 9 11 13 16 17 20 22 24 25 27 28 29 30 32 34 36 38 39 39 39 39
4 7 8 7 3 3 4 2 1 4 5 2 2 4 4 3 3 3 5 7 10 12 14 16 18 20 21 23 25 26 28 29 29 30 33 34 34 35 37 38 40 42 42 43
7 7 1 4 5 5 5 6 7 6 6 7 8 10 9 9 9 10 11 14 16 18 20 22 23 24 27 29 30 31 33 35 37 38 38 39 40 41 41 41 41 42 45 46
4 6 11 9 6 7 7 8 8 7 7 7 8 10 11 11 13 14 15 16 18 21 23 25 27 28 30 33 35 37 38 39 41 41 41 41 41 43 45 46 47 47 47 48
4 4 5 4 4 5 7 14 9 8 8 7 8 10 9 11 13 15 18 21 23 24 26 28 29 31 32 33 35 38 39 40 41 43 44 44 45 47 47 49 50 52 53 52
12 7 8 10 8 7 5 3 4 6 7 9 10 11 11 13 16 18 20 22 23 25 27 29 32 34 35 36 38 41 41 42 42 42 43 45 47 49 52 54 55 55 55 53
6 7 6 6 5 6 5 8 10 10 11 11 11 12 14 16 18 20 22 24 26 28 30 32 34 36 38 39 41 42 42 42 42 42 43 46 48 48 49 51 53 56 56 54
7 6 8 10 12 16 18 16 13 13 13 14 15 16 17 19 21 23 25 27 29 31 33 35 39 42 44 45 47 48 49 49 47 43 40 39 43 44 46 46 47 47 48 49
21 8 8 9 13 14 14 14 15 15 16 17 18 19 20 21 24 26 29 31 33 36 39 40 42 43 44 47 48 50 51 51 50 49 46 42 39 40 40 40 42 42 43 43
32 28 27 26 23 21 21 20 17 16 18 19 20 20 21 24 27 29 32 34 37 40 41 41 43 44 45 47 50 52 52 52 50 48 46 42 38 38 38 36 35 35 34 36
27 14 20 20 19 20 18 17 18 18 19 20 21 22 24 26 28 31 33 37 39 40 42 43 44 46 47 48 49 49 49 48 46 45 42 40 38 36 33 34 31 31 30 30
22 21 22 17 15 16 16 17 19 21 21 21 21 23 25 27 29 33 36 37 39 40 41 43 45 45 44 41 39 38 38 37 36 36 35 35 34 35 35 28 30 28 28 28
29 32 31 26 23 21 22 22 22 22 21 21 23 25 27 29 32 34 35 37 38 39 41 41 39 35 34 34 35 34 33 33 33 32 31 30 30 31 32 30 28 27 26 28
18 20 27 28 26 24 24 23 21 20 21 22 25 26 29 32 34 34 35 36 37 38 37 34 31 31 33 35 35 33 31 31 30 28 26 25 25 26 25 23 25 26 26 24
20 17 13 17 19 18 16 17 19 19 20 23 25 28 30 32 32 34 34 35 34 31 29 28 30 33 35 34 33 31 30 29 28 27 26 24 22 20 18 23 29 27 24 24
18 15 11 8 8 9 12 17 17 18 20 23 26 29 30 30 31 32 32 30 29 29 31 32 32 34 34 34 33 32 32 30 28 27 25 24 23 22 24 27 28 26 24 23
22 17 11 10 10 15 16 15 17 19 21 25 28 29 29 29 29 29 28 25 26 28 29 31 34 36 36 35 34 33 33 33 30 28 26 24 23 23 24 26 26 28 29 27
20 25 23 21 22 17 14 16 18 20 24 26 28 28 29 29 28 28 27 26 25 25 27 31 34 37 35 34 33 32 32 33 32 29 28 27 26 25 25 25 25 25 26 25
1 7 11 12 11 12 14 16 19 22 24 26 27 28 29 27 27 26 25 25 25 26 29 33 35 38 35 32 31 31 31 30 30 29 28 27 27 27 26 26 27 27 28 27
5 5 6 8 11 13 14 17 20 23 24 26 27 28 27 26 25 25 23 22 24 26 29 32 37 38 35 31 30 31 31 31 30 30 28 27 27 26 26 26 25 26 27 27
11 11 11 12 12 14 16 18 20 22 25 26 27 27 26 25 24 25 24 22 23 26 28 32 36 37 35 30 30 31 31 32 32 31 28 26 25 25 24 24 25 27 25 22
14 13 13 14 14 16 18 20 23 24 25 27 27 26 25 25 23 22 21 23 23 25 28 32 35 36 34 29 30 30 31 32 31 30 28 26 24 24 23 23 21 19 17 15
17 16 15 15 16 17 17 20 24 24 26 26 25 25 23 23 25 24 22 21 22 25 27 31 35 35 32 28 28 30 31 31 31 29 26 24 23 21 19 17 15 14 12 11
18 18 18 17 17 15 17 22 25 25 26 26 24 23 22 21 21 23 22 22 22 24 25 29 34 34 32 28 28 29 31 31 30 28 26 23 21 18 16 14 12 10 10 10
21 20 20 19 17 16 18 23 27 25 25 25 25 22 22 22 22 22 22 21 22 23 25 27 32 33 30 26 27 28 29 28 26 25 24 21 19 17 15 13 11 9 8 7
22 21 21 21 19 20 19 19 28 26 24 24 24 23 21 22 22 22 21 21 22 23 24 25 29 32 29 25 26 26 26 25 24 23 22 20 18 17 15 14 11 9 7 5

GFSNGP_700_spd_099.txt.gz
Wind_Speed
11 12 13 13 10 9 7 3 2 4 2 4 6 8 9 10 10 11 11 11 11 10 8 7 7 7 7 9 11 12 14 17 19 21 23 25 26 27 29 30 32 33 34 35
19 11 12 18 13 10 7 4 2 2 2 1 1 2 3 3 4 4 5 5 5 5 6 8 9 11 14 16 17 20 22 24 24 25 27 30 32 34 35 35 36 37 38 39
7 7 15 17 15 11 11 10 8 7 5 4 4 2 2 2 3 4 6 8 10 11 12 14 15 16 17 19 21 23 24 26 28 29 31 32 33 35 37 38 40 41 43 44
12 12 2 4 7 9 13 13 12 11 8 7 6 5 4 4 6 7 9 11 12 13 15 17 18 19 22 24 26 28 30 32 35 36 37 39 40 42 43 44 45 46 46 48
5 8 20 19 14 11 10 12 12 11 10 10 10 9 8 7 9 10 11 13 15 18 20 23 26 27 29 32 34 35 36 36 38 40 41 42 45 46 48 50 51 51 52 53
6 4 5 5 5 6 11 15 8 9 10 10 9 9 10 11 13 15 17 19 21 23 25 27 29 30 33 34 36 38 39 40 41 43 43 43 44 45 46 48 51 54 56 57
18 10 11 13 12 10 5 4 5 6 9 10 11 13 14 15 16 18 20 22 23 26 29 31 33 34 34 36 38 39 40 40 41 42 45 46 47 47 47 46 47 49 51 55
6 9 8 6 7 8 7 10 12 13 13 14 14 15 15 16 18 19 22 24 25 26 29 31 34 35 37 39 42 44 45 46 45 45 46 47 47 48 49 49 49 49 51 52
10 9 13 17 18 18 21 22 19 17 16 15 15 16 17 18 19 21 23 25 27 28 30 33 37 39 40 41 43 44 45 47 48 49 49 48 48 47 46 45 46 47 48 50
27 21 16 12 15 17 19 21 20 19 18 18 18 18 19 21 22 23 25 27 29 30 33 34 36 38 41 44 46 47 48 47 45 46 45 44 44 43 43 43 43 43 43 44
39 38 37 33 31 31 29 24 24 24 21 19 20 20 21 22 23 25 27 29 31 34 35 36 39 40 41 42 43 42 40 41 43 44 44 44 42 40 39 37 39 40 39 39
37 20 20 20 17 20 25 22 22 19 20 21 22 22 23 23 25 27 29 31 33 34 36 37 39 39 39 39 37 38 40 41 42 43 42 42 41 38 33 33 34 35 35 36
31 24 24 24 24 22 18 20 19 20 20 22 22 22 22 23 26 28 30 33 33 34 35 36 36 36 35 35 36 38 40 40 40 39 39 38 37 36 35 30 29 31 30 31
27 32 33 33 32 28 25 23 23 23 23 22 21 21 22 25 27 29 31 31 32 33 33 33 33 34 35 36 36 37 38 38 39 38 37 36 35 34 33 31 29 25 22 26
21 20 18 22 27 33 31 26 24 24 22 20 20 21 23 25 28 30 29 30 31 31 31 31 32 32 33 34 36 37 37 37 37 37 36 35 34 33 31 29 28 23 21 22
27 31 31 24 22 22 23 22 21 18 18 19 19 21 23 26 27 28 27 29 30 29 29 30 30 31 32 35 37 36 34 34 36 37 36 34 34 33 31 28 28 30 29 30
25 20 18 17 12 10 10 9 12 16 17 18 19 22 24 26 26 27 27 29 29 28 28 28 28 30 32 36 38 36 34 34 35 35 35 34 33 32 31 30 30 30 30 29
22 20 14 12 8 7 8 14 14 14 16 17 20 23 24 25 25 26 28 28 27 28 28 28 29 31 34 37 39 35 33 34 35 35 34 34 33 31 31 30 30 29 28 26
17 10 13 13 13 14 19 14 13 14 16 19 21 22 23 23 24 26 27 26 25 25 26 28 29 32 34 37 38 33 32 33 34 34 34 34 33 31 30 29 29 29 29 29
12 10 7 15 20 18 13 12 13 15 18 19 21 22 22 24 24 25 25 25 25 24 24 26 28 31 33 35 36 32 32 33 34 34 35 35 33 32 30 28 28 29 29 28
14 10 8 8 9 12 13 13 14 16 17 19 22 25 24 24 25 25 25 25 25 24 25 27 29 31 34 35 33 30 31 33 34 36 36 35 33 31 29 28 27 27 26 26
14 12 11 12 12 14 14 15 16 16 17 20 26 26 25 24 24 25 25 23 24 24 25 27 28 31 34 35 32 29 31 33 35 36 35 33 31 30 28 27 26 25 23 22
18 16 15 15 16 16 16 16 15 17 20 23 28 26 24 24 24 23 25 25 23 23 24 25 27 29 33 34 31 29 30 32 34 34 33 31 30 28 26 23 21 20 17 15
23 22 20 18 18 18 18 18 17 19 19 24 29 29 26 24 24 24 25 24 24 24 25 26 27 28 31 33 29 28 29 31 32 31 29 29 28 26 23 21 19 17 16 15
24 23 22 24 23 22 21 19 20 21 21 25 26 27 26 23 23 24 24 24 24 24 24 25 27 27 29 31 28 28 28 29 30 30 29 29 27 25 23 21 18 16 14 13
25 22 24 25 25 25 23 22 22 22 21 25 27 25 25 24 23 23 23 23 23 24 24 25 25 24 26 28 26 26 27 27 27 27 27 26 26 25 23 21 18 15 13 11
28 28 25 26 26 26 25 24 22 21 21 25 27 26 25 24 23 23 23 23 23 24 24 24 24 22 23 26 24 24 24 24 24 24 23 23 24 24 23 21 19 16 14 12

GFSNGP_700_spd_102.txt.gz
Wind_Speed
16 20 22 23 17 12 13 10 8 7 9 6 3 3 4 6 6 7 8 9 10 11 12 11 10 11 11 10 10 12 14 16 18 20 22 23 25 27 27 28 30 33 33 34
24 16 14 21 22 19 17 15 13 11 10 8 7 5 4 3 4 4 6 7 8 9 10 11 13 13 13 14 15 16 17 19 21 23 26 27 29 30 31 33 35 36 38 39
9 13 20 21 10 16 19 17 14 15 9 9 8 7 7 7 7 8 9 10 10 12 13 14 15 16 17 18 19 20 20 22 24 25 28 30 32 34 36 37 38 40 41 43
14 16 3 3 6 7 12 17 18 16 12 11 11 11 10 9 10 12 12 12 11 12 14 15 16 17 19 21 24 25 27 28 30 32 33 35 38 40 42 44 45 47 48 50
6 11 23 13 7 14 14 13 14 15 14 12 12 12 11 12 12 12 12 13 13 15 17 19 21 23 24 27 28 30 31 33 35 37 38 40 41 42 43 44 44 45 48 51
9 4 5 7 8 8 11 13 6 6 10 11 11 12 11 11 11 12 12 14 16 18 21 23 25 27 29 31 33 35 36 38 40 41 42 42 43 44 45 46 46 47 47 47
22 11 13 17 14 12 6 5 10 9 9 11 12 13 14 14 14 15 16 18 19 21 23 26 29 30 33 35 36 37 38 39 40 41 42 42 41 40 40 41 41 40 41 41
8 8 9 5 7 7 13 17 19 22 21 19 18 18 17 17 17 18 19 20 21 24 27 29 31 33 35 36 36 37 38 38 38 37 36 38 40 40 41 41 43 43 43 40
11 10 19 28 35 35 31 25 24 19 19 18 19 19 20 20 19 19 20 21 23 26 28 31 33 35 35 37 37 37 37 37 37 37 39 38 40 41 41 40 42 42 41 41
33 37 35 28 29 26 28 34 31 30 28 25 23 22 21 20 21 22 23 23 26 28 29 32 34 35 37 37 37 36 36 37 39 39 40 40 41 42 42 42 42 41 41 40
41 32 30 25 24 20 24 26 29 30 28 26 26 23 22 21 21 23 23 24 26 28 30 32 32 33 34 35 35 35 36 38 38 39 40 40 39 39 40 39 41 40 38 38
35 24 26 30 22 21 23 23 22 24 24 21 20 21 22 22 23 23 23 26 28 31 31 32 32 32 32 33 34 35 36 37 38 39 39 39 39 38 35 37 37 37 36 34
23 24 26 26 25 29 28 22 24 22 20 20 21 22 23 23 22 22 25 27 29 31 31 31 31 30 32 33 33 35 37 39 39 39 38 39 40 41 41 35 34 33 32 32
20 22 23 20 21 23 29 30 30 25 23 22 23 24 23 22 22 24 26 29 30 30 31 30 30 30 31 31 32 35 37 40 40 38 38 39 40 40 40 40 37 33 29 27
19 24 26 25 24 27 25 25 25 26 24 22 23 22 21 21 23 25 27 28 28 29 29 28 29 30 30 32 33 35 37 40 38 36 37 39 39 38 38 37 36 34 32 27
22 23 24 22 22 22 18 20 17 16 17 19 18 19 19 21 24 26 27 27 28 28 27 28 29 28 30 32 33 35 37 41 38 37 38 38 38 38 38 37 35 34 33 30
18 20 23 20 18 14 12 7 5 8 12 15 16 17 19 22 24 25 26 27 27 27 27 27 27 29 30 32 33 36 38 38 36 36 37 37 38 38 37 36 34 33 33 30
19 19 17 14 11 9 8 6 8 13 13 13 15 17 20 21 23 24 26 28 27 26 26 26 27 28 30 32 34 36 39 36 35 36 36 37 37 38 37 36 34 33 32 30
19 18 16 12 9 11 12 14 18 12 12 13 16 18 19 21 23 28 31 28 26 26 26 26 27 28 30 32 35 37 38 35 35 35 35 37 38 38 37 35 33 32 30 30
22 19 17 12 11 12 14 13 13 14 14 15 16 15 17 22 26 28 28 27 26 25 25 26 26 27 30 31 34 37 36 34 34 34 35 37 38 37 35 32 31 30 29 28
16 14 15 14 13 12 13 14 14 15 16 16 15 16 19 24 27 29 28 26 26 25 25 25 25 27 28 29 31 35 33 33 33 33 35 37 37 35 34 32 29 28 27 25
17 15 15 16 17 17 17 17 18 18 18 19 19 19 22 25 27 27 27 26 26 25 24 24 25 26 28 29 30 34 32 32 32 33 34 35 36 35 33 31 28 26 24 22
20 19 19 19 20 20 20 20 21 21 21 21 21 21 24 25 27 28 27 26 26 25 24 25 25 27 28 28 29 33 31 31 30 32 33 35 36 35 33 30 27 24 22 20
23 23 22 21 22 23 23 23 22 22 23 23 22 23 23 23 26 28 26 26 26 25 24 24 25 26 27 27 27 30 30 29 28 29 31 32 33 32 30 28 25 22 20 18
26 25 23 22 23 24 26 26 25 24 25 25 23 23 23 22 24 27 26 25 25 25 24 24 25 25 26 26 25 28 28 27 26 27 29 30 29 28 26 24 23 21 19 17
30 28 26 25 25 25 26 27 26 26 26 24 23 24 22 22 26 27 25 24 24 24 23 24 24 24 24 25 23 26 26 24 23 24 26 26 26 25 25 23 22 21 19 17
33 32 28 27 27 26 28 29 28 26 26 24 23 24 23 24 26 27 25 24 24 24 23 23 24 24 23 23 22 24 24 21 20 21 22 23 23 23 23 23 23 22 21 20

GFSNGP_700_spd_105.txt.gz
Wind_Speed
19 22 27 28 24 25 25 22 17 16 17 11 11 9 7 5 4 3 4 6 7 8 9 10 9 10 10 10 10 11 11 13 14 16 17 19 20 22 24 26 28 28 30 32
30 21 15 27 27 23 23 25 27 24 23 13 13 13 12 11 10 9 8 7 8 9 10 10 10 11 12 13 13 14 14 16 18 19 21 23 25 27 28 30 32 33 35 37
11 16 30 12 4 8 14 22 22 22 15 14 13 14 14 13 13 13 12 12 12 11 11 11 12 13 14 15 16 17 19 20 21 23 25 27 30 32 34 36 38 39 41 43
15 13 4 5 17 22 15 11 14 20 17 17 17 16 16 15 15 15 14 14 14 13 13 14 15 15 16 17 19 20 22 24 26 28 30 32 34 36 37 38 39 40 41 43
6 7 20 2 5 11 7 11 13 17 13 16 16 16 16 17 17 16 14 14 14 14 14 15 16 18 20 22 24 25 27 29 30 32 34 35 36 36 36 36 36 37 38 40
8 5 5 5 10 15 12 6 8 10 6 9 13 16 11 15 15 15 15 15 15 15 16 17 19 21 23 24 26 29 30 32 34 35 36 35 35 35 35 38 37 37 37 38
22 10 13 17 11 9 4 4 20 21 19 20 18 16 15 16 16 15 15 16 17 18 19 21 23 24 26 29 32 33 34 36 37 37 37 37 36 38 38 38 38 38 38 34
8 10 9 1 5 12 21 26 28 25 22 16 16 17 17 17 17 17 18 18 19 20 21 23 25 28 30 32 33 34 35 35 34 34 35 36 37 37 37 39 40 39 38 36
12 12 22 31 38 37 31 21 19 19 23 26 26 22 21 19 19 20 20 20 21 22 22 24 27 30 33 33 34 35 34 33 33 34 35 37 38 38 37 38 39 39 39 39
36 37 34 33 34 33 36 41 38 38 39 36 32 28 24 22 22 21 21 22 22 22 25 28 31 33 34 34 34 34 34 34 33 34 35 36 37 37 36 37 39 40 39 39
39 31 26 24 22 22 26 28 27 25 23 23 23 23 22 21 19 21 22 22 22 23 26 29 32 33 33 32 32 32 32 32 33 34 36 35 34 35 36 37 40 42 42 41
31 25 24 23 23 23 26 28 26 26 21 18 21 22 21 21 20 21 22 22 23 25 27 30 30 31 31 32 31 31 31 32 33 35 36 36 35 33 34 37 37 36 37 39
26 21 20 19 21 23 25 25 26 24 24 23 21 19 19 20 21 22 21 21 23 26 28 28 28 29 30 30 30 31 31 32 33 36 37 36 36 39 40 33 33 35 35 35
20 19 20 22 27 27 26 21 21 23 25 26 23 21 21 22 23 21 21 22 24 26 26 27 28 29 28 28 28 29 31 33 34 36 36 35 37 38 40 42 41 37 34 34
16 21 22 22 23 25 25 22 21 23 24 25 24 22 22 23 21 20 21 23 24 25 26 27 28 27 28 28 27 28 30 32 33 35 34 35 37 38 39 40 41 40 37 34
11 13 19 22 22 21 19 16 15 16 13 14 16 18 19 19 19 21 23 24 24 24 27 28 28 28 28 27 27 27 29 32 35 34 33 34 36 37 38 39 39 38 36 34
11 14 17 16 16 17 13 10 8 3 5 9 14 15 15 16 18 20 21 21 24 28 29 29 29 28 27 27 27 28 28 31 34 33 33 35 37 38 39 39 38 36 35 32
14 16 15 16 15 13 12 9 8 9 13 13 13 14 15 17 17 17 20 24 27 29 28 27 27 27 27 27 27 28 29 31 32 32 33 35 37 39 39 38 36 35 32 30
18 17 15 14 15 13 11 10 14 16 18 13 13 14 16 16 15 19 22 25 27 27 28 28 27 27 27 27 27 29 29 31 32 32 34 35 36 38 39 38 36 33 31 29
15 14 12 11 12 12 12 12 13 14 15 15 16 17 17 17 19 22 24 25 26 25 25 26 26 27 27 27 27 28 29 31 31 31 33 34 36 37 39 36 33 30 28 26
14 13 13 12 12 13 14 15 16 16 17 17 18 19 18 19 21 23 25 25 27 26 25 25 26 26 27 27 28 29 27 30 31 31 32 32 34 36 36 35 32 28 25 24
17 18 16 16 16 16 16 17 18 19 20 19 20 21 21 21 22 23 24 24 27 26 25 25 25 26 26 26 27 28 26 29 29 29 30 30 32 34 32 30 30 27 24 22
17 17 17 18 18 19 19 19 21 22 22 22 23 24 23 23 23 23 24 25 26 28 26 25 25 25 25 26 27 26 24 27 27 28 28 29 31 32 30 28 26 26 25 22
21 20 19 20 20 19 18 22 23 22 22 23 24 25 24 24 24 24 23 25 25 28 26 25 24 24 25 26 26 25 23 25 25 26 25 27 29 29 29 27 24 23 22 21
27 27 25 23 23 21 21 24 25 23 24 24 24 25 24 24 24 23 23 25 26 27 26 25 24 24 25 25 25 24 22 24 24 24 23 23 25 26 25 25 25 24 22 21
30 32 31 29 26 25 24 26 25 25 26 25 25 25 24 24 24 23 24 27 27 27 26 25 23 23 24 24 24 23 20 22 22 23 21 21 21 23 23 23 23 23 22 20
33 34 35 36 29 28 27 28 28 27 28 28 26 25 24 25 24 23 26 27 28 26 25 24 22 22 23 24 24 21 18 20 20 20 19 19 19 19 21 20 20 21 22 21

GFSNGP_700_spd_108.txt.gz
Wind_Speed
21 22 25 30 28 23 26 30 22 23 23 20 20 20 15 13 11 10 9 9 8 8 8 7 6 6 6 6 7 8 9 10 12 14 15 17 18 20 21 23 24 26 27 30
32 23 17 25 25 24 27 28 32 33 35 22 15 15 17 15 15 13 12 11 11 10 9 8 8 8 9 10 11 12 13 15 16 17 19 21 23 24 26 27 29 31 33 34
12 15 28 17 2 6 13 15 16 22 16 18 16 15 15 17 18 16 15 14 13 12 10 10 11 12 13 13 14 16 18 19 20 21 22 24 25 27 29 31 33 34 36 37
16 19 4 5 12 16 13 13 12 13 13 16 18 19 19 18 18 18 18 17 16 15 13 13 14 14 15 16 17 18 19 21 23 24 26 29 30 32 33 33 34 34 35 37
6 8 22 10 3 10 13 11 6 9 12 13 15 16 16 17 18 18 18 18 17 16 16 16 16 17 18 18 20 21 23 26 27 28 29 31 31 32 33 32 34 35 37 38
6 5 5 7 11 16 9 2 5 16 21 19 14 17 14 16 16 16 18 18 18 18 19 19 19 19 20 22 23 25 27 28 29 30 30 31 31 32 33 33 34 36 36 37
19 12 16 19 13 7 3 4 21 27 26 23 17 14 15 16 17 18 18 19 19 20 20 20 20 21 22 24 25 27 28 29 30 31 32 33 33 34 35 36 37 37 35 34
10 10 12 2 5 13 19 32 31 26 20 20 19 19 20 21 19 19 19 19 20 21 21 22 22 23 25 26 28 29 29 30 32 33 34 33 33 34 36 37 36 35 35 34
14 14 21 29 30 29 32 34 31 33 32 34 33 31 32 31 27 24 22 22 22 22 23 24 24 25 26 28 29 29 29 30 31 33 34 34 35 35 36 36 36 36 38 38
33 31 27 29 27 26 30 33 32 31 30 26 24 21 24 25 25 24 24 23 23 23 24 25 26 27 28 28 28 28 29 30 31 31 32 33 35 36 35 34 35 37 38 40
35 27 21 22 21 18 23 27 29 30 31 27 23 21 19 18 19 21 21 22 24 25 25 26 27 29 29 29 28 28 29 30 30 31 32 32 33 33 33 34 36 38 39 41
31 23 24 20 19 19 20 20 23 27 26 26 23 19 17 18 20 21 21 23 25 25 26 27 29 31 30 29 29 29 29 30 30 32 33 33 34 30 32 34 34 35 36 39
20 18 17 15 17 20 22 25 25 23 20 17 22 22 22 20 20 21 22 24 24 24 25 27 29 29 29 29 30 30 30 30 30 32 33 34 34 34 32 26 32 36 38 39
15 15 11 12 16 19 23 24 24 22 19 17 20 22 21 19 20 22 23 23 22 23 25 27 26 28 28 29 30 30 31 31 31 32 33 34 33 34 34 36 38 35 34 37
13 13 11 11 14 17 20 20 20 18 16 16 18 21 20 19 20 21 21 20 21 23 23 23 26 28 30 30 29 29 30 30 31 32 33 34 33 33 34 37 40 41 41 38
12 12 12 14 13 15 15 14 11 9 11 10 9 10 11 13 16 17 17 18 19 19 23 26 27 27 26 27 28 28 28 29 30 31 32 32 32 33 35 37 39 41 41 39
11 13 14 13 13 14 14 12 10 7 6 7 11 13 13 14 14 15 16 16 17 22 25 27 27 26 27 27 27 26 26 28 30 30 32 31 31 32 34 36 39 41 39 35
13 15 16 16 16 14 13 13 12 11 11 13 15 14 14 15 15 16 16 17 20 24 26 27 26 26 26 26 25 25 25 27 29 29 32 31 31 32 33 36 38 40 38 33
15 17 17 17 15 14 13 12 13 14 16 17 16 15 15 16 17 17 17 19 21 24 25 27 27 26 26 26 25 25 26 27 29 29 31 30 30 30 32 34 36 38 37 32
15 17 16 14 14 14 14 14 14 15 17 17 17 18 18 18 19 19 19 21 22 23 25 26 26 26 26 25 25 26 26 27 28 27 29 29 29 29 31 33 34 34 35 31
14 15 16 15 15 15 15 16 16 17 18 19 20 20 20 21 21 21 21 22 23 23 24 26 26 26 26 24 25 25 26 27 27 26 28 28 27 28 30 32 32 32 31 29
15 15 16 17 16 17 18 18 19 20 20 21 22 22 22 22 22 22 22 23 23 23 24 26 26 26 26 25 25 25 26 26 25 25 26 26 25 26 29 30 31 30 29 26
17 16 16 16 18 19 19 20 22 23 23 23 24 23 24 24 24 24 23 23 23 23 24 26 25 25 25 25 25 25 25 25 23 23 24 24 23 24 27 28 29 28 26 25
25 21 20 18 15 18 21 21 22 23 23 23 24 25 25 25 25 25 24 23 23 23 26 27 25 24 24 25 26 25 26 25 21 22 22 21 21 22 24 26 26 25 23 21
32 32 27 25 21 23 23 25 24 23 23 24 25 26 26 27 26 25 24 23 23 23 26 25 25 24 23 24 25 24 26 24 19 20 20 18 18 19 21 23 24 24 22 21
34 37 35 34 35 37 28 25 28 26 25 25 27 28 29 27 26 25 25 23 23 24 25 25 26 23 22 23 24 24 25 23 19 19 18 16 16 16 17 19 20 21 20 19
42 44 46 48 47 43 34 26 29 29 28 27 28 30 29 27 27 27 26 24 23 24 24 25 25 23 21 22 22 23 24 20 17 17 16 14 14 15 15 16 16 17 17 18

GFSNGP_700_spd_111.txt.gz
Wind_Speed
24 24 27 30 28 26 30 34 30 35 30 26 21 21 24 25 19 18 16 16 16 15 15 14 12 10 10 11 12 12 13 14 15 16 17 18 19 19 20 21 23 24 26 28
34 25 18 26 27 26 28 31 35 39 43 25 24 23 20 21 19 19 17 17 17 17 17 16 15 14 14 15 15 16 17 18 18 19 20 21 21 22 22 23 25 26 28 29
13 14 24 23 10 10 13 16 18 25 21 21 18 21 19 18 21 21 20 19 19 18 18 17 17 16 16 17 19 19 20 21 21 23 24 24 24 25 26 26 27 27 28 29
17 17 5 5 13 18 13 16 16 15 10 11 17 21 22 21 22 22 19 20 20 21 20 20 19 19 20 21 21 22 23 24 25 26 26 26 26 27 27 28 28 29 30 32
7 11 23 22 6 6 11 17 11 5 6 15 18 18 14 16 16 18 20 22 22 22 22 22 22 22 23 23 24 25 25 26 27 27 26 27 27 27 28 29 31 32 34 36
8 7 5 6 10 14 19 13 13 11 15 24 26 20 12 17 19 18 19 21 22 22 23 23 24 25 26 27 27 27 27 28 28 27 27 27 29 30 30 32 33 34 35 37
21 15 17 20 22 15 5 6 17 20 28 33 26 18 18 14 14 15 17 20 21 22 23 24 25 27 27 28 28 30 31 32 31 29 27 28 29 30 31 31 32 33 34 35
11 12 14 7 11 14 14 21 28 34 35 34 31 26 25 25 26 27 26 23 23 23 24 25 26 27 28 28 29 31 32 32 30 29 29 30 31 32 33 34 35 35 35 33
16 13 17 20 20 29 35 33 34 35 35 33 31 25 23 27 30 30 27 23 23 24 24 24 25 26 28 28 29 31 32 31 30 30 31 31 31 32 33 36 37 35 35 35
32 30 25 29 32 31 30 30 29 27 28 28 28 25 21 20 21 21 21 22 22 23 23 23 25 26 26 27 29 30 29 28 29 30 31 32 33 33 33 35 35 34 34 34
40 31 27 21 23 20 21 22 23 23 25 26 27 25 23 24 22 20 19 20 20 22 23 24 24 24 25 28 29 28 28 29 29 30 30 30 31 33 34 33 34 34 33 36
34 28 27 25 27 18 18 21 23 25 26 26 25 23 20 20 21 20 21 20 21 22 24 25 24 25 26 26 25 25 27 29 30 30 30 30 32 32 33 32 31 32 35 39
29 24 28 23 22 20 20 21 24 24 26 25 22 19 17 19 21 21 21 21 21 23 24 23 24 26 25 25 26 28 29 29 29 30 31 32 32 33 30 27 28 31 35 37
28 27 23 19 20 20 21 22 23 24 25 23 19 17 16 18 20 21 20 20 21 22 21 22 24 24 26 29 29 29 29 28 30 30 31 31 32 33 32 29 29 32 33 38
20 23 19 21 18 19 21 21 21 21 20 17 14 15 16 18 19 19 18 19 19 19 20 21 22 26 29 30 29 29 28 29 29 30 30 31 32 32 32 32 33 35 36 37
22 22 21 19 18 20 19 19 19 19 16 14 12 11 11 13 15 16 17 17 17 18 18 20 23 26 28 28 28 28 28 28 29 29 29 31 31 31 31 31 33 36 38 40
27 22 22 19 20 20 21 21 19 18 16 14 13 13 14 15 16 17 17 17 17 17 18 21 23 25 27 28 28 28 27 28 27 28 28 30 29 30 30 31 33 36 37 36
27 22 22 21 23 22 22 21 20 18 17 16 16 17 18 17 17 17 17 18 18 18 19 22 23 25 26 26 27 27 28 27 27 27 28 28 28 29 29 31 33 35 35 34
16 19 21 22 22 21 20 20 20 19 18 18 19 19 19 18 19 19 19 20 19 19 21 22 23 25 26 26 26 26 27 27 26 27 29 27 27 27 27 30 32 33 34 33
15 18 20 22 21 20 19 20 20 20 20 20 21 21 20 20 21 21 21 21 21 21 22 23 24 25 26 26 25 26 26 26 26 27 28 26 26 26 26 28 31 32 32 31
19 19 20 21 21 21 21 21 21 22 22 22 23 24 23 22 23 23 23 22 22 22 23 24 25 25 27 27 25 26 26 25 25 26 27 24 24 24 25 27 29 30 30 30
20 19 20 21 23 23 20 21 21 22 24 25 27 27 26 26 26 25 25 24 23 23 24 24 24 25 27 27 25 24 26 25 25 26 25 23 23 22 23 25 27 27 27 27
20 21 23 23 26 27 25 22 20 20 21 25 27 27 26 27 28 27 26 26 24 24 24 23 23 25 26 26 24 24 25 25 24 25 23 21 21 21 22 23 25 25 26 25
26 27 29 29 28 29 29 28 25 24 34 30 28 28 26 28 30 29 28 26 25 24 23 23 23 26 25 26 24 23 24 24 23 24 20 19 19 19 20 20 22 23 23 23
33 31 34 35 35 34 33 33 38 39 40 32 25 27 27 27 31 31 30 27 26 25 23 24 23 25 24 25 24 22 23 23 23 22 17 18 18 18 19 18 19 19 20 20
42 42 38 38 38 40 41 43 45 47 47 39 28 25 28 28 31 33 30 28 27 26 24 24 23 24 24 24 23 22 22 22 22 20 16 16 16 16 17 16 17 17 18 18
45 42 42 40 40 43 50 51 48 50 54 41 37 29 28 30 30 32 29 28 28 26 25 24 23 24 23 23 22 21 21 21 21 18 15 15 15 15 15 14 14 14 14 15

GFSNGP_700_spd_114.txt.gz
Wind_Speed
23 27 28 32 34 33 34 39 34 42 37 40 33 28 32 33 32 33 21 20 19 19 19 20 19 17 17 17 18 17 17 17 18 19 19 19 20 21 22 23 23 24 24 26
34 31 20 29 31 33 35 36 43 46 43 25 22 14 28 19 29 30 23 21 20 20 20 21 21 20 20 20 21 22 22 22 23 23 22 22 23 23 22 22 23 24 24 24
13 16 26 29 16 18 24 23 21 29 23 19 17 21 22 22 21 25 23 22 21 21 22 22 22 21 22 22 24 24 25 26 26 26 27 27 27 25 23 22 22 22 23 24
18 20 4 5 13 11 18 23 22 23 21 12 10 9 18 18 19 19 20 22 22 23 23 23 22 22 23 24 25 26 27 28 29 30 30 31 30 28 26 25 26 26 26 27
8 9 27 24 16 18 9 17 18 25 17 15 13 18 26 21 19 19 19 21 22 22 22 22 22 23 25 26 27 28 29 29 30 30 31 30 28 27 27 27 28 28 29 29
6 7 6 7 10 12 18 26 6 11 16 18 19 29 29 21 21 22 21 19 20 21 24 25 24 24 26 27 28 29 30 30 30 30 30 29 27 27 27 28 29 30 30 31
24 14 18 22 21 21 9 9 12 14 18 22 31 36 31 26 20 20 20 19 21 23 25 25 23 25 27 28 29 29 30 30 31 32 31 28 27 28 28 29 30 30 31 32
15 12 15 4 9 15 19 23 23 27 32 34 33 31 29 28 29 25 29 30 31 30 25 24 24 25 27 27 28 29 29 30 31 31 29 29 29 30 30 31 31 31 31 30
17 14 21 34 37 33 31 32 36 36 35 33 29 25 25 24 24 20 18 19 22 23 23 23 24 24 25 26 27 27 28 29 29 27 27 28 29 30 31 32 31 31 31 29
35 36 31 32 38 36 32 35 34 30 27 26 26 26 26 25 25 22 20 18 19 20 20 20 20 22 24 25 25 26 28 27 25 26 28 29 29 29 29 30 31 32 30 29
45 41 33 31 25 24 24 25 27 24 23 24 26 26 28 26 25 22 20 18 18 20 20 20 20 22 23 23 24 26 24 25 28 29 28 28 28 29 29 30 32 32 30 30
38 28 29 30 28 29 22 22 26 26 25 26 28 28 27 25 22 19 17 18 20 20 20 20 21 22 20 22 22 24 27 28 29 28 27 29 29 27 28 30 31 30 30 33
30 27 29 31 32 29 26 24 25 26 25 27 27 29 26 23 20 18 17 18 20 19 19 20 20 19 19 19 23 26 27 27 27 27 29 29 29 29 29 28 29 29 29 31
29 27 27 27 28 24 24 25 25 25 27 28 27 26 23 20 18 17 17 18 18 18 18 18 17 16 17 21 24 26 26 26 27 28 28 29 29 29 30 29 27 25 27 30
26 27 26 27 24 22 23 23 24 25 26 25 25 22 19 18 16 16 16 16 17 17 17 17 16 16 19 22 24 26 26 27 26 28 28 28 29 29 30 27 26 27 28 30
36 33 29 27 23 23 22 23 24 25 25 24 22 20 18 15 14 16 16 16 17 17 17 18 17 18 21 22 24 26 27 26 26 27 28 26 27 30 28 27 27 27 29 32
28 31 30 31 25 22 22 23 26 26 25 24 21 19 18 17 17 17 17 17 17 17 19 19 20 21 22 23 25 26 27 26 27 28 27 27 26 28 26 26 27 27 29 32
27 24 26 27 25 23 24 25 25 24 23 22 20 19 20 20 19 18 18 18 19 19 20 21 21 22 23 24 25 26 28 27 27 27 28 28 27 27 25 25 27 27 29 31
16 16 16 18 22 23 25 25 23 23 22 22 21 20 21 20 20 19 19 20 21 21 22 22 23 23 24 25 25 27 28 27 27 26 26 27 28 25 24 25 25 26 29 30
14 15 15 15 20 23 24 24 24 24 23 22 22 21 21 22 22 21 21 22 23 23 23 23 24 24 24 25 24 27 28 27 27 26 25 26 28 23 22 23 24 25 27 28
18 21 21 21 21 20 20 22 24 26 26 24 24 23 22 23 24 24 22 24 26 25 24 24 24 24 24 24 24 26 26 26 27 25 25 25 27 22 21 22 22 24 25 26
27 28 29 27 23 24 26 28 28 30 30 27 23 20 18 23 27 26 23 23 28 27 25 25 25 24 23 23 24 24 25 26 27 24 24 25 25 20 20 20 20 22 24 25
31 34 24 35 30 29 30 29 32 32 31 29 25 26 32 37 34 29 23 26 26 28 27 25 25 24 23 22 23 23 25 25 26 24 23 25 22 19 19 19 19 20 22 22
36 40 33 32 40 38 32 30 36 37 37 37 38 39 36 33 31 28 25 27 26 28 27 26 25 24 24 22 23 23 24 24 26 23 22 24 20 18 18 17 17 18 20 21
46 44 42 40 39 37 36 35 39 41 41 41 45 45 44 38 37 33 29 30 29 25 26 27 25 25 24 22 22 23 23 24 25 22 21 22 18 18 17 16 16 16 17 19
44 41 38 38 37 40 43 44 47 42 46 47 50 50 48 45 47 40 32 32 30 24 24 26 26 25 23 22 22 22 23 23 24 22 20 20 17 17 16 15 15 15 15 16
44 39 42 43 44 46 48 47 46 43 46 52 53 53 52 50 48 42 39 35 28 24 23 25 25 24 23 22 21 22 22 22 23 21 20 19 16 17 16 14 14 13 13 14

GFSNGP_700_spd_117.txt.gz
Wind_Speed
23 25 28 33 35 36 39 44 38 50 41 41 32 31 29 27 27 28 26 27 27 23 23 22 19 18 19 20 21 21 21 20 21 21 21 22 23 24 24 24 23 23 23 24
34 30 22 31 35 36 40 42 44 46 50 27 24 19 22 18 22 24 25 23 21 23 23 23 20 19 19 19 20 21 22 22 23 24 25 26 26 26 25 24 24 24 24 24
17 21 34 28 3 8 16 19 21 35 28 24 21 22 16 13 17 21 24 22 22 22 22 21 21 20 20 22 22 22 23 23 25 26 26 27 27 27 27 25 23 22 22 23
18 19 3 6 17 25 23 24 24 28 23 17 21 19 14 16 26 24 21 23 22 21 20 19 19 20 21 22 23 23 24 25 26 27 27 27 28 28 27 25 24 24 24 25
7 7 28 14 2 7 13 21 19 20 16 18 19 19 18 22 31 28 23 22 22 22 19 18 18 20 22 23 23 24 25 27 27 27 28 28 29 28 26 25 25 26 26 27
7 6 6 7 14 16 18 14 3 18 13 10 12 20 18 31 33 27 25 24 21 17 16 18 21 24 23 24 24 25 26 27 28 28 29 30 29 27 26 26 26 28 28 29
22 12 19 23 18 15 7 13 27 26 23 17 17 24 31 29 26 25 23 26 26 26 27 28 28 26 25 24 24 26 26 27 27 28 29 28 27 27 27 28 29 29 28 29
15 11 14 7 8 17 29 36 32 29 27 28 34 32 28 26 25 25 23 23 22 26 29 29 26 24 24 23 24 24 25 25 26 27 26 25 28 30 31 30 30 30 29 29
17 18 30 40 37 39 39 38 38 35 33 35 37 32 29 25 25 26 23 22 20 19 19 19 21 21 21 20 22 23 23 23 24 23 25 28 30 30 29 30 30 31 31 29
37 44 41 40 39 38 39 38 35 33 31 31 30 30 27 27 28 28 26 22 23 21 18 19 19 19 19 19 21 21 21 22 22 25 28 30 30 29 31 32 31 32 32 30
46 42 40 34 24 23 27 28 29 30 32 29 28 27 28 28 29 30 28 23 22 21 19 19 19 19 18 20 19 18 18 21 25 27 27 27 28 31 31 31 32 31 31 29
37 26 30 30 29 32 32 27 26 28 29 29 28 27 29 30 29 29 25 21 19 19 18 18 18 18 19 18 16 16 19 23 25 24 25 26 27 27 30 30 30 31 30 28
35 30 30 28 28 29 29 30 29 27 25 24 25 28 29 29 28 26 22 19 18 18 18 17 18 18 17 16 15 17 20 22 24 25 26 26 28 29 26 25 29 29 27 27
32 35 37 27 28 26 27 26 26 26 24 25 25 26 27 27 25 20 18 18 17 17 17 17 17 17 17 16 16 18 20 23 24 25 24 26 27 28 29 27 28 25 25 26
31 32 38 40 34 29 26 25 24 23 23 25 26 26 26 24 21 19 17 16 17 17 16 17 17 18 17 17 18 20 21 23 25 25 25 27 27 26 27 28 29 25 25 25
31 28 30 32 30 28 27 25 22 20 23 25 27 27 25 22 19 16 15 17 17 16 17 17 18 19 18 19 20 21 22 24 25 26 26 26 27 26 26 28 27 25 25 26
39 35 30 30 28 25 23 21 20 21 25 26 25 23 22 20 18 17 17 18 18 17 17 19 20 20 20 21 21 22 22 24 25 27 26 26 26 26 26 28 24 24 24 25
27 27 24 23 22 19 16 18 21 23 23 21 22 22 21 20 19 20 19 20 19 18 17 22 22 23 22 22 22 22 23 24 26 27 26 26 26 26 26 28 23 24 23 24
16 17 19 19 16 12 16 20 21 19 19 17 21 23 22 21 21 21 21 20 20 20 18 24 25 24 24 24 23 23 23 23 26 26 26 26 25 26 27 27 22 23 23 24
24 19 18 16 16 18 20 23 21 18 20 16 24 26 25 21 25 23 22 20 21 23 21 22 27 26 25 25 24 23 22 23 25 25 26 25 24 24 26 24 22 21 22 23
25 27 26 27 23 20 23 24 25 23 24 27 28 30 25 25 23 24 20 24 22 28 22 23 24 27 26 25 24 22 22 23 24 24 26 24 24 23 24 22 21 21 21 22
30 31 38 41 40 27 22 27 27 29 29 27 26 28 31 26 27 32 34 36 28 26 25 28 24 26 27 26 24 23 22 22 23 24 25 24 23 23 22 20 20 20 20 20
37 36 43 40 40 39 37 35 32 32 35 34 30 30 32 34 43 32 27 29 28 27 31 32 29 23 26 25 24 23 23 22 23 24 25 23 23 22 21 19 19 19 19 19
48 47 45 45 47 49 47 42 40 41 36 36 34 34 38 39 42 44 37 32 32 36 36 34 32 23 25 24 24 23 23 22 23 24 24 22 22 22 19 17 18 18 17 17
47 50 48 44 45 45 44 43 45 42 40 39 42 45 45 44 46 48 44 38 38 40 38 35 30 25 24 23 23 23 23 22 23 23 23 22 21 21 18 17 17 17 16 16
47 48 46 45 44 41 43 41 44 43 46 47 49 53 53 53 51 52 50 42 45 46 39 35 29 28 25 23 22 22 22 22 22 22 22 21 20 19 17 16 16 17 15 15
49 48 48 46 42 40 41 42 40 39 39 39 49 53 52 51 54 55 51 45 48 45 35 32 29 30 27 23 20 22 21 21 21 22 21 19 19 18 16 15 15 15 15 14